<?xml version="1.0" encoding="UTF-8" standalone="no" ?>
<gpx xmlns="http://www.topografix.com/GPX/1/1" xmlns:xsi="http://www.w3.org/2001/XMLSchema-instance" xsi:schemaLocation="http://www.topografix.com/GPX/1/1 http://www.topografix.com/GPX/1/1/gpx.xsd" version="1.1" creator="VisuGPX - https://www.visugpx.com">
  <metadata>
    <name>Rando Cabourg</name>
    <desc><![CDATA[Circuit cabourg avec une erreur de trajet ; De 13 nous passons à 23 km..;]]></desc>
  </metadata>
  <trk>
    <name><![CDATA[ACTIVE LOG150427]]></name>
    <trkseg>
      <trkpt lat="49.29158" lon="-0.12456">
        <ele>9.975</ele>
        <time>2015-09-05T13:04:26Z</time>
      </trkpt>
      <trkpt lat="49.29159" lon="-0.12472">
        <ele>9.962</ele>
        <time>2015-09-05T13:04:36Z</time>
      </trkpt>
      <trkpt lat="49.29163" lon="-0.12475">
        <ele>7.187</ele>
        <time>2015-09-05T13:04:39Z</time>
      </trkpt>
      <trkpt lat="49.29165" lon="-0.12476">
        <ele>13.069</ele>
        <time>2015-09-05T13:04:41Z</time>
      </trkpt>
      <trkpt lat="49.29166" lon="-0.12478">
        <ele>13.328</ele>
        <time>2015-09-05T13:04:42Z</time>
      </trkpt>
      <trkpt lat="49.29169" lon="-0.12479">
        <ele>10.588</ele>
        <time>2015-09-05T13:04:44Z</time>
      </trkpt>
      <trkpt lat="49.29173" lon="-0.12483">
        <ele>11.349</ele>
        <time>2015-09-05T13:04:51Z</time>
      </trkpt>
      <trkpt lat="49.29181" lon="-0.12477">
        <ele>12.001</ele>
        <time>2015-09-05T13:04:59Z</time>
      </trkpt>
      <trkpt lat="49.29185" lon="-0.12467">
        <ele>11.875</ele>
        <time>2015-09-05T13:05:03Z</time>
      </trkpt>
      <trkpt lat="49.29189" lon="-0.1246">
        <ele>11.536</ele>
        <time>2015-09-05T13:05:08Z</time>
      </trkpt>
      <trkpt lat="49.29192" lon="-0.12456">
        <ele>11.576</ele>
        <time>2015-09-05T13:05:21Z</time>
      </trkpt>
      <trkpt lat="49.29193" lon="-0.12455">
        <ele>10.797</ele>
        <time>2015-09-05T13:05:26Z</time>
      </trkpt>
      <trkpt lat="49.29198" lon="-0.12459">
        <ele>10.907</ele>
        <time>2015-09-05T13:05:31Z</time>
      </trkpt>
      <trkpt lat="49.2922" lon="-0.12454">
        <ele>11.449</ele>
        <time>2015-09-05T13:05:41Z</time>
      </trkpt>
      <trkpt lat="49.29231" lon="-0.12468">
        <ele>11.273</ele>
        <time>2015-09-05T13:05:52Z</time>
      </trkpt>
      <trkpt lat="49.29233" lon="-0.12469">
        <ele>11.445</ele>
        <time>2015-09-05T13:05:53Z</time>
      </trkpt>
      <trkpt lat="49.29235" lon="-0.12486">
        <ele>10.462</ele>
        <time>2015-09-05T13:06:00Z</time>
      </trkpt>
      <trkpt lat="49.29229" lon="-0.12516">
        <ele>10.309</ele>
        <time>2015-09-05T13:06:12Z</time>
      </trkpt>
      <trkpt lat="49.29223" lon="-0.12539">
        <ele>10.412</ele>
        <time>2015-09-05T13:06:22Z</time>
      </trkpt>
      <trkpt lat="49.29219" lon="-0.12553">
        <ele>10.575</ele>
        <time>2015-09-05T13:06:30Z</time>
      </trkpt>
      <trkpt lat="49.29213" lon="-0.12577">
        <ele>10.595</ele>
        <time>2015-09-05T13:06:41Z</time>
      </trkpt>
      <trkpt lat="49.29204" lon="-0.12616">
        <ele>10.205</ele>
        <time>2015-09-05T13:06:58Z</time>
      </trkpt>
      <trkpt lat="49.29198" lon="-0.12658">
        <ele>9.346</ele>
        <time>2015-09-05T13:07:18Z</time>
      </trkpt>
      <trkpt lat="49.29193" lon="-0.12688">
        <ele>9.396</ele>
        <time>2015-09-05T13:07:36Z</time>
      </trkpt>
      <trkpt lat="49.29188" lon="-0.12718">
        <ele>9.615</ele>
        <time>2015-09-05T13:07:51Z</time>
      </trkpt>
      <trkpt lat="49.29184" lon="-0.12737">
        <ele>9.044</ele>
        <time>2015-09-05T13:08:00Z</time>
      </trkpt>
      <trkpt lat="49.29179" lon="-0.12765">
        <ele>9.418</ele>
        <time>2015-09-05T13:08:15Z</time>
      </trkpt>
      <trkpt lat="49.2917" lon="-0.128">
        <ele>9.363</ele>
        <time>2015-09-05T13:08:32Z</time>
      </trkpt>
      <trkpt lat="49.29169" lon="-0.12808">
        <ele>4.55</ele>
        <time>2015-09-05T13:08:36Z</time>
      </trkpt>
      <trkpt lat="49.29168" lon="-0.1281">
        <ele>9.043</ele>
        <time>2015-09-05T13:08:37Z</time>
      </trkpt>
      <trkpt lat="49.29163" lon="-0.1283">
        <ele>8.94</ele>
        <time>2015-09-05T13:08:46Z</time>
      </trkpt>
      <trkpt lat="49.29157" lon="-0.1286">
        <ele>9.716</ele>
        <time>2015-09-05T13:08:59Z</time>
      </trkpt>
      <trkpt lat="49.29154" lon="-0.12888">
        <ele>8.782</ele>
        <time>2015-09-05T13:09:12Z</time>
      </trkpt>
      <trkpt lat="49.29149" lon="-0.12918">
        <ele>8.616</ele>
        <time>2015-09-05T13:09:27Z</time>
      </trkpt>
      <trkpt lat="49.29143" lon="-0.12946">
        <ele>8.965</ele>
        <time>2015-09-05T13:09:40Z</time>
      </trkpt>
      <trkpt lat="49.29142" lon="-0.12949">
        <ele>8.984</ele>
        <time>2015-09-05T13:09:42Z</time>
      </trkpt>
      <trkpt lat="49.29137" lon="-0.12975">
        <ele>8.648</ele>
        <time>2015-09-05T13:09:55Z</time>
      </trkpt>
      <trkpt lat="49.29127" lon="-0.13022">
        <ele>8.219</ele>
        <time>2015-09-05T13:10:18Z</time>
      </trkpt>
      <trkpt lat="49.29123" lon="-0.13049">
        <ele>8.327</ele>
        <time>2015-09-05T13:10:31Z</time>
      </trkpt>
      <trkpt lat="49.29118" lon="-0.13076">
        <ele>8.178</ele>
        <time>2015-09-05T13:10:44Z</time>
      </trkpt>
      <trkpt lat="49.29114" lon="-0.13104">
        <ele>8.599</ele>
        <time>2015-09-05T13:10:57Z</time>
      </trkpt>
      <trkpt lat="49.29109" lon="-0.13135">
        <ele>7.791</ele>
        <time>2015-09-05T13:11:12Z</time>
      </trkpt>
      <trkpt lat="49.29102" lon="-0.13177">
        <ele>7.667</ele>
        <time>2015-09-05T13:11:31Z</time>
      </trkpt>
      <trkpt lat="49.29095" lon="-0.13216">
        <ele>7.166</ele>
        <time>2015-09-05T13:11:50Z</time>
      </trkpt>
      <trkpt lat="49.29089" lon="-0.13251">
        <ele>7.698</ele>
        <time>2015-09-05T13:12:06Z</time>
      </trkpt>
      <trkpt lat="49.29082" lon="-0.13288">
        <ele>6.934</ele>
        <time>2015-09-05T13:12:24Z</time>
      </trkpt>
      <trkpt lat="49.29078" lon="-0.13304">
        <ele>7.417</ele>
        <time>2015-09-05T13:12:32Z</time>
      </trkpt>
      <trkpt lat="49.29077" lon="-0.13323">
        <ele>7.241</ele>
        <time>2015-09-05T13:12:43Z</time>
      </trkpt>
      <trkpt lat="49.29076" lon="-0.13322">
        <ele>7.112</ele>
        <time>2015-09-05T13:12:57Z</time>
      </trkpt>
      <trkpt lat="49.29075" lon="-0.13327">
        <ele>6.774</ele>
        <time>2015-09-05T13:13:10Z</time>
      </trkpt>
      <trkpt lat="49.29073" lon="-0.13346">
        <ele>6.995</ele>
        <time>2015-09-05T13:13:18Z</time>
      </trkpt>
      <trkpt lat="49.29071" lon="-0.13353">
        <ele>7.048</ele>
        <time>2015-09-05T13:13:22Z</time>
      </trkpt>
      <trkpt lat="49.29065" lon="-0.13387">
        <ele>7.183</ele>
        <time>2015-09-05T13:13:38Z</time>
      </trkpt>
      <trkpt lat="49.29058" lon="-0.13429">
        <ele>6.715</ele>
        <time>2015-09-05T13:13:56Z</time>
      </trkpt>
      <trkpt lat="49.29054" lon="-0.1346">
        <ele>7.055</ele>
        <time>2015-09-05T13:14:10Z</time>
      </trkpt>
      <trkpt lat="49.29048" lon="-0.13486">
        <ele>6.978</ele>
        <time>2015-09-05T13:14:22Z</time>
      </trkpt>
      <trkpt lat="49.29041" lon="-0.13529">
        <ele>6.071</ele>
        <time>2015-09-05T13:14:42Z</time>
      </trkpt>
      <trkpt lat="49.29033" lon="-0.13577">
        <ele>6.288</ele>
        <time>2015-09-05T13:15:05Z</time>
      </trkpt>
      <trkpt lat="49.29026" lon="-0.1361">
        <ele>6.65</ele>
        <time>2015-09-05T13:15:21Z</time>
      </trkpt>
      <trkpt lat="49.29023" lon="-0.13631">
        <ele>6.767</ele>
        <time>2015-09-05T13:15:35Z</time>
      </trkpt>
      <trkpt lat="49.29023" lon="-0.13635">
        <ele>6.904</ele>
        <time>2015-09-05T13:16:11Z</time>
      </trkpt>
      <trkpt lat="49.29019" lon="-0.13651">
        <ele>7.67</ele>
        <time>2015-09-05T13:16:18Z</time>
      </trkpt>
      <trkpt lat="49.29011" lon="-0.13686">
        <ele>7.372</ele>
        <time>2015-09-05T13:16:33Z</time>
      </trkpt>
      <trkpt lat="49.29005" lon="-0.13715">
        <ele>7.528</ele>
        <time>2015-09-05T13:16:46Z</time>
      </trkpt>
      <trkpt lat="49.28999" lon="-0.1374">
        <ele>7.19</ele>
        <time>2015-09-05T13:16:57Z</time>
      </trkpt>
      <trkpt lat="49.28993" lon="-0.13776">
        <ele>6.701</ele>
        <time>2015-09-05T13:17:14Z</time>
      </trkpt>
      <trkpt lat="49.28986" lon="-0.13821">
        <ele>6.673</ele>
        <time>2015-09-05T13:17:35Z</time>
      </trkpt>
      <trkpt lat="49.28976" lon="-0.13874">
        <ele>6.134</ele>
        <time>2015-09-05T13:18:00Z</time>
      </trkpt>
      <trkpt lat="49.28967" lon="-0.13893">
        <ele>7.461</ele>
        <time>2015-09-05T13:18:10Z</time>
      </trkpt>
      <trkpt lat="49.28957" lon="-0.13909">
        <ele>7.885</ele>
        <time>2015-09-05T13:18:21Z</time>
      </trkpt>
      <trkpt lat="49.28946" lon="-0.13924">
        <ele>9.175</ele>
        <time>2015-09-05T13:18:32Z</time>
      </trkpt>
      <trkpt lat="49.28934" lon="-0.13935">
        <ele>9.454</ele>
        <time>2015-09-05T13:18:43Z</time>
      </trkpt>
      <trkpt lat="49.28932" lon="-0.13939">
        <ele>9.786</ele>
        <time>2015-09-05T13:18:45Z</time>
      </trkpt>
      <trkpt lat="49.28918" lon="-0.13943">
        <ele>9.654</ele>
        <time>2015-09-05T13:18:56Z</time>
      </trkpt>
      <trkpt lat="49.28904" lon="-0.13942">
        <ele>8.652</ele>
        <time>2015-09-05T13:19:07Z</time>
      </trkpt>
      <trkpt lat="49.28884" lon="-0.1394">
        <ele>8.04</ele>
        <time>2015-09-05T13:19:21Z</time>
      </trkpt>
      <trkpt lat="49.28868" lon="-0.13944">
        <ele>7.42</ele>
        <time>2015-09-05T13:19:34Z</time>
      </trkpt>
      <trkpt lat="49.28864" lon="-0.13942">
        <ele>7.106</ele>
        <time>2015-09-05T13:19:42Z</time>
      </trkpt>
      <trkpt lat="49.2886" lon="-0.13939">
        <ele>6.713</ele>
        <time>2015-09-05T13:19:55Z</time>
      </trkpt>
      <trkpt lat="49.28858" lon="-0.13937">
        <ele>5.492</ele>
        <time>2015-09-05T13:20:01Z</time>
      </trkpt>
      <trkpt lat="49.28855" lon="-0.13932">
        <ele>6.536</ele>
        <time>2015-09-05T13:20:18Z</time>
      </trkpt>
      <trkpt lat="49.28853" lon="-0.13935">
        <ele>6.67</ele>
        <time>2015-09-05T13:20:28Z</time>
      </trkpt>
      <trkpt lat="49.28845" lon="-0.13942">
        <ele>5.816</ele>
        <time>2015-09-05T13:20:35Z</time>
      </trkpt>
      <trkpt lat="49.2884" lon="-0.13943">
        <ele>6.117</ele>
        <time>2015-09-05T13:20:44Z</time>
      </trkpt>
      <trkpt lat="49.28833" lon="-0.13941">
        <ele>5.556</ele>
        <time>2015-09-05T13:21:46Z</time>
      </trkpt>
      <trkpt lat="49.28814" lon="-0.13942">
        <ele>5.399</ele>
        <time>2015-09-05T13:21:59Z</time>
      </trkpt>
      <trkpt lat="49.28793" lon="-0.13944">
        <ele>4.916</ele>
        <time>2015-09-05T13:22:13Z</time>
      </trkpt>
      <trkpt lat="49.28779" lon="-0.13944">
        <ele>5.903</ele>
        <time>2015-09-05T13:22:23Z</time>
      </trkpt>
      <trkpt lat="49.28772" lon="-0.13946">
        <ele>5.808</ele>
        <time>2015-09-05T13:22:28Z</time>
      </trkpt>
      <trkpt lat="49.28753" lon="-0.13945">
        <ele>5.062</ele>
        <time>2015-09-05T13:22:41Z</time>
      </trkpt>
      <trkpt lat="49.28732" lon="-0.13947">
        <ele>5.323</ele>
        <time>2015-09-05T13:22:55Z</time>
      </trkpt>
      <trkpt lat="49.28707" lon="-0.13947">
        <ele>5.637</ele>
        <time>2015-09-05T13:23:11Z</time>
      </trkpt>
      <trkpt lat="49.28681" lon="-0.13949">
        <ele>5.038</ele>
        <time>2015-09-05T13:23:29Z</time>
      </trkpt>
      <trkpt lat="49.28661" lon="-0.1395">
        <ele>6.685</ele>
        <time>2015-09-05T13:23:43Z</time>
      </trkpt>
      <trkpt lat="49.28646" lon="-0.13951">
        <ele>5.654</ele>
        <time>2015-09-05T13:23:53Z</time>
      </trkpt>
      <trkpt lat="49.28632" lon="-0.13951">
        <ele>6.265</ele>
        <time>2015-09-05T13:24:02Z</time>
      </trkpt>
      <trkpt lat="49.28615" lon="-0.13954">
        <ele>5.775</ele>
        <time>2015-09-05T13:24:14Z</time>
      </trkpt>
      <trkpt lat="49.28602" lon="-0.13955">
        <ele>5.948</ele>
        <time>2015-09-05T13:24:23Z</time>
      </trkpt>
      <trkpt lat="49.28582" lon="-0.13955">
        <ele>5.341</ele>
        <time>2015-09-05T13:24:36Z</time>
      </trkpt>
      <trkpt lat="49.28565" lon="-0.13958">
        <ele>4.983</ele>
        <time>2015-09-05T13:24:47Z</time>
      </trkpt>
      <trkpt lat="49.2855" lon="-0.13962">
        <ele>5.02</ele>
        <time>2015-09-05T13:24:58Z</time>
      </trkpt>
      <trkpt lat="49.28546" lon="-0.13972">
        <ele>6.042</ele>
        <time>2015-09-05T13:25:05Z</time>
      </trkpt>
      <trkpt lat="49.28542" lon="-0.13975">
        <ele>5.311</ele>
        <time>2015-09-05T13:25:09Z</time>
      </trkpt>
      <trkpt lat="49.28535" lon="-0.1396">
        <ele>6.018</ele>
        <time>2015-09-05T13:25:18Z</time>
      </trkpt>
      <trkpt lat="49.28529" lon="-0.13957">
        <ele>6.329</ele>
        <time>2015-09-05T13:25:22Z</time>
      </trkpt>
      <trkpt lat="49.28506" lon="-0.13959">
        <ele>5.051</ele>
        <time>2015-09-05T13:25:38Z</time>
      </trkpt>
      <trkpt lat="49.28486" lon="-0.13959">
        <ele>6.086</ele>
        <time>2015-09-05T13:25:51Z</time>
      </trkpt>
      <trkpt lat="49.28471" lon="-0.1396">
        <ele>6.534</ele>
        <time>2015-09-05T13:26:01Z</time>
      </trkpt>
      <trkpt lat="49.28457" lon="-0.1396">
        <ele>6.071</ele>
        <time>2015-09-05T13:26:11Z</time>
      </trkpt>
      <trkpt lat="49.28436" lon="-0.1396">
        <ele>5.748</ele>
        <time>2015-09-05T13:26:25Z</time>
      </trkpt>
      <trkpt lat="49.2842" lon="-0.13952">
        <ele>5.334</ele>
        <time>2015-09-05T13:26:36Z</time>
      </trkpt>
      <trkpt lat="49.28401" lon="-0.13941">
        <ele>5.709</ele>
        <time>2015-09-05T13:26:50Z</time>
      </trkpt>
      <trkpt lat="49.28385" lon="-0.13928">
        <ele>5.619</ele>
        <time>2015-09-05T13:27:03Z</time>
      </trkpt>
      <trkpt lat="49.28371" lon="-0.13916">
        <ele>6.27</ele>
        <time>2015-09-05T13:27:14Z</time>
      </trkpt>
      <trkpt lat="49.28356" lon="-0.13908">
        <ele>6.195</ele>
        <time>2015-09-05T13:27:25Z</time>
      </trkpt>
      <trkpt lat="49.28345" lon="-0.13899">
        <ele>6.06</ele>
        <time>2015-09-05T13:27:34Z</time>
      </trkpt>
      <trkpt lat="49.28324" lon="-0.13884">
        <ele>6.617</ele>
        <time>2015-09-05T13:27:49Z</time>
      </trkpt>
      <trkpt lat="49.28306" lon="-0.13869">
        <ele>6.123</ele>
        <time>2015-09-05T13:28:03Z</time>
      </trkpt>
      <trkpt lat="49.28292" lon="-0.13859">
        <ele>6.324</ele>
        <time>2015-09-05T13:28:13Z</time>
      </trkpt>
      <trkpt lat="49.28291" lon="-0.13856">
        <ele>6.171</ele>
        <time>2015-09-05T13:28:15Z</time>
      </trkpt>
      <trkpt lat="49.28276" lon="-0.13842">
        <ele>6.846</ele>
        <time>2015-09-05T13:28:27Z</time>
      </trkpt>
      <trkpt lat="49.28272" lon="-0.13838">
        <ele>6.673</ele>
        <time>2015-09-05T13:28:31Z</time>
      </trkpt>
      <trkpt lat="49.28269" lon="-0.13838">
        <ele>6.787</ele>
        <time>2015-09-05T13:28:39Z</time>
      </trkpt>
      <trkpt lat="49.28265" lon="-0.13841">
        <ele>7.292</ele>
        <time>2015-09-05T13:28:43Z</time>
      </trkpt>
      <trkpt lat="49.28253" lon="-0.13846">
        <ele>6.926</ele>
        <time>2015-09-05T13:28:54Z</time>
      </trkpt>
      <trkpt lat="49.28255" lon="-0.13844">
        <ele>6.913</ele>
        <time>2015-09-05T13:29:00Z</time>
      </trkpt>
      <trkpt lat="49.28255" lon="-0.13844">
        <ele>6.808</ele>
        <time>2015-09-05T13:29:01Z</time>
      </trkpt>
      <trkpt lat="49.28251" lon="-0.13861">
        <ele>6.408</ele>
        <time>2015-09-05T13:29:10Z</time>
      </trkpt>
      <trkpt lat="49.28235" lon="-0.13891">
        <ele>6.461</ele>
        <time>2015-09-05T13:29:26Z</time>
      </trkpt>
      <trkpt lat="49.28225" lon="-0.13904">
        <ele>6.607</ele>
        <time>2015-09-05T13:29:36Z</time>
      </trkpt>
      <trkpt lat="49.28218" lon="-0.13909">
        <ele>7.666</ele>
        <time>2015-09-05T13:29:42Z</time>
      </trkpt>
      <trkpt lat="49.28213" lon="-0.13919">
        <ele>6.363</ele>
        <time>2015-09-05T13:29:49Z</time>
      </trkpt>
      <trkpt lat="49.28205" lon="-0.13926">
        <ele>7</ele>
        <time>2015-09-05T13:29:55Z</time>
      </trkpt>
      <trkpt lat="49.28189" lon="-0.13938">
        <ele>7.057</ele>
        <time>2015-09-05T13:30:07Z</time>
      </trkpt>
      <trkpt lat="49.28172" lon="-0.13948">
        <ele>7.363</ele>
        <time>2015-09-05T13:30:19Z</time>
      </trkpt>
      <trkpt lat="49.28154" lon="-0.13963">
        <ele>6.485</ele>
        <time>2015-09-05T13:30:33Z</time>
      </trkpt>
      <trkpt lat="49.28142" lon="-0.1398">
        <ele>6.173</ele>
        <time>2015-09-05T13:30:45Z</time>
      </trkpt>
      <trkpt lat="49.28134" lon="-0.13996">
        <ele>6.918</ele>
        <time>2015-09-05T13:30:54Z</time>
      </trkpt>
      <trkpt lat="49.28122" lon="-0.1402">
        <ele>6.041</ele>
        <time>2015-09-05T13:31:08Z</time>
      </trkpt>
      <trkpt lat="49.28114" lon="-0.14041">
        <ele>7.094</ele>
        <time>2015-09-05T13:31:18Z</time>
      </trkpt>
      <trkpt lat="49.28102" lon="-0.14072">
        <ele>5.564</ele>
        <time>2015-09-05T13:31:32Z</time>
      </trkpt>
      <trkpt lat="49.28089" lon="-0.14091">
        <ele>6.234</ele>
        <time>2015-09-05T13:31:43Z</time>
      </trkpt>
      <trkpt lat="49.28079" lon="-0.14125">
        <ele>6.938</ele>
        <time>2015-09-05T13:31:58Z</time>
      </trkpt>
      <trkpt lat="49.28072" lon="-0.14145">
        <ele>5.684</ele>
        <time>2015-09-05T13:32:09Z</time>
      </trkpt>
      <trkpt lat="49.2806" lon="-0.14174">
        <ele>6.571</ele>
        <time>2015-09-05T13:32:25Z</time>
      </trkpt>
      <trkpt lat="49.28049" lon="-0.14195">
        <ele>6.083</ele>
        <time>2015-09-05T13:32:37Z</time>
      </trkpt>
      <trkpt lat="49.28038" lon="-0.14218">
        <ele>5.744</ele>
        <time>2015-09-05T13:32:50Z</time>
      </trkpt>
      <trkpt lat="49.28023" lon="-0.14247">
        <ele>6.626</ele>
        <time>2015-09-05T13:33:06Z</time>
      </trkpt>
      <trkpt lat="49.2801" lon="-0.14266">
        <ele>6.478</ele>
        <time>2015-09-05T13:33:18Z</time>
      </trkpt>
      <trkpt lat="49.27998" lon="-0.14283">
        <ele>6.718</ele>
        <time>2015-09-05T13:33:30Z</time>
      </trkpt>
      <trkpt lat="49.27981" lon="-0.14308">
        <ele>6.567</ele>
        <time>2015-09-05T13:33:45Z</time>
      </trkpt>
      <trkpt lat="49.27965" lon="-0.14337">
        <ele>6.723</ele>
        <time>2015-09-05T13:34:01Z</time>
      </trkpt>
      <trkpt lat="49.27953" lon="-0.14361">
        <ele>6.036</ele>
        <time>2015-09-05T13:34:14Z</time>
      </trkpt>
      <trkpt lat="49.27939" lon="-0.14384">
        <ele>7.196</ele>
        <time>2015-09-05T13:34:29Z</time>
      </trkpt>
      <trkpt lat="49.27931" lon="-0.14401">
        <ele>6.27</ele>
        <time>2015-09-05T13:34:39Z</time>
      </trkpt>
      <trkpt lat="49.27916" lon="-0.14428">
        <ele>7.315</ele>
        <time>2015-09-05T13:34:54Z</time>
      </trkpt>
      <trkpt lat="49.27899" lon="-0.14447">
        <ele>7.211</ele>
        <time>2015-09-05T13:35:07Z</time>
      </trkpt>
      <trkpt lat="49.27886" lon="-0.14466">
        <ele>6.675</ele>
        <time>2015-09-05T13:35:20Z</time>
      </trkpt>
      <trkpt lat="49.27874" lon="-0.14485">
        <ele>7.263</ele>
        <time>2015-09-05T13:35:33Z</time>
      </trkpt>
      <trkpt lat="49.27858" lon="-0.14508">
        <ele>6.024</ele>
        <time>2015-09-05T13:35:48Z</time>
      </trkpt>
      <trkpt lat="49.27841" lon="-0.14531">
        <ele>6.134</ele>
        <time>2015-09-05T13:36:04Z</time>
      </trkpt>
      <trkpt lat="49.27824" lon="-0.14556">
        <ele>6.025</ele>
        <time>2015-09-05T13:36:21Z</time>
      </trkpt>
      <trkpt lat="49.2781" lon="-0.14578">
        <ele>5.842</ele>
        <time>2015-09-05T13:36:35Z</time>
      </trkpt>
      <trkpt lat="49.27793" lon="-0.14602">
        <ele>6.422</ele>
        <time>2015-09-05T13:36:51Z</time>
      </trkpt>
      <trkpt lat="49.27779" lon="-0.14626">
        <ele>6.612</ele>
        <time>2015-09-05T13:37:06Z</time>
      </trkpt>
      <trkpt lat="49.27766" lon="-0.14645">
        <ele>6.308</ele>
        <time>2015-09-05T13:37:20Z</time>
      </trkpt>
      <trkpt lat="49.27757" lon="-0.14654">
        <ele>6.026</ele>
        <time>2015-09-05T13:37:28Z</time>
      </trkpt>
      <trkpt lat="49.27746" lon="-0.14669">
        <ele>4.863</ele>
        <time>2015-09-05T13:37:39Z</time>
      </trkpt>
      <trkpt lat="49.27731" lon="-0.14691">
        <ele>6.247</ele>
        <time>2015-09-05T13:37:52Z</time>
      </trkpt>
      <trkpt lat="49.27719" lon="-0.1471">
        <ele>6.249</ele>
        <time>2015-09-05T13:38:04Z</time>
      </trkpt>
      <trkpt lat="49.27706" lon="-0.14731">
        <ele>5.443</ele>
        <time>2015-09-05T13:38:18Z</time>
      </trkpt>
      <trkpt lat="49.27694" lon="-0.14749">
        <ele>5.326</ele>
        <time>2015-09-05T13:38:30Z</time>
      </trkpt>
      <trkpt lat="49.27693" lon="-0.14751">
        <ele>5.492</ele>
        <time>2015-09-05T13:38:32Z</time>
      </trkpt>
      <trkpt lat="49.27698" lon="-0.14758">
        <ele>5.965</ele>
        <time>2015-09-05T13:38:37Z</time>
      </trkpt>
      <trkpt lat="49.27702" lon="-0.14778">
        <ele>5.645</ele>
        <time>2015-09-05T13:38:47Z</time>
      </trkpt>
      <trkpt lat="49.27696" lon="-0.14806">
        <ele>5.438</ele>
        <time>2015-09-05T13:39:00Z</time>
      </trkpt>
      <trkpt lat="49.27689" lon="-0.14826">
        <ele>5.27</ele>
        <time>2015-09-05T13:39:09Z</time>
      </trkpt>
      <trkpt lat="49.27683" lon="-0.14846">
        <ele>5.697</ele>
        <time>2015-09-05T13:39:20Z</time>
      </trkpt>
      <trkpt lat="49.2768" lon="-0.14877">
        <ele>5.869</ele>
        <time>2015-09-05T13:39:34Z</time>
      </trkpt>
      <trkpt lat="49.27674" lon="-0.14904">
        <ele>5.373</ele>
        <time>2015-09-05T13:39:47Z</time>
      </trkpt>
      <trkpt lat="49.27669" lon="-0.14926">
        <ele>4.986</ele>
        <time>2015-09-05T13:39:58Z</time>
      </trkpt>
      <trkpt lat="49.27668" lon="-0.14929">
        <ele>4.592</ele>
        <time>2015-09-05T13:39:59Z</time>
      </trkpt>
      <trkpt lat="49.27661" lon="-0.14951">
        <ele>4.481</ele>
        <time>2015-09-05T13:40:11Z</time>
      </trkpt>
      <trkpt lat="49.27648" lon="-0.14976">
        <ele>5.377</ele>
        <time>2015-09-05T13:40:26Z</time>
      </trkpt>
      <trkpt lat="49.27633" lon="-0.14999">
        <ele>5.099</ele>
        <time>2015-09-05T13:40:41Z</time>
      </trkpt>
      <trkpt lat="49.27617" lon="-0.15016">
        <ele>4.802</ele>
        <time>2015-09-05T13:40:54Z</time>
      </trkpt>
      <trkpt lat="49.27602" lon="-0.15029">
        <ele>5.644</ele>
        <time>2015-09-05T13:41:06Z</time>
      </trkpt>
      <trkpt lat="49.27589" lon="-0.15041">
        <ele>5.452</ele>
        <time>2015-09-05T13:41:16Z</time>
      </trkpt>
      <trkpt lat="49.27584" lon="-0.15043">
        <ele>4.791</ele>
        <time>2015-09-05T13:41:24Z</time>
      </trkpt>
      <trkpt lat="49.27583" lon="-0.15044">
        <ele>5.464</ele>
        <time>2015-09-05T13:41:25Z</time>
      </trkpt>
      <trkpt lat="49.27573" lon="-0.15052">
        <ele>4.92</ele>
        <time>2015-09-05T13:41:35Z</time>
      </trkpt>
      <trkpt lat="49.27569" lon="-0.15054">
        <ele>5.118</ele>
        <time>2015-09-05T13:41:44Z</time>
      </trkpt>
      <trkpt lat="49.27564" lon="-0.15056">
        <ele>5.313</ele>
        <time>2015-09-05T13:42:13Z</time>
      </trkpt>
      <trkpt lat="49.27561" lon="-0.15059">
        <ele>4.737</ele>
        <time>2015-09-05T13:42:16Z</time>
      </trkpt>
      <trkpt lat="49.27556" lon="-0.15061">
        <ele>6.045</ele>
        <time>2015-09-05T13:42:20Z</time>
      </trkpt>
      <trkpt lat="49.27549" lon="-0.15064">
        <ele>5.176</ele>
        <time>2015-09-05T13:42:29Z</time>
      </trkpt>
      <trkpt lat="49.27542" lon="-0.15069">
        <ele>5.262</ele>
        <time>2015-09-05T13:42:51Z</time>
      </trkpt>
      <trkpt lat="49.27525" lon="-0.15077">
        <ele>5.126</ele>
        <time>2015-09-05T13:43:04Z</time>
      </trkpt>
      <trkpt lat="49.27518" lon="-0.15082">
        <ele>4.112</ele>
        <time>2015-09-05T13:43:12Z</time>
      </trkpt>
      <trkpt lat="49.2751" lon="-0.15086">
        <ele>4.978</ele>
        <time>2015-09-05T13:43:20Z</time>
      </trkpt>
      <trkpt lat="49.2751" lon="-0.15088">
        <ele>4.747</ele>
        <time>2015-09-05T13:43:36Z</time>
      </trkpt>
      <trkpt lat="49.2751" lon="-0.15085">
        <ele>4.518</ele>
        <time>2015-09-05T13:43:56Z</time>
      </trkpt>
      <trkpt lat="49.2751" lon="-0.15083">
        <ele>4.614</ele>
        <time>2015-09-05T13:44:32Z</time>
      </trkpt>
      <trkpt lat="49.27511" lon="-0.15083">
        <ele>5.091</ele>
        <time>2015-09-05T13:44:38Z</time>
      </trkpt>
      <trkpt lat="49.27515" lon="-0.15083">
        <ele>4.467</ele>
        <time>2015-09-05T13:44:55Z</time>
      </trkpt>
      <trkpt lat="49.27506" lon="-0.15085">
        <ele>3.458</ele>
        <time>2015-09-05T13:46:29Z</time>
      </trkpt>
      <trkpt lat="49.2749" lon="-0.15093">
        <ele>3.213</ele>
        <time>2015-09-05T13:46:41Z</time>
      </trkpt>
      <trkpt lat="49.27478" lon="-0.15099">
        <ele>4.567</ele>
        <time>2015-09-05T13:46:50Z</time>
      </trkpt>
      <trkpt lat="49.27476" lon="-0.151">
        <ele>3.974</ele>
        <time>2015-09-05T13:46:52Z</time>
      </trkpt>
      <trkpt lat="49.27471" lon="-0.15107">
        <ele>3.433</ele>
        <time>2015-09-05T13:46:57Z</time>
      </trkpt>
      <trkpt lat="49.27461" lon="-0.1511">
        <ele>2.777</ele>
        <time>2015-09-05T13:47:05Z</time>
      </trkpt>
      <trkpt lat="49.27459" lon="-0.15116">
        <ele>3.05</ele>
        <time>2015-09-05T13:47:12Z</time>
      </trkpt>
      <trkpt lat="49.27459" lon="-0.15118">
        <ele>2.541</ele>
        <time>2015-09-05T13:47:14Z</time>
      </trkpt>
      <trkpt lat="49.27458" lon="-0.15134">
        <ele>2.055</ele>
        <time>2015-09-05T13:47:20Z</time>
      </trkpt>
      <trkpt lat="49.27452" lon="-0.15167">
        <ele>2.514</ele>
        <time>2015-09-05T13:47:35Z</time>
      </trkpt>
      <trkpt lat="49.2745" lon="-0.1519">
        <ele>2.209</ele>
        <time>2015-09-05T13:47:45Z</time>
      </trkpt>
      <trkpt lat="49.27448" lon="-0.15222">
        <ele>2.23</ele>
        <time>2015-09-05T13:48:01Z</time>
      </trkpt>
      <trkpt lat="49.27448" lon="-0.15249">
        <ele>3.025</ele>
        <time>2015-09-05T13:48:15Z</time>
      </trkpt>
      <trkpt lat="49.27447" lon="-0.15275">
        <ele>2.065</ele>
        <time>2015-09-05T13:48:26Z</time>
      </trkpt>
      <trkpt lat="49.27447" lon="-0.15294">
        <ele>3.219</ele>
        <time>2015-09-05T13:48:34Z</time>
      </trkpt>
      <trkpt lat="49.27448" lon="-0.15317">
        <ele>2.301</ele>
        <time>2015-09-05T13:48:45Z</time>
      </trkpt>
      <trkpt lat="49.27451" lon="-0.15342">
        <ele>2.281</ele>
        <time>2015-09-05T13:48:56Z</time>
      </trkpt>
      <trkpt lat="49.27452" lon="-0.15345">
        <ele>1.267</ele>
        <time>2015-09-05T13:48:58Z</time>
      </trkpt>
      <trkpt lat="49.2746" lon="-0.15378">
        <ele>1.733</ele>
        <time>2015-09-05T13:49:16Z</time>
      </trkpt>
      <trkpt lat="49.27473" lon="-0.15413">
        <ele>0.744</ele>
        <time>2015-09-05T13:49:34Z</time>
      </trkpt>
      <trkpt lat="49.27479" lon="-0.15433">
        <ele>2.261</ele>
        <time>2015-09-05T13:49:44Z</time>
      </trkpt>
      <trkpt lat="49.27489" lon="-0.15459">
        <ele>2.148</ele>
        <time>2015-09-05T13:49:57Z</time>
      </trkpt>
      <trkpt lat="49.275" lon="-0.15486">
        <ele>1.879</ele>
        <time>2015-09-05T13:50:10Z</time>
      </trkpt>
      <trkpt lat="49.27511" lon="-0.15514">
        <ele>2.242</ele>
        <time>2015-09-05T13:50:23Z</time>
      </trkpt>
      <trkpt lat="49.27521" lon="-0.15539">
        <ele>1.101</ele>
        <time>2015-09-05T13:50:35Z</time>
      </trkpt>
      <trkpt lat="49.27535" lon="-0.15579">
        <ele>1.595</ele>
        <time>2015-09-05T13:50:54Z</time>
      </trkpt>
      <trkpt lat="49.27544" lon="-0.15607">
        <ele>1.801</ele>
        <time>2015-09-05T13:51:08Z</time>
      </trkpt>
      <trkpt lat="49.27552" lon="-0.15633">
        <ele>0.483</ele>
        <time>2015-09-05T13:51:20Z</time>
      </trkpt>
      <trkpt lat="49.27563" lon="-0.1566">
        <ele>1.255</ele>
        <time>2015-09-05T13:51:34Z</time>
      </trkpt>
      <trkpt lat="49.27574" lon="-0.15687">
        <ele>1.409</ele>
        <time>2015-09-05T13:51:48Z</time>
      </trkpt>
      <trkpt lat="49.27582" lon="-0.1571">
        <ele>0.96</ele>
        <time>2015-09-05T13:51:59Z</time>
      </trkpt>
      <trkpt lat="49.27591" lon="-0.15736">
        <ele>1.96</ele>
        <time>2015-09-05T13:52:13Z</time>
      </trkpt>
      <trkpt lat="49.27596" lon="-0.15748">
        <ele>1.364</ele>
        <time>2015-09-05T13:52:19Z</time>
      </trkpt>
      <trkpt lat="49.27605" lon="-0.15776">
        <ele>2.119</ele>
        <time>2015-09-05T13:52:33Z</time>
      </trkpt>
      <trkpt lat="49.27606" lon="-0.15778">
        <ele>2.359</ele>
        <time>2015-09-05T13:52:34Z</time>
      </trkpt>
      <trkpt lat="49.27612" lon="-0.15793">
        <ele>2.252</ele>
        <time>2015-09-05T13:52:42Z</time>
      </trkpt>
      <trkpt lat="49.27619" lon="-0.15811">
        <ele>1.529</ele>
        <time>2015-09-05T13:52:52Z</time>
      </trkpt>
      <trkpt lat="49.27623" lon="-0.1583">
        <ele>1.952</ele>
        <time>2015-09-05T13:53:02Z</time>
      </trkpt>
      <trkpt lat="49.27629" lon="-0.15851">
        <ele>1.44</ele>
        <time>2015-09-05T13:53:12Z</time>
      </trkpt>
      <trkpt lat="49.27635" lon="-0.15868">
        <ele>1.724</ele>
        <time>2015-09-05T13:53:21Z</time>
      </trkpt>
      <trkpt lat="49.27643" lon="-0.15888">
        <ele>1.901</ele>
        <time>2015-09-05T13:53:32Z</time>
      </trkpt>
      <trkpt lat="49.27649" lon="-0.15906">
        <ele>1.063</ele>
        <time>2015-09-05T13:53:41Z</time>
      </trkpt>
      <trkpt lat="49.27661" lon="-0.15939">
        <ele>0.756</ele>
        <time>2015-09-05T13:53:58Z</time>
      </trkpt>
      <trkpt lat="49.2767" lon="-0.15967">
        <ele>0.664</ele>
        <time>2015-09-05T13:54:12Z</time>
      </trkpt>
      <trkpt lat="49.27678" lon="-0.15993">
        <ele>0.093</ele>
        <time>2015-09-05T13:54:25Z</time>
      </trkpt>
      <trkpt lat="49.27684" lon="-0.16009">
        <ele>-0.412</ele>
        <time>2015-09-05T13:54:34Z</time>
      </trkpt>
      <trkpt lat="49.27692" lon="-0.16037">
        <ele>-0.197</ele>
        <time>2015-09-05T13:54:48Z</time>
      </trkpt>
      <trkpt lat="49.27703" lon="-0.16068">
        <ele>0.472</ele>
        <time>2015-09-05T13:55:04Z</time>
      </trkpt>
      <trkpt lat="49.27711" lon="-0.16092">
        <ele>0.784</ele>
        <time>2015-09-05T13:55:17Z</time>
      </trkpt>
      <trkpt lat="49.27721" lon="-0.16118">
        <ele>0.081</ele>
        <time>2015-09-05T13:55:30Z</time>
      </trkpt>
      <trkpt lat="49.27729" lon="-0.16139">
        <ele>1.42</ele>
        <time>2015-09-05T13:55:41Z</time>
      </trkpt>
      <trkpt lat="49.27739" lon="-0.16168">
        <ele>-0.162</ele>
        <time>2015-09-05T13:55:56Z</time>
      </trkpt>
      <trkpt lat="49.27747" lon="-0.16192">
        <ele>0.331</ele>
        <time>2015-09-05T13:56:09Z</time>
      </trkpt>
      <trkpt lat="49.27747" lon="-0.16195">
        <ele>0.578</ele>
        <time>2015-09-05T13:56:10Z</time>
      </trkpt>
      <trkpt lat="49.27756" lon="-0.16219">
        <ele>1.816</ele>
        <time>2015-09-05T13:56:22Z</time>
      </trkpt>
      <trkpt lat="49.27769" lon="-0.16252">
        <ele>1.023</ele>
        <time>2015-09-05T13:56:39Z</time>
      </trkpt>
      <trkpt lat="49.2778" lon="-0.1628">
        <ele>1.798</ele>
        <time>2015-09-05T13:56:53Z</time>
      </trkpt>
      <trkpt lat="49.27786" lon="-0.16294">
        <ele>-0.295</ele>
        <time>2015-09-05T13:57:00Z</time>
      </trkpt>
      <trkpt lat="49.27792" lon="-0.16315">
        <ele>0.495</ele>
        <time>2015-09-05T13:57:10Z</time>
      </trkpt>
      <trkpt lat="49.27801" lon="-0.16336">
        <ele>1.093</ele>
        <time>2015-09-05T13:57:21Z</time>
      </trkpt>
      <trkpt lat="49.27808" lon="-0.16356">
        <ele>-0.012</ele>
        <time>2015-09-05T13:57:31Z</time>
      </trkpt>
      <trkpt lat="49.27815" lon="-0.16376">
        <ele>1.202</ele>
        <time>2015-09-05T13:57:41Z</time>
      </trkpt>
      <trkpt lat="49.27823" lon="-0.16394">
        <ele>0.858</ele>
        <time>2015-09-05T13:57:50Z</time>
      </trkpt>
      <trkpt lat="49.27825" lon="-0.16399">
        <ele>1.057</ele>
        <time>2015-09-05T13:57:52Z</time>
      </trkpt>
      <trkpt lat="49.27829" lon="-0.164">
        <ele>1.286</ele>
        <time>2015-09-05T13:57:56Z</time>
      </trkpt>
      <trkpt lat="49.27834" lon="-0.164">
        <ele>1.63</ele>
        <time>2015-09-05T13:58:01Z</time>
      </trkpt>
      <trkpt lat="49.27847" lon="-0.16396">
        <ele>1.447</ele>
        <time>2015-09-05T13:58:11Z</time>
      </trkpt>
      <trkpt lat="49.27858" lon="-0.16392">
        <ele>1.423</ele>
        <time>2015-09-05T13:58:20Z</time>
      </trkpt>
      <trkpt lat="49.27873" lon="-0.16387">
        <ele>2.524</ele>
        <time>2015-09-05T13:58:31Z</time>
      </trkpt>
      <trkpt lat="49.27891" lon="-0.16384">
        <ele>1.225</ele>
        <time>2015-09-05T13:58:43Z</time>
      </trkpt>
      <trkpt lat="49.27907" lon="-0.16381">
        <ele>1.615</ele>
        <time>2015-09-05T13:58:54Z</time>
      </trkpt>
      <trkpt lat="49.27921" lon="-0.16384">
        <ele>2.388</ele>
        <time>2015-09-05T13:59:04Z</time>
      </trkpt>
      <trkpt lat="49.2793" lon="-0.16402">
        <ele>1.655</ele>
        <time>2015-09-05T13:59:15Z</time>
      </trkpt>
      <trkpt lat="49.27931" lon="-0.16419">
        <ele>2.074</ele>
        <time>2015-09-05T13:59:23Z</time>
      </trkpt>
      <trkpt lat="49.27931" lon="-0.16429">
        <ele>1.453</ele>
        <time>2015-09-05T13:59:29Z</time>
      </trkpt>
      <trkpt lat="49.27931" lon="-0.16433">
        <ele>1.332</ele>
        <time>2015-09-05T13:59:35Z</time>
      </trkpt>
      <trkpt lat="49.27931" lon="-0.16455">
        <ele>1.784</ele>
        <time>2015-09-05T13:59:45Z</time>
      </trkpt>
      <trkpt lat="49.2793" lon="-0.16473">
        <ele>1.501</ele>
        <time>2015-09-05T13:59:55Z</time>
      </trkpt>
      <trkpt lat="49.27936" lon="-0.16496">
        <ele>0.622</ele>
        <time>2015-09-05T14:00:06Z</time>
      </trkpt>
      <trkpt lat="49.27941" lon="-0.16514">
        <ele>0.99</ele>
        <time>2015-09-05T14:00:15Z</time>
      </trkpt>
      <trkpt lat="49.27947" lon="-0.16531">
        <ele>-0.197</ele>
        <time>2015-09-05T14:00:25Z</time>
      </trkpt>
      <trkpt lat="49.27951" lon="-0.16543">
        <ele>0.828</ele>
        <time>2015-09-05T14:00:31Z</time>
      </trkpt>
      <trkpt lat="49.27953" lon="-0.16567">
        <ele>-0.264</ele>
        <time>2015-09-05T14:00:42Z</time>
      </trkpt>
      <trkpt lat="49.27952" lon="-0.16572">
        <ele>1.303</ele>
        <time>2015-09-05T14:00:44Z</time>
      </trkpt>
      <trkpt lat="49.27938" lon="-0.16582">
        <ele>1.193</ele>
        <time>2015-09-05T14:00:54Z</time>
      </trkpt>
      <trkpt lat="49.27929" lon="-0.16591">
        <ele>0.312</ele>
        <time>2015-09-05T14:01:02Z</time>
      </trkpt>
      <trkpt lat="49.27917" lon="-0.16604">
        <ele>0.371</ele>
        <time>2015-09-05T14:01:12Z</time>
      </trkpt>
      <trkpt lat="49.27906" lon="-0.16618">
        <ele>-0.562</ele>
        <time>2015-09-05T14:01:23Z</time>
      </trkpt>
      <trkpt lat="49.27906" lon="-0.1663">
        <ele>-0.156</ele>
        <time>2015-09-05T14:01:28Z</time>
      </trkpt>
      <trkpt lat="49.27909" lon="-0.16643">
        <ele>-0.125</ele>
        <time>2015-09-05T14:01:34Z</time>
      </trkpt>
      <trkpt lat="49.27918" lon="-0.16666">
        <ele>0.276</ele>
        <time>2015-09-05T14:01:45Z</time>
      </trkpt>
      <trkpt lat="49.27926" lon="-0.16686">
        <ele>0.175</ele>
        <time>2015-09-05T14:01:56Z</time>
      </trkpt>
      <trkpt lat="49.27927" lon="-0.16687">
        <ele>0.27</ele>
        <time>2015-09-05T14:02:03Z</time>
      </trkpt>
      <trkpt lat="49.27926" lon="-0.16687">
        <ele>-0.054</ele>
        <time>2015-09-05T14:02:04Z</time>
      </trkpt>
      <trkpt lat="49.27921" lon="-0.1668">
        <ele>0.549</ele>
        <time>2015-09-05T14:02:11Z</time>
      </trkpt>
      <trkpt lat="49.2792" lon="-0.16677">
        <ele>-0.199</ele>
        <time>2015-09-05T14:02:13Z</time>
      </trkpt>
      <trkpt lat="49.2791" lon="-0.16649">
        <ele>0.35</ele>
        <time>2015-09-05T14:02:25Z</time>
      </trkpt>
      <trkpt lat="49.27904" lon="-0.16626">
        <ele>-0.471</ele>
        <time>2015-09-05T14:02:33Z</time>
      </trkpt>
      <trkpt lat="49.27904" lon="-0.16624">
        <ele>-0.1</ele>
        <time>2015-09-05T14:02:34Z</time>
      </trkpt>
      <trkpt lat="49.2791" lon="-0.16609">
        <ele>-0.625</ele>
        <time>2015-09-05T14:02:42Z</time>
      </trkpt>
      <trkpt lat="49.27913" lon="-0.16607">
        <ele>-0.139</ele>
        <time>2015-09-05T14:02:45Z</time>
      </trkpt>
      <trkpt lat="49.27925" lon="-0.16583">
        <ele>-0.297</ele>
        <time>2015-09-05T14:02:57Z</time>
      </trkpt>
      <trkpt lat="49.27926" lon="-0.16581">
        <ele>-0.327</ele>
        <time>2015-09-05T14:02:58Z</time>
      </trkpt>
      <trkpt lat="49.27931" lon="-0.16574">
        <ele>-1.131</ele>
        <time>2015-09-05T14:03:04Z</time>
      </trkpt>
      <trkpt lat="49.27946" lon="-0.1656">
        <ele>0.638</ele>
        <time>2015-09-05T14:03:15Z</time>
      </trkpt>
      <trkpt lat="49.27951" lon="-0.16551">
        <ele>0.169</ele>
        <time>2015-09-05T14:03:20Z</time>
      </trkpt>
      <trkpt lat="49.27951" lon="-0.16549">
        <ele>1.124</ele>
        <time>2015-09-05T14:03:22Z</time>
      </trkpt>
      <trkpt lat="49.27948" lon="-0.16534">
        <ele>-0.444</ele>
        <time>2015-09-05T14:03:29Z</time>
      </trkpt>
      <trkpt lat="49.27944" lon="-0.1652">
        <ele>1.271</ele>
        <time>2015-09-05T14:03:36Z</time>
      </trkpt>
      <trkpt lat="49.27936" lon="-0.16504">
        <ele>0.635</ele>
        <time>2015-09-05T14:03:45Z</time>
      </trkpt>
      <trkpt lat="49.2793" lon="-0.16482">
        <ele>1.293</ele>
        <time>2015-09-05T14:03:55Z</time>
      </trkpt>
      <trkpt lat="49.2793" lon="-0.16466">
        <ele>0.636</ele>
        <time>2015-09-05T14:04:02Z</time>
      </trkpt>
      <trkpt lat="49.2793" lon="-0.16445">
        <ele>0.853</ele>
        <time>2015-09-05T14:04:11Z</time>
      </trkpt>
      <trkpt lat="49.27931" lon="-0.1641">
        <ele>-0.181</ele>
        <time>2015-09-05T14:04:25Z</time>
      </trkpt>
      <trkpt lat="49.27931" lon="-0.16402">
        <ele>1.043</ele>
        <time>2015-09-05T14:04:28Z</time>
      </trkpt>
      <trkpt lat="49.27927" lon="-0.16382">
        <ele>-0.012</ele>
        <time>2015-09-05T14:04:37Z</time>
      </trkpt>
      <trkpt lat="49.27916" lon="-0.16381">
        <ele>-0.119</ele>
        <time>2015-09-05T14:04:46Z</time>
      </trkpt>
      <trkpt lat="49.27915" lon="-0.16381">
        <ele>-0.325</ele>
        <time>2015-09-05T14:04:47Z</time>
      </trkpt>
      <trkpt lat="49.27898" lon="-0.16379">
        <ele>1.402</ele>
        <time>2015-09-05T14:04:58Z</time>
      </trkpt>
      <trkpt lat="49.27879" lon="-0.16382">
        <ele>0.407</ele>
        <time>2015-09-05T14:05:10Z</time>
      </trkpt>
      <trkpt lat="49.27857" lon="-0.16388">
        <ele>-0.25</ele>
        <time>2015-09-05T14:05:24Z</time>
      </trkpt>
      <trkpt lat="49.27843" lon="-0.16393">
        <ele>0.377</ele>
        <time>2015-09-05T14:05:33Z</time>
      </trkpt>
      <trkpt lat="49.27826" lon="-0.16394">
        <ele>-0.061</ele>
        <time>2015-09-05T14:05:46Z</time>
      </trkpt>
      <trkpt lat="49.27825" lon="-0.16396">
        <ele>-0.091</ele>
        <time>2015-09-05T14:05:48Z</time>
      </trkpt>
      <trkpt lat="49.27833" lon="-0.16393">
        <ele>-1.527</ele>
        <time>2015-09-05T14:05:54Z</time>
      </trkpt>
      <trkpt lat="49.2784" lon="-0.164">
        <ele>0.163</ele>
        <time>2015-09-05T14:06:00Z</time>
      </trkpt>
      <trkpt lat="49.27841" lon="-0.164">
        <ele>0.178</ele>
        <time>2015-09-05T14:06:01Z</time>
      </trkpt>
      <trkpt lat="49.27843" lon="-0.164">
        <ele>0.049</ele>
        <time>2015-09-05T14:06:02Z</time>
      </trkpt>
      <trkpt lat="49.27857" lon="-0.16393">
        <ele>-1.366</ele>
        <time>2015-09-05T14:06:12Z</time>
      </trkpt>
      <trkpt lat="49.27861" lon="-0.1639">
        <ele>0.036</ele>
        <time>2015-09-05T14:06:15Z</time>
      </trkpt>
      <trkpt lat="49.27873" lon="-0.16387">
        <ele>0.3</ele>
        <time>2015-09-05T14:06:23Z</time>
      </trkpt>
      <trkpt lat="49.27879" lon="-0.16385">
        <ele>-1.031</ele>
        <time>2015-09-05T14:06:26Z</time>
      </trkpt>
      <trkpt lat="49.27905" lon="-0.16381">
        <ele>-1.516</ele>
        <time>2015-09-05T14:06:42Z</time>
      </trkpt>
      <trkpt lat="49.27927" lon="-0.16391">
        <ele>-0.374</ele>
        <time>2015-09-05T14:06:54Z</time>
      </trkpt>
      <trkpt lat="49.27933" lon="-0.16405">
        <ele>-0.616</ele>
        <time>2015-09-05T14:07:01Z</time>
      </trkpt>
      <trkpt lat="49.27934" lon="-0.16429">
        <ele>0.365</ele>
        <time>2015-09-05T14:07:10Z</time>
      </trkpt>
      <trkpt lat="49.27934" lon="-0.16457">
        <ele>-0.254</ele>
        <time>2015-09-05T14:07:21Z</time>
      </trkpt>
      <trkpt lat="49.27935" lon="-0.16481">
        <ele>-1.763</ele>
        <time>2015-09-05T14:07:31Z</time>
      </trkpt>
      <trkpt lat="49.27944" lon="-0.16511">
        <ele>-0.598</ele>
        <time>2015-09-05T14:07:44Z</time>
      </trkpt>
      <trkpt lat="49.2795" lon="-0.16524">
        <ele>-0.397</ele>
        <time>2015-09-05T14:07:50Z</time>
      </trkpt>
      <trkpt lat="49.27955" lon="-0.16538">
        <ele>-0.251</ele>
        <time>2015-09-05T14:07:56Z</time>
      </trkpt>
      <trkpt lat="49.27959" lon="-0.16559">
        <ele>-1.266</ele>
        <time>2015-09-05T14:08:05Z</time>
      </trkpt>
      <trkpt lat="49.2796" lon="-0.16561">
        <ele>-0.814</ele>
        <time>2015-09-05T14:08:06Z</time>
      </trkpt>
      <trkpt lat="49.27957" lon="-0.16568">
        <ele>-1.113</ele>
        <time>2015-09-05T14:08:09Z</time>
      </trkpt>
      <trkpt lat="49.27955" lon="-0.16573">
        <ele>-0.824</ele>
        <time>2015-09-05T14:08:12Z</time>
      </trkpt>
      <trkpt lat="49.27952" lon="-0.16575">
        <ele>-0.667</ele>
        <time>2015-09-05T14:08:15Z</time>
      </trkpt>
      <trkpt lat="49.27949" lon="-0.16576">
        <ele>-0.795</ele>
        <time>2015-09-05T14:08:22Z</time>
      </trkpt>
      <trkpt lat="49.27948" lon="-0.16577">
        <ele>-0.811</ele>
        <time>2015-09-05T14:08:24Z</time>
      </trkpt>
      <trkpt lat="49.27943" lon="-0.1658">
        <ele>-0.481</ele>
        <time>2015-09-05T14:08:30Z</time>
      </trkpt>
      <trkpt lat="49.2794" lon="-0.16583">
        <ele>-5.222</ele>
        <time>2015-09-05T14:08:32Z</time>
      </trkpt>
      <trkpt lat="49.27938" lon="-0.16584">
        <ele>-0.634</ele>
        <time>2015-09-05T14:08:33Z</time>
      </trkpt>
      <trkpt lat="49.27935" lon="-0.16587">
        <ele>-0.941</ele>
        <time>2015-09-05T14:08:37Z</time>
      </trkpt>
      <trkpt lat="49.27926" lon="-0.16596">
        <ele>-1.335</ele>
        <time>2015-09-05T14:08:46Z</time>
      </trkpt>
      <trkpt lat="49.27919" lon="-0.16605">
        <ele>-1.273</ele>
        <time>2015-09-05T14:08:54Z</time>
      </trkpt>
      <trkpt lat="49.27918" lon="-0.1661">
        <ele>-1.922</ele>
        <time>2015-09-05T14:09:01Z</time>
      </trkpt>
      <trkpt lat="49.27915" lon="-0.16614">
        <ele>-1.934</ele>
        <time>2015-09-05T14:09:07Z</time>
      </trkpt>
      <trkpt lat="49.27912" lon="-0.16618">
        <ele>-1.709</ele>
        <time>2015-09-05T14:09:13Z</time>
      </trkpt>
      <trkpt lat="49.27912" lon="-0.16629">
        <ele>-1.753</ele>
        <time>2015-09-05T14:09:18Z</time>
      </trkpt>
      <trkpt lat="49.27917" lon="-0.16648">
        <ele>-1.918</ele>
        <time>2015-09-05T14:09:29Z</time>
      </trkpt>
      <trkpt lat="49.2792" lon="-0.16662">
        <ele>-1.871</ele>
        <time>2015-09-05T14:09:37Z</time>
      </trkpt>
      <trkpt lat="49.27926" lon="-0.16672">
        <ele>-1.867</ele>
        <time>2015-09-05T14:09:45Z</time>
      </trkpt>
      <trkpt lat="49.2793" lon="-0.1669">
        <ele>-1.698</ele>
        <time>2015-09-05T14:09:54Z</time>
      </trkpt>
      <trkpt lat="49.27936" lon="-0.16707">
        <ele>-1.485</ele>
        <time>2015-09-05T14:10:03Z</time>
      </trkpt>
      <trkpt lat="49.27937" lon="-0.16713">
        <ele>-2.837</ele>
        <time>2015-09-05T14:10:06Z</time>
      </trkpt>
      <trkpt lat="49.27938" lon="-0.16719">
        <ele>-1.428</ele>
        <time>2015-09-05T14:10:09Z</time>
      </trkpt>
      <trkpt lat="49.27944" lon="-0.16743">
        <ele>-1.575</ele>
        <time>2015-09-05T14:10:21Z</time>
      </trkpt>
      <trkpt lat="49.2795" lon="-0.1676">
        <ele>-1.641</ele>
        <time>2015-09-05T14:10:31Z</time>
      </trkpt>
      <trkpt lat="49.27952" lon="-0.16769">
        <ele>-2.008</ele>
        <time>2015-09-05T14:10:37Z</time>
      </trkpt>
      <trkpt lat="49.27958" lon="-0.16798">
        <ele>-1.572</ele>
        <time>2015-09-05T14:10:50Z</time>
      </trkpt>
      <trkpt lat="49.27964" lon="-0.16827">
        <ele>-1.717</ele>
        <time>2015-09-05T14:11:03Z</time>
      </trkpt>
      <trkpt lat="49.27966" lon="-0.16847">
        <ele>-2.971</ele>
        <time>2015-09-05T14:11:12Z</time>
      </trkpt>
      <trkpt lat="49.27967" lon="-0.16864">
        <ele>-1.276</ele>
        <time>2015-09-05T14:11:21Z</time>
      </trkpt>
      <trkpt lat="49.27967" lon="-0.16866">
        <ele>-1.37</ele>
        <time>2015-09-05T14:11:22Z</time>
      </trkpt>
      <trkpt lat="49.27968" lon="-0.16901">
        <ele>-2.224</ele>
        <time>2015-09-05T14:11:37Z</time>
      </trkpt>
      <trkpt lat="49.27966" lon="-0.16929">
        <ele>-1.204</ele>
        <time>2015-09-05T14:11:49Z</time>
      </trkpt>
      <trkpt lat="49.27964" lon="-0.1695">
        <ele>-1.636</ele>
        <time>2015-09-05T14:11:59Z</time>
      </trkpt>
      <trkpt lat="49.27964" lon="-0.16951">
        <ele>-0.916</ele>
        <time>2015-09-05T14:12:06Z</time>
      </trkpt>
      <trkpt lat="49.27963" lon="-0.1695">
        <ele>-2.354</ele>
        <time>2015-09-05T14:12:20Z</time>
      </trkpt>
      <trkpt lat="49.27964" lon="-0.16951">
        <ele>-1.142</ele>
        <time>2015-09-05T14:12:27Z</time>
      </trkpt>
      <trkpt lat="49.27963" lon="-0.16954">
        <ele>-0.884</ele>
        <time>2015-09-05T14:13:03Z</time>
      </trkpt>
      <trkpt lat="49.27962" lon="-0.16978">
        <ele>-0.741</ele>
        <time>2015-09-05T14:13:14Z</time>
      </trkpt>
      <trkpt lat="49.27962" lon="-0.17014">
        <ele>-0.862</ele>
        <time>2015-09-05T14:13:29Z</time>
      </trkpt>
      <trkpt lat="49.27963" lon="-0.17041">
        <ele>-0.829</ele>
        <time>2015-09-05T14:13:40Z</time>
      </trkpt>
      <trkpt lat="49.27962" lon="-0.17075">
        <ele>-2.629</ele>
        <time>2015-09-05T14:13:55Z</time>
      </trkpt>
      <trkpt lat="49.27962" lon="-0.17082">
        <ele>-1.334</ele>
        <time>2015-09-05T14:14:00Z</time>
      </trkpt>
      <trkpt lat="49.27957" lon="-0.171">
        <ele>-1.572</ele>
        <time>2015-09-05T14:14:10Z</time>
      </trkpt>
      <trkpt lat="49.27953" lon="-0.17125">
        <ele>-2.208</ele>
        <time>2015-09-05T14:14:21Z</time>
      </trkpt>
      <trkpt lat="49.27951" lon="-0.17139">
        <ele>-0.825</ele>
        <time>2015-09-05T14:14:30Z</time>
      </trkpt>
      <trkpt lat="49.27951" lon="-0.17139">
        <ele>-4.145</ele>
        <time>2015-09-05T14:14:51Z</time>
      </trkpt>
      <trkpt lat="49.27951" lon="-0.17141">
        <ele>-1.089</ele>
        <time>2015-09-05T14:15:27Z</time>
      </trkpt>
      <trkpt lat="49.27951" lon="-0.17143">
        <ele>-1.951</ele>
        <time>2015-09-05T14:15:28Z</time>
      </trkpt>
      <trkpt lat="49.2795" lon="-0.17146">
        <ele>-2.116</ele>
        <time>2015-09-05T14:15:33Z</time>
      </trkpt>
      <trkpt lat="49.27944" lon="-0.17166">
        <ele>-1.772</ele>
        <time>2015-09-05T14:15:42Z</time>
      </trkpt>
      <trkpt lat="49.27941" lon="-0.17189">
        <ele>-2.048</ele>
        <time>2015-09-05T14:15:50Z</time>
      </trkpt>
      <trkpt lat="49.27932" lon="-0.17225">
        <ele>-2.164</ele>
        <time>2015-09-05T14:16:06Z</time>
      </trkpt>
      <trkpt lat="49.27925" lon="-0.17255">
        <ele>-2.641</ele>
        <time>2015-09-05T14:16:20Z</time>
      </trkpt>
      <trkpt lat="49.27914" lon="-0.17287">
        <ele>-2.809</ele>
        <time>2015-09-05T14:16:35Z</time>
      </trkpt>
      <trkpt lat="49.279" lon="-0.17323">
        <ele>-1.331</ele>
        <time>2015-09-05T14:16:53Z</time>
      </trkpt>
      <trkpt lat="49.27898" lon="-0.17326">
        <ele>-1.614</ele>
        <time>2015-09-05T14:17:00Z</time>
      </trkpt>
      <trkpt lat="49.27895" lon="-0.17336">
        <ele>-2.395</ele>
        <time>2015-09-05T14:17:12Z</time>
      </trkpt>
      <trkpt lat="49.27888" lon="-0.17362">
        <ele>-2.961</ele>
        <time>2015-09-05T14:17:24Z</time>
      </trkpt>
      <trkpt lat="49.27882" lon="-0.17388">
        <ele>-2.03</ele>
        <time>2015-09-05T14:17:36Z</time>
      </trkpt>
      <trkpt lat="49.27876" lon="-0.17419">
        <ele>-1.99</ele>
        <time>2015-09-05T14:17:48Z</time>
      </trkpt>
      <trkpt lat="49.27868" lon="-0.17448">
        <ele>-2.17</ele>
        <time>2015-09-05T14:18:00Z</time>
      </trkpt>
      <trkpt lat="49.27865" lon="-0.17471">
        <ele>-3.008</ele>
        <time>2015-09-05T14:18:09Z</time>
      </trkpt>
      <trkpt lat="49.27859" lon="-0.17508">
        <ele>-3.122</ele>
        <time>2015-09-05T14:18:25Z</time>
      </trkpt>
      <trkpt lat="49.27845" lon="-0.1754">
        <ele>-2.144</ele>
        <time>2015-09-05T14:18:40Z</time>
      </trkpt>
      <trkpt lat="49.27827" lon="-0.17576">
        <ele>-2.574</ele>
        <time>2015-09-05T14:18:58Z</time>
      </trkpt>
      <trkpt lat="49.27811" lon="-0.17604">
        <ele>-1.556</ele>
        <time>2015-09-05T14:19:13Z</time>
      </trkpt>
      <trkpt lat="49.27793" lon="-0.17639">
        <ele>-2.01</ele>
        <time>2015-09-05T14:19:31Z</time>
      </trkpt>
      <trkpt lat="49.27779" lon="-0.17666">
        <ele>-2.982</ele>
        <time>2015-09-05T14:19:46Z</time>
      </trkpt>
      <trkpt lat="49.27763" lon="-0.17696">
        <ele>-2.369</ele>
        <time>2015-09-05T14:20:02Z</time>
      </trkpt>
      <trkpt lat="49.27748" lon="-0.17726">
        <ele>-2.111</ele>
        <time>2015-09-05T14:20:17Z</time>
      </trkpt>
      <trkpt lat="49.27743" lon="-0.1775">
        <ele>-2.394</ele>
        <time>2015-09-05T14:20:27Z</time>
      </trkpt>
      <trkpt lat="49.27737" lon="-0.17787">
        <ele>-2.051</ele>
        <time>2015-09-05T14:20:43Z</time>
      </trkpt>
      <trkpt lat="49.27734" lon="-0.17819">
        <ele>-1.973</ele>
        <time>2015-09-05T14:20:58Z</time>
      </trkpt>
      <trkpt lat="49.27735" lon="-0.17857">
        <ele>-2.427</ele>
        <time>2015-09-05T14:21:14Z</time>
      </trkpt>
      <trkpt lat="49.27735" lon="-0.17895">
        <ele>-2.843</ele>
        <time>2015-09-05T14:21:30Z</time>
      </trkpt>
      <trkpt lat="49.27739" lon="-0.17932">
        <ele>-1.947</ele>
        <time>2015-09-05T14:21:46Z</time>
      </trkpt>
      <trkpt lat="49.27738" lon="-0.17969">
        <ele>-1.781</ele>
        <time>2015-09-05T14:22:02Z</time>
      </trkpt>
      <trkpt lat="49.27729" lon="-0.1799">
        <ele>-1.799</ele>
        <time>2015-09-05T14:22:13Z</time>
      </trkpt>
      <trkpt lat="49.27711" lon="-0.18003">
        <ele>-2.186</ele>
        <time>2015-09-05T14:22:25Z</time>
      </trkpt>
      <trkpt lat="49.27687" lon="-0.18016">
        <ele>-2.284</ele>
        <time>2015-09-05T14:22:42Z</time>
      </trkpt>
      <trkpt lat="49.27667" lon="-0.18028">
        <ele>-2.295</ele>
        <time>2015-09-05T14:22:56Z</time>
      </trkpt>
      <trkpt lat="49.27647" lon="-0.18039">
        <ele>-2.494</ele>
        <time>2015-09-05T14:23:10Z</time>
      </trkpt>
      <trkpt lat="49.27615" lon="-0.18061">
        <ele>-2.534</ele>
        <time>2015-09-05T14:23:32Z</time>
      </trkpt>
      <trkpt lat="49.27606" lon="-0.18081">
        <ele>-2.698</ele>
        <time>2015-09-05T14:23:43Z</time>
      </trkpt>
      <trkpt lat="49.27595" lon="-0.1812">
        <ele>-2.177</ele>
        <time>2015-09-05T14:23:59Z</time>
      </trkpt>
      <trkpt lat="49.27593" lon="-0.18126">
        <ele>-3.398</ele>
        <time>2015-09-05T14:24:02Z</time>
      </trkpt>
      <trkpt lat="49.27582" lon="-0.1816">
        <ele>-2.868</ele>
        <time>2015-09-05T14:24:19Z</time>
      </trkpt>
      <trkpt lat="49.27569" lon="-0.18192">
        <ele>-2.517</ele>
        <time>2015-09-05T14:24:34Z</time>
      </trkpt>
      <trkpt lat="49.27553" lon="-0.18207">
        <ele>-2.617</ele>
        <time>2015-09-05T14:24:46Z</time>
      </trkpt>
      <trkpt lat="49.27533" lon="-0.18213">
        <ele>-2.984</ele>
        <time>2015-09-05T14:24:59Z</time>
      </trkpt>
      <trkpt lat="49.27513" lon="-0.18217">
        <ele>-2.854</ele>
        <time>2015-09-05T14:25:13Z</time>
      </trkpt>
      <trkpt lat="49.27484" lon="-0.18229">
        <ele>-2.592</ele>
        <time>2015-09-05T14:25:31Z</time>
      </trkpt>
      <trkpt lat="49.27464" lon="-0.18239">
        <ele>-2.715</ele>
        <time>2015-09-05T14:25:44Z</time>
      </trkpt>
      <trkpt lat="49.27444" lon="-0.18253">
        <ele>-2.637</ele>
        <time>2015-09-05T14:25:58Z</time>
      </trkpt>
      <trkpt lat="49.27443" lon="-0.18254">
        <ele>-2.63</ele>
        <time>2015-09-05T14:25:59Z</time>
      </trkpt>
      <trkpt lat="49.27431" lon="-0.18257">
        <ele>-2.565</ele>
        <time>2015-09-05T14:26:09Z</time>
      </trkpt>
      <trkpt lat="49.27416" lon="-0.18272">
        <ele>-2.854</ele>
        <time>2015-09-05T14:26:19Z</time>
      </trkpt>
      <trkpt lat="49.27395" lon="-0.18296">
        <ele>-2.608</ele>
        <time>2015-09-05T14:26:34Z</time>
      </trkpt>
      <trkpt lat="49.2738" lon="-0.18315">
        <ele>-2.866</ele>
        <time>2015-09-05T14:26:46Z</time>
      </trkpt>
      <trkpt lat="49.2736" lon="-0.18341">
        <ele>-3.139</ele>
        <time>2015-09-05T14:27:02Z</time>
      </trkpt>
      <trkpt lat="49.27348" lon="-0.18355">
        <ele>-2.684</ele>
        <time>2015-09-05T14:27:12Z</time>
      </trkpt>
      <trkpt lat="49.27341" lon="-0.18366">
        <ele>-3.13</ele>
        <time>2015-09-05T14:27:22Z</time>
      </trkpt>
      <trkpt lat="49.2733" lon="-0.18383">
        <ele>-2.798</ele>
        <time>2015-09-05T14:27:32Z</time>
      </trkpt>
      <trkpt lat="49.27317" lon="-0.18402">
        <ele>-4.176</ele>
        <time>2015-09-05T14:27:44Z</time>
      </trkpt>
      <trkpt lat="49.27315" lon="-0.18404">
        <ele>-5.048</ele>
        <time>2015-09-05T14:27:46Z</time>
      </trkpt>
      <trkpt lat="49.27314" lon="-0.18406">
        <ele>-0.394</ele>
        <time>2015-09-05T14:27:47Z</time>
      </trkpt>
      <trkpt lat="49.27313" lon="-0.18407">
        <ele>-2.507</ele>
        <time>2015-09-05T14:27:48Z</time>
      </trkpt>
      <trkpt lat="49.2731" lon="-0.18412">
        <ele>-2.521</ele>
        <time>2015-09-05T14:27:52Z</time>
      </trkpt>
      <trkpt lat="49.27298" lon="-0.1843">
        <ele>-3.381</ele>
        <time>2015-09-05T14:28:03Z</time>
      </trkpt>
      <trkpt lat="49.27283" lon="-0.18449">
        <ele>-2.889</ele>
        <time>2015-09-05T14:28:15Z</time>
      </trkpt>
      <trkpt lat="49.27272" lon="-0.18466">
        <ele>-3.047</ele>
        <time>2015-09-05T14:28:25Z</time>
      </trkpt>
      <trkpt lat="49.27267" lon="-0.18472">
        <ele>-3.26</ele>
        <time>2015-09-05T14:28:29Z</time>
      </trkpt>
      <trkpt lat="49.27262" lon="-0.18476">
        <ele>-3.084</ele>
        <time>2015-09-05T14:28:33Z</time>
      </trkpt>
      <trkpt lat="49.27247" lon="-0.18495">
        <ele>-2.885</ele>
        <time>2015-09-05T14:28:46Z</time>
      </trkpt>
      <trkpt lat="49.27235" lon="-0.18512">
        <ele>-3.527</ele>
        <time>2015-09-05T14:28:57Z</time>
      </trkpt>
      <trkpt lat="49.27222" lon="-0.18521">
        <ele>-2.679</ele>
        <time>2015-09-05T14:29:08Z</time>
      </trkpt>
      <trkpt lat="49.27219" lon="-0.18525">
        <ele>-2.601</ele>
        <time>2015-09-05T14:29:21Z</time>
      </trkpt>
      <trkpt lat="49.27211" lon="-0.18534">
        <ele>-2.907</ele>
        <time>2015-09-05T14:29:29Z</time>
      </trkpt>
      <trkpt lat="49.272" lon="-0.18545">
        <ele>-2.965</ele>
        <time>2015-09-05T14:29:38Z</time>
      </trkpt>
      <trkpt lat="49.27195" lon="-0.18548">
        <ele>-2.681</ele>
        <time>2015-09-05T14:29:43Z</time>
      </trkpt>
      <trkpt lat="49.27195" lon="-0.18552">
        <ele>-2.687</ele>
        <time>2015-09-05T14:29:49Z</time>
      </trkpt>
      <trkpt lat="49.27191" lon="-0.18559">
        <ele>-2.902</ele>
        <time>2015-09-05T14:30:20Z</time>
      </trkpt>
      <trkpt lat="49.2718" lon="-0.18577">
        <ele>-2.998</ele>
        <time>2015-09-05T14:30:31Z</time>
      </trkpt>
      <trkpt lat="49.27169" lon="-0.18595">
        <ele>-2.708</ele>
        <time>2015-09-05T14:30:42Z</time>
      </trkpt>
      <trkpt lat="49.27154" lon="-0.18624">
        <ele>-2.697</ele>
        <time>2015-09-05T14:30:57Z</time>
      </trkpt>
      <trkpt lat="49.27146" lon="-0.18646">
        <ele>-2.082</ele>
        <time>2015-09-05T14:31:08Z</time>
      </trkpt>
      <trkpt lat="49.27138" lon="-0.1868">
        <ele>-1.725</ele>
        <time>2015-09-05T14:31:23Z</time>
      </trkpt>
      <trkpt lat="49.27135" lon="-0.18712">
        <ele>-0.993</ele>
        <time>2015-09-05T14:31:37Z</time>
      </trkpt>
      <trkpt lat="49.27141" lon="-0.18743">
        <ele>-0.562</ele>
        <time>2015-09-05T14:31:51Z</time>
      </trkpt>
      <trkpt lat="49.2714" lon="-0.18763">
        <ele>-0.59</ele>
        <time>2015-09-05T14:32:00Z</time>
      </trkpt>
      <trkpt lat="49.27135" lon="-0.18772">
        <ele>-0.598</ele>
        <time>2015-09-05T14:32:05Z</time>
      </trkpt>
      <trkpt lat="49.27128" lon="-0.18775">
        <ele>0.169</ele>
        <time>2015-09-05T14:32:10Z</time>
      </trkpt>
      <trkpt lat="49.27109" lon="-0.18769">
        <ele>0.761</ele>
        <time>2015-09-05T14:32:24Z</time>
      </trkpt>
      <trkpt lat="49.27107" lon="-0.18767">
        <ele>0.594</ele>
        <time>2015-09-05T14:32:26Z</time>
      </trkpt>
      <trkpt lat="49.27103" lon="-0.18755">
        <ele>1.058</ele>
        <time>2015-09-05T14:32:35Z</time>
      </trkpt>
      <trkpt lat="49.27102" lon="-0.18745">
        <ele>0.769</ele>
        <time>2015-09-05T14:32:43Z</time>
      </trkpt>
      <trkpt lat="49.27101" lon="-0.18744">
        <ele>0.873</ele>
        <time>2015-09-05T14:32:46Z</time>
      </trkpt>
      <trkpt lat="49.27101" lon="-0.18741">
        <ele>1.314</ele>
        <time>2015-09-05T14:32:48Z</time>
      </trkpt>
      <trkpt lat="49.27098" lon="-0.18722">
        <ele>1.458</ele>
        <time>2015-09-05T14:32:57Z</time>
      </trkpt>
      <trkpt lat="49.27097" lon="-0.18705">
        <ele>1.106</ele>
        <time>2015-09-05T14:33:05Z</time>
      </trkpt>
      <trkpt lat="49.27091" lon="-0.18675">
        <ele>1.148</ele>
        <time>2015-09-05T14:33:17Z</time>
      </trkpt>
      <trkpt lat="49.27085" lon="-0.18643">
        <ele>0.264</ele>
        <time>2015-09-05T14:33:31Z</time>
      </trkpt>
      <trkpt lat="49.27078" lon="-0.18613">
        <ele>-0.457</ele>
        <time>2015-09-05T14:33:44Z</time>
      </trkpt>
      <trkpt lat="49.27067" lon="-0.18582">
        <ele>-1.026</ele>
        <time>2015-09-05T14:33:58Z</time>
      </trkpt>
      <trkpt lat="49.2707" lon="-0.18565">
        <ele>-1.857</ele>
        <time>2015-09-05T14:34:06Z</time>
      </trkpt>
      <trkpt lat="49.27082" lon="-0.18551">
        <ele>-2.325</ele>
        <time>2015-09-05T14:34:18Z</time>
      </trkpt>
      <trkpt lat="49.27083" lon="-0.18548">
        <ele>-2.687</ele>
        <time>2015-09-05T14:34:20Z</time>
      </trkpt>
      <trkpt lat="49.27083" lon="-0.18544">
        <ele>-2.974</ele>
        <time>2015-09-05T14:34:22Z</time>
      </trkpt>
      <trkpt lat="49.27084" lon="-0.18539">
        <ele>-2.118</ele>
        <time>2015-09-05T14:34:25Z</time>
      </trkpt>
      <trkpt lat="49.27084" lon="-0.18526">
        <ele>-2.242</ele>
        <time>2015-09-05T14:34:32Z</time>
      </trkpt>
      <trkpt lat="49.27082" lon="-0.185">
        <ele>-1.949</ele>
        <time>2015-09-05T14:34:42Z</time>
      </trkpt>
      <trkpt lat="49.27079" lon="-0.18483">
        <ele>-2.265</ele>
        <time>2015-09-05T14:34:50Z</time>
      </trkpt>
      <trkpt lat="49.27076" lon="-0.18477">
        <ele>-2.686</ele>
        <time>2015-09-05T14:34:53Z</time>
      </trkpt>
      <trkpt lat="49.27068" lon="-0.1847">
        <ele>-3.162</ele>
        <time>2015-09-05T14:34:58Z</time>
      </trkpt>
      <trkpt lat="49.27064" lon="-0.18471">
        <ele>-2.717</ele>
        <time>2015-09-05T14:35:01Z</time>
      </trkpt>
      <trkpt lat="49.27055" lon="-0.18475">
        <ele>-1.944</ele>
        <time>2015-09-05T14:35:09Z</time>
      </trkpt>
      <trkpt lat="49.2705" lon="-0.1848">
        <ele>-1.77</ele>
        <time>2015-09-05T14:35:13Z</time>
      </trkpt>
      <trkpt lat="49.27044" lon="-0.18488">
        <ele>-1.29</ele>
        <time>2015-09-05T14:35:19Z</time>
      </trkpt>
      <trkpt lat="49.27038" lon="-0.18491">
        <ele>-1.403</ele>
        <time>2015-09-05T14:35:25Z</time>
      </trkpt>
      <trkpt lat="49.27033" lon="-0.18496">
        <ele>-1.081</ele>
        <time>2015-09-05T14:35:32Z</time>
      </trkpt>
      <trkpt lat="49.27031" lon="-0.185">
        <ele>-0.886</ele>
        <time>2015-09-05T14:35:41Z</time>
      </trkpt>
      <trkpt lat="49.27023" lon="-0.18511">
        <ele>-0.484</ele>
        <time>2015-09-05T14:35:49Z</time>
      </trkpt>
      <trkpt lat="49.27014" lon="-0.1852">
        <ele>0.594</ele>
        <time>2015-09-05T14:35:57Z</time>
      </trkpt>
      <trkpt lat="49.27013" lon="-0.18522">
        <ele>0.861</ele>
        <time>2015-09-05T14:35:58Z</time>
      </trkpt>
      <trkpt lat="49.27006" lon="-0.18525">
        <ele>0.35</ele>
        <time>2015-09-05T14:36:05Z</time>
      </trkpt>
      <trkpt lat="49.26992" lon="-0.18538">
        <ele>1.229</ele>
        <time>2015-09-05T14:36:18Z</time>
      </trkpt>
      <trkpt lat="49.26978" lon="-0.18548">
        <ele>1.551</ele>
        <time>2015-09-05T14:36:30Z</time>
      </trkpt>
      <trkpt lat="49.26968" lon="-0.18558">
        <ele>1.671</ele>
        <time>2015-09-05T14:36:39Z</time>
      </trkpt>
      <trkpt lat="49.26966" lon="-0.18559">
        <ele>1.855</ele>
        <time>2015-09-05T14:36:40Z</time>
      </trkpt>
      <trkpt lat="49.26947" lon="-0.18576">
        <ele>1.697</ele>
        <time>2015-09-05T14:36:55Z</time>
      </trkpt>
      <trkpt lat="49.26931" lon="-0.18588">
        <ele>2.594</ele>
        <time>2015-09-05T14:37:08Z</time>
      </trkpt>
      <trkpt lat="49.26912" lon="-0.18605">
        <ele>2.848</ele>
        <time>2015-09-05T14:37:23Z</time>
      </trkpt>
      <trkpt lat="49.26898" lon="-0.18617">
        <ele>2.841</ele>
        <time>2015-09-05T14:37:35Z</time>
      </trkpt>
      <trkpt lat="49.2688" lon="-0.18637">
        <ele>2.186</ele>
        <time>2015-09-05T14:37:49Z</time>
      </trkpt>
      <trkpt lat="49.26864" lon="-0.18655">
        <ele>2.427</ele>
        <time>2015-09-05T14:38:02Z</time>
      </trkpt>
      <trkpt lat="49.26847" lon="-0.18673">
        <ele>2.959</ele>
        <time>2015-09-05T14:38:16Z</time>
      </trkpt>
      <trkpt lat="49.26828" lon="-0.18695">
        <ele>2.517</ele>
        <time>2015-09-05T14:38:31Z</time>
      </trkpt>
      <trkpt lat="49.26814" lon="-0.18709">
        <ele>3.237</ele>
        <time>2015-09-05T14:38:42Z</time>
      </trkpt>
      <trkpt lat="49.26794" lon="-0.18728">
        <ele>3.478</ele>
        <time>2015-09-05T14:38:57Z</time>
      </trkpt>
      <trkpt lat="49.26777" lon="-0.18745">
        <ele>4.537</ele>
        <time>2015-09-05T14:39:10Z</time>
      </trkpt>
      <trkpt lat="49.26775" lon="-0.18748">
        <ele>4.001</ele>
        <time>2015-09-05T14:39:12Z</time>
      </trkpt>
      <trkpt lat="49.26775" lon="-0.18752">
        <ele>4.993</ele>
        <time>2015-09-05T14:39:14Z</time>
      </trkpt>
      <trkpt lat="49.26777" lon="-0.18757">
        <ele>5.4</ele>
        <time>2015-09-05T14:39:17Z</time>
      </trkpt>
      <trkpt lat="49.26785" lon="-0.18776">
        <ele>5.288</ele>
        <time>2015-09-05T14:39:27Z</time>
      </trkpt>
      <trkpt lat="49.26797" lon="-0.18802">
        <ele>4.889</ele>
        <time>2015-09-05T14:39:42Z</time>
      </trkpt>
      <trkpt lat="49.26798" lon="-0.18804">
        <ele>5.267</ele>
        <time>2015-09-05T14:39:43Z</time>
      </trkpt>
      <trkpt lat="49.26797" lon="-0.18805">
        <ele>5.674</ele>
        <time>2015-09-05T14:39:52Z</time>
      </trkpt>
      <trkpt lat="49.26798" lon="-0.18806">
        <ele>5.114</ele>
        <time>2015-09-05T14:39:56Z</time>
      </trkpt>
      <trkpt lat="49.26805" lon="-0.18829">
        <ele>5.291</ele>
        <time>2015-09-05T14:40:08Z</time>
      </trkpt>
      <trkpt lat="49.2682" lon="-0.18864">
        <ele>6.229</ele>
        <time>2015-09-05T14:40:25Z</time>
      </trkpt>
      <trkpt lat="49.26834" lon="-0.18894">
        <ele>5.938</ele>
        <time>2015-09-05T14:40:40Z</time>
      </trkpt>
      <trkpt lat="49.26847" lon="-0.18929">
        <ele>6.178</ele>
        <time>2015-09-05T14:40:56Z</time>
      </trkpt>
      <trkpt lat="49.26859" lon="-0.1896">
        <ele>5.95</ele>
        <time>2015-09-05T14:41:11Z</time>
      </trkpt>
      <trkpt lat="49.26873" lon="-0.18998">
        <ele>6.961</ele>
        <time>2015-09-05T14:41:29Z</time>
      </trkpt>
      <trkpt lat="49.26882" lon="-0.19026">
        <ele>6.948</ele>
        <time>2015-09-05T14:41:42Z</time>
      </trkpt>
      <trkpt lat="49.26892" lon="-0.19056">
        <ele>7.841</ele>
        <time>2015-09-05T14:41:56Z</time>
      </trkpt>
      <trkpt lat="49.26891" lon="-0.19078">
        <ele>7.751</ele>
        <time>2015-09-05T14:42:07Z</time>
      </trkpt>
      <trkpt lat="49.269" lon="-0.19105">
        <ele>7.745</ele>
        <time>2015-09-05T14:42:20Z</time>
      </trkpt>
      <trkpt lat="49.26908" lon="-0.19136">
        <ele>8.091</ele>
        <time>2015-09-05T14:42:35Z</time>
      </trkpt>
      <trkpt lat="49.26919" lon="-0.19167">
        <ele>7.75</ele>
        <time>2015-09-05T14:42:50Z</time>
      </trkpt>
      <trkpt lat="49.26928" lon="-0.19194">
        <ele>7.969</ele>
        <time>2015-09-05T14:43:03Z</time>
      </trkpt>
      <trkpt lat="49.26941" lon="-0.19228">
        <ele>8.248</ele>
        <time>2015-09-05T14:43:20Z</time>
      </trkpt>
      <trkpt lat="49.26946" lon="-0.19238">
        <ele>8.056</ele>
        <time>2015-09-05T14:43:26Z</time>
      </trkpt>
      <trkpt lat="49.26952" lon="-0.19252">
        <ele>8.06</ele>
        <time>2015-09-05T14:43:33Z</time>
      </trkpt>
      <trkpt lat="49.26963" lon="-0.19283">
        <ele>8.012</ele>
        <time>2015-09-05T14:43:48Z</time>
      </trkpt>
      <trkpt lat="49.26974" lon="-0.19312">
        <ele>8.073</ele>
        <time>2015-09-05T14:44:03Z</time>
      </trkpt>
      <trkpt lat="49.26981" lon="-0.19333">
        <ele>7.175</ele>
        <time>2015-09-05T14:44:14Z</time>
      </trkpt>
      <trkpt lat="49.26981" lon="-0.19334">
        <ele>7.495</ele>
        <time>2015-09-05T14:44:15Z</time>
      </trkpt>
      <trkpt lat="49.26985" lon="-0.1934">
        <ele>8.915</ele>
        <time>2015-09-05T14:44:19Z</time>
      </trkpt>
      <trkpt lat="49.26994" lon="-0.19367">
        <ele>8.752</ele>
        <time>2015-09-05T14:44:33Z</time>
      </trkpt>
      <trkpt lat="49.27004" lon="-0.19395">
        <ele>8.649</ele>
        <time>2015-09-05T14:44:47Z</time>
      </trkpt>
      <trkpt lat="49.27011" lon="-0.19422">
        <ele>8.793</ele>
        <time>2015-09-05T14:45:01Z</time>
      </trkpt>
      <trkpt lat="49.27015" lon="-0.19448">
        <ele>8.615</ele>
        <time>2015-09-05T14:45:13Z</time>
      </trkpt>
      <trkpt lat="49.27014" lon="-0.19467">
        <ele>8.568</ele>
        <time>2015-09-05T14:45:22Z</time>
      </trkpt>
      <trkpt lat="49.27007" lon="-0.19495">
        <ele>8.809</ele>
        <time>2015-09-05T14:45:36Z</time>
      </trkpt>
      <trkpt lat="49.27006" lon="-0.195">
        <ele>9.107</ele>
        <time>2015-09-05T14:45:38Z</time>
      </trkpt>
      <trkpt lat="49.27005" lon="-0.19503">
        <ele>9.001</ele>
        <time>2015-09-05T14:45:40Z</time>
      </trkpt>
      <trkpt lat="49.27001" lon="-0.19508">
        <ele>9.273</ele>
        <time>2015-09-05T14:45:43Z</time>
      </trkpt>
      <trkpt lat="49.26992" lon="-0.19534">
        <ele>9.022</ele>
        <time>2015-09-05T14:45:58Z</time>
      </trkpt>
      <trkpt lat="49.26993" lon="-0.19536">
        <ele>9.212</ele>
        <time>2015-09-05T14:46:00Z</time>
      </trkpt>
      <trkpt lat="49.27001" lon="-0.19541">
        <ele>9.02</ele>
        <time>2015-09-05T14:46:09Z</time>
      </trkpt>
      <trkpt lat="49.27002" lon="-0.19543">
        <ele>9.096</ele>
        <time>2015-09-05T14:46:11Z</time>
      </trkpt>
      <trkpt lat="49.27007" lon="-0.19546">
        <ele>9.423</ele>
        <time>2015-09-05T14:46:13Z</time>
      </trkpt>
      <trkpt lat="49.27015" lon="-0.19552">
        <ele>9.959</ele>
        <time>2015-09-05T14:46:18Z</time>
      </trkpt>
      <trkpt lat="49.27021" lon="-0.1956">
        <ele>9.576</ele>
        <time>2015-09-05T14:46:27Z</time>
      </trkpt>
      <trkpt lat="49.27035" lon="-0.19571">
        <ele>9.589</ele>
        <time>2015-09-05T14:46:35Z</time>
      </trkpt>
      <trkpt lat="49.27051" lon="-0.19582">
        <ele>8.44</ele>
        <time>2015-09-05T14:46:44Z</time>
      </trkpt>
      <trkpt lat="49.27051" lon="-0.19583">
        <ele>8.605</ele>
        <time>2015-09-05T14:46:46Z</time>
      </trkpt>
      <trkpt lat="49.2704" lon="-0.19592">
        <ele>8.99</ele>
        <time>2015-09-05T14:46:55Z</time>
      </trkpt>
      <trkpt lat="49.27039" lon="-0.19597">
        <ele>8.733</ele>
        <time>2015-09-05T14:46:58Z</time>
      </trkpt>
      <trkpt lat="49.2704" lon="-0.19602">
        <ele>9.046</ele>
        <time>2015-09-05T14:47:01Z</time>
      </trkpt>
      <trkpt lat="49.27039" lon="-0.19603">
        <ele>9.815</ele>
        <time>2015-09-05T14:47:06Z</time>
      </trkpt>
      <trkpt lat="49.27046" lon="-0.19608">
        <ele>9.037</ele>
        <time>2015-09-05T14:47:13Z</time>
      </trkpt>
      <trkpt lat="49.27048" lon="-0.19611">
        <ele>9.488</ele>
        <time>2015-09-05T14:47:21Z</time>
      </trkpt>
      <trkpt lat="49.27048" lon="-0.19611">
        <ele>8.317</ele>
        <time>2015-09-05T14:47:38Z</time>
      </trkpt>
      <trkpt lat="49.27048" lon="-0.19621">
        <ele>8.271</ele>
        <time>2015-09-05T14:47:43Z</time>
      </trkpt>
      <trkpt lat="49.27045" lon="-0.19629">
        <ele>8.792</ele>
        <time>2015-09-05T14:47:48Z</time>
      </trkpt>
      <trkpt lat="49.27027" lon="-0.19648">
        <ele>9.284</ele>
        <time>2015-09-05T14:48:03Z</time>
      </trkpt>
      <trkpt lat="49.27026" lon="-0.19649">
        <ele>9.336</ele>
        <time>2015-09-05T14:48:13Z</time>
      </trkpt>
      <trkpt lat="49.27026" lon="-0.19649">
        <ele>9.417</ele>
        <time>2015-09-05T14:48:14Z</time>
      </trkpt>
      <trkpt lat="49.27014" lon="-0.19648">
        <ele>9.304</ele>
        <time>2015-09-05T14:48:25Z</time>
      </trkpt>
      <trkpt lat="49.27013" lon="-0.19648">
        <ele>9.797</ele>
        <time>2015-09-05T14:48:34Z</time>
      </trkpt>
      <trkpt lat="49.27011" lon="-0.19648">
        <ele>9.691</ele>
        <time>2015-09-05T14:48:54Z</time>
      </trkpt>
      <trkpt lat="49.27011" lon="-0.19645">
        <ele>10.093</ele>
        <time>2015-09-05T14:49:10Z</time>
      </trkpt>
      <trkpt lat="49.27013" lon="-0.1964">
        <ele>9.715</ele>
        <time>2015-09-05T14:49:21Z</time>
      </trkpt>
      <trkpt lat="49.27014" lon="-0.1964">
        <ele>9.425</ele>
        <time>2015-09-05T14:49:25Z</time>
      </trkpt>
      <trkpt lat="49.27012" lon="-0.19644">
        <ele>9.904</ele>
        <time>2015-09-05T14:49:33Z</time>
      </trkpt>
      <trkpt lat="49.27011" lon="-0.19645">
        <ele>5.627</ele>
        <time>2015-09-05T14:50:29Z</time>
      </trkpt>
      <trkpt lat="49.27011" lon="-0.19645">
        <ele>15.621</ele>
        <time>2015-09-05T14:50:30Z</time>
      </trkpt>
      <trkpt lat="49.27011" lon="-0.19645">
        <ele>10.087</ele>
        <time>2015-09-05T14:50:31Z</time>
      </trkpt>
      <trkpt lat="49.27011" lon="-0.19645">
        <ele>0.302</ele>
        <time>2015-09-05T14:50:33Z</time>
      </trkpt>
      <trkpt lat="49.27011" lon="-0.19645">
        <ele>9.154</ele>
        <time>2015-09-05T14:50:34Z</time>
      </trkpt>
      <trkpt lat="49.27012" lon="-0.19644">
        <ele>9.487</ele>
        <time>2015-09-05T14:50:59Z</time>
      </trkpt>
      <trkpt lat="49.27014" lon="-0.19641">
        <ele>10.008</ele>
        <time>2015-09-05T14:51:01Z</time>
      </trkpt>
      <trkpt lat="49.2702" lon="-0.19639">
        <ele>9.531</ele>
        <time>2015-09-05T14:51:06Z</time>
      </trkpt>
      <trkpt lat="49.27031" lon="-0.19641">
        <ele>9.14</ele>
        <time>2015-09-05T14:51:16Z</time>
      </trkpt>
      <trkpt lat="49.27041" lon="-0.19637">
        <ele>8.785</ele>
        <time>2015-09-05T14:51:24Z</time>
      </trkpt>
      <trkpt lat="49.27055" lon="-0.19616">
        <ele>8.737</ele>
        <time>2015-09-05T14:51:37Z</time>
      </trkpt>
      <trkpt lat="49.27064" lon="-0.19602">
        <ele>9.178</ele>
        <time>2015-09-05T14:51:47Z</time>
      </trkpt>
      <trkpt lat="49.27065" lon="-0.196">
        <ele>9.123</ele>
        <time>2015-09-05T14:51:50Z</time>
      </trkpt>
      <trkpt lat="49.27067" lon="-0.19598">
        <ele>8.937</ele>
        <time>2015-09-05T14:51:56Z</time>
      </trkpt>
      <trkpt lat="49.27069" lon="-0.19599">
        <ele>8.415</ele>
        <time>2015-09-05T14:51:58Z</time>
      </trkpt>
      <trkpt lat="49.27075" lon="-0.19602">
        <ele>8.634</ele>
        <time>2015-09-05T14:52:06Z</time>
      </trkpt>
      <trkpt lat="49.27091" lon="-0.1961">
        <ele>8.146</ele>
        <time>2015-09-05T14:52:16Z</time>
      </trkpt>
      <trkpt lat="49.27105" lon="-0.19619">
        <ele>7.747</ele>
        <time>2015-09-05T14:52:27Z</time>
      </trkpt>
      <trkpt lat="49.27128" lon="-0.19631">
        <ele>7.965</ele>
        <time>2015-09-05T14:52:40Z</time>
      </trkpt>
      <trkpt lat="49.27131" lon="-0.19643">
        <ele>8.063</ele>
        <time>2015-09-05T14:52:48Z</time>
      </trkpt>
      <trkpt lat="49.27129" lon="-0.19641">
        <ele>8.049</ele>
        <time>2015-09-05T14:52:57Z</time>
      </trkpt>
      <trkpt lat="49.2713" lon="-0.19646">
        <ele>8.003</ele>
        <time>2015-09-05T14:53:02Z</time>
      </trkpt>
      <trkpt lat="49.27128" lon="-0.19667">
        <ele>8.186</ele>
        <time>2015-09-05T14:53:11Z</time>
      </trkpt>
      <trkpt lat="49.27128" lon="-0.19689">
        <ele>9.201</ele>
        <time>2015-09-05T14:53:21Z</time>
      </trkpt>
      <trkpt lat="49.27125" lon="-0.19714">
        <ele>8.688</ele>
        <time>2015-09-05T14:53:34Z</time>
      </trkpt>
      <trkpt lat="49.27126" lon="-0.19739">
        <ele>8.79</ele>
        <time>2015-09-05T14:53:48Z</time>
      </trkpt>
      <trkpt lat="49.27128" lon="-0.1976">
        <ele>8.617</ele>
        <time>2015-09-05T14:54:00Z</time>
      </trkpt>
      <trkpt lat="49.27128" lon="-0.19779">
        <ele>9.702</ele>
        <time>2015-09-05T14:54:10Z</time>
      </trkpt>
      <trkpt lat="49.27129" lon="-0.19801">
        <ele>9.226</ele>
        <time>2015-09-05T14:54:20Z</time>
      </trkpt>
      <trkpt lat="49.27129" lon="-0.19802">
        <ele>3.342</ele>
        <time>2015-09-05T14:54:21Z</time>
      </trkpt>
      <trkpt lat="49.2713" lon="-0.19804">
        <ele>7.438</ele>
        <time>2015-09-05T14:54:22Z</time>
      </trkpt>
      <trkpt lat="49.27129" lon="-0.19808">
        <ele>9.507</ele>
        <time>2015-09-05T14:54:24Z</time>
      </trkpt>
      <trkpt lat="49.27132" lon="-0.19827">
        <ele>9.405</ele>
        <time>2015-09-05T14:54:33Z</time>
      </trkpt>
      <trkpt lat="49.27132" lon="-0.19843">
        <ele>9.752</ele>
        <time>2015-09-05T14:54:40Z</time>
      </trkpt>
      <trkpt lat="49.27133" lon="-0.1985">
        <ele>9.803</ele>
        <time>2015-09-05T14:54:44Z</time>
      </trkpt>
      <trkpt lat="49.27137" lon="-0.19885">
        <ele>9.005</ele>
        <time>2015-09-05T14:54:59Z</time>
      </trkpt>
      <trkpt lat="49.27138" lon="-0.19891">
        <ele>9.331</ele>
        <time>2015-09-05T14:55:02Z</time>
      </trkpt>
      <trkpt lat="49.27142" lon="-0.19913">
        <ele>9.263</ele>
        <time>2015-09-05T14:55:13Z</time>
      </trkpt>
      <trkpt lat="49.27143" lon="-0.19924">
        <ele>8.714</ele>
        <time>2015-09-05T14:55:20Z</time>
      </trkpt>
      <trkpt lat="49.27146" lon="-0.19939">
        <ele>8.671</ele>
        <time>2015-09-05T14:55:27Z</time>
      </trkpt>
      <trkpt lat="49.27149" lon="-0.19944">
        <ele>8.868</ele>
        <time>2015-09-05T14:55:30Z</time>
      </trkpt>
      <trkpt lat="49.27153" lon="-0.19955">
        <ele>8.659</ele>
        <time>2015-09-05T14:55:36Z</time>
      </trkpt>
      <trkpt lat="49.27159" lon="-0.19964">
        <ele>7.745</ele>
        <time>2015-09-05T14:55:41Z</time>
      </trkpt>
      <trkpt lat="49.27164" lon="-0.1998">
        <ele>9.555</ele>
        <time>2015-09-05T14:55:53Z</time>
      </trkpt>
      <trkpt lat="49.27167" lon="-0.19988">
        <ele>8.802</ele>
        <time>2015-09-05T14:55:59Z</time>
      </trkpt>
      <trkpt lat="49.27176" lon="-0.20005">
        <ele>7.697</ele>
        <time>2015-09-05T14:56:09Z</time>
      </trkpt>
      <trkpt lat="49.27184" lon="-0.20024">
        <ele>7.612</ele>
        <time>2015-09-05T14:56:19Z</time>
      </trkpt>
      <trkpt lat="49.27197" lon="-0.2004">
        <ele>7.552</ele>
        <time>2015-09-05T14:56:32Z</time>
      </trkpt>
      <trkpt lat="49.27208" lon="-0.20052">
        <ele>7.181</ele>
        <time>2015-09-05T14:56:41Z</time>
      </trkpt>
      <trkpt lat="49.27218" lon="-0.20065">
        <ele>6.666</ele>
        <time>2015-09-05T14:56:51Z</time>
      </trkpt>
      <trkpt lat="49.27216" lon="-0.20063">
        <ele>6.879</ele>
        <time>2015-09-05T14:56:56Z</time>
      </trkpt>
      <trkpt lat="49.27218" lon="-0.20062">
        <ele>6.789</ele>
        <time>2015-09-05T14:57:00Z</time>
      </trkpt>
      <trkpt lat="49.2722" lon="-0.20067">
        <ele>6.717</ele>
        <time>2015-09-05T14:57:04Z</time>
      </trkpt>
      <trkpt lat="49.27235" lon="-0.20081">
        <ele>6.016</ele>
        <time>2015-09-05T14:57:15Z</time>
      </trkpt>
      <trkpt lat="49.27242" lon="-0.20091">
        <ele>6.799</ele>
        <time>2015-09-05T14:57:22Z</time>
      </trkpt>
      <trkpt lat="49.27255" lon="-0.2011">
        <ele>7.275</ele>
        <time>2015-09-05T14:57:33Z</time>
      </trkpt>
      <trkpt lat="49.27258" lon="-0.20114">
        <ele>7.14</ele>
        <time>2015-09-05T14:57:35Z</time>
      </trkpt>
      <trkpt lat="49.27265" lon="-0.20125">
        <ele>6.86</ele>
        <time>2015-09-05T14:57:42Z</time>
      </trkpt>
      <trkpt lat="49.27273" lon="-0.20144">
        <ele>6.751</ele>
        <time>2015-09-05T14:57:51Z</time>
      </trkpt>
      <trkpt lat="49.27273" lon="-0.20144">
        <ele>7.782</ele>
        <time>2015-09-05T14:57:52Z</time>
      </trkpt>
      <trkpt lat="49.27269" lon="-0.20141">
        <ele>7.962</ele>
        <time>2015-09-05T14:57:59Z</time>
      </trkpt>
      <trkpt lat="49.27274" lon="-0.20154">
        <ele>6.736</ele>
        <time>2015-09-05T14:58:07Z</time>
      </trkpt>
      <trkpt lat="49.27279" lon="-0.20171">
        <ele>7.572</ele>
        <time>2015-09-05T14:58:15Z</time>
      </trkpt>
      <trkpt lat="49.2728" lon="-0.20172">
        <ele>6.02</ele>
        <time>2015-09-05T14:58:16Z</time>
      </trkpt>
      <trkpt lat="49.27283" lon="-0.2018">
        <ele>6.758</ele>
        <time>2015-09-05T14:58:20Z</time>
      </trkpt>
      <trkpt lat="49.27285" lon="-0.20199">
        <ele>7.876</ele>
        <time>2015-09-05T14:58:30Z</time>
      </trkpt>
      <trkpt lat="49.27287" lon="-0.20211">
        <ele>8</ele>
        <time>2015-09-05T14:58:38Z</time>
      </trkpt>
      <trkpt lat="49.2729" lon="-0.20232">
        <ele>8.046</ele>
        <time>2015-09-05T14:58:48Z</time>
      </trkpt>
      <trkpt lat="49.2729" lon="-0.20247">
        <ele>8.155</ele>
        <time>2015-09-05T14:58:55Z</time>
      </trkpt>
      <trkpt lat="49.27295" lon="-0.2026">
        <ele>8.522</ele>
        <time>2015-09-05T14:59:05Z</time>
      </trkpt>
      <trkpt lat="49.273" lon="-0.20276">
        <ele>8.558</ele>
        <time>2015-09-05T14:59:14Z</time>
      </trkpt>
      <trkpt lat="49.27309" lon="-0.20299">
        <ele>8.013</ele>
        <time>2015-09-05T14:59:26Z</time>
      </trkpt>
      <trkpt lat="49.27313" lon="-0.20314">
        <ele>7.821</ele>
        <time>2015-09-05T14:59:34Z</time>
      </trkpt>
      <trkpt lat="49.27322" lon="-0.20336">
        <ele>7.491</ele>
        <time>2015-09-05T14:59:46Z</time>
      </trkpt>
      <trkpt lat="49.27327" lon="-0.20355">
        <ele>7.436</ele>
        <time>2015-09-05T14:59:55Z</time>
      </trkpt>
      <trkpt lat="49.27332" lon="-0.2037">
        <ele>6.687</ele>
        <time>2015-09-05T15:00:03Z</time>
      </trkpt>
      <trkpt lat="49.27336" lon="-0.20378">
        <ele>6.047</ele>
        <time>2015-09-05T15:00:08Z</time>
      </trkpt>
      <trkpt lat="49.2734" lon="-0.20384">
        <ele>6.103</ele>
        <time>2015-09-05T15:00:12Z</time>
      </trkpt>
      <trkpt lat="49.27347" lon="-0.20395">
        <ele>5.613</ele>
        <time>2015-09-05T15:00:19Z</time>
      </trkpt>
      <trkpt lat="49.2735" lon="-0.20402">
        <ele>5.03</ele>
        <time>2015-09-05T15:00:23Z</time>
      </trkpt>
      <trkpt lat="49.27353" lon="-0.20408">
        <ele>4.085</ele>
        <time>2015-09-05T15:00:26Z</time>
      </trkpt>
      <trkpt lat="49.27358" lon="-0.20421">
        <ele>3.544</ele>
        <time>2015-09-05T15:00:34Z</time>
      </trkpt>
      <trkpt lat="49.27361" lon="-0.20436">
        <ele>2.859</ele>
        <time>2015-09-05T15:00:43Z</time>
      </trkpt>
      <trkpt lat="49.27358" lon="-0.20445">
        <ele>3.326</ele>
        <time>2015-09-05T15:00:49Z</time>
      </trkpt>
      <trkpt lat="49.27353" lon="-0.2045">
        <ele>3.707</ele>
        <time>2015-09-05T15:00:55Z</time>
      </trkpt>
      <trkpt lat="49.27351" lon="-0.20458">
        <ele>3.268</ele>
        <time>2015-09-05T15:00:59Z</time>
      </trkpt>
      <trkpt lat="49.27348" lon="-0.20466">
        <ele>3.083</ele>
        <time>2015-09-05T15:01:02Z</time>
      </trkpt>
      <trkpt lat="49.27346" lon="-0.20473">
        <ele>3.097</ele>
        <time>2015-09-05T15:01:05Z</time>
      </trkpt>
      <trkpt lat="49.27334" lon="-0.20496">
        <ele>2.911</ele>
        <time>2015-09-05T15:01:17Z</time>
      </trkpt>
      <trkpt lat="49.27326" lon="-0.20521">
        <ele>3.521</ele>
        <time>2015-09-05T15:01:29Z</time>
      </trkpt>
      <trkpt lat="49.27315" lon="-0.20545">
        <ele>3.327</ele>
        <time>2015-09-05T15:01:42Z</time>
      </trkpt>
      <trkpt lat="49.27308" lon="-0.20559">
        <ele>3.942</ele>
        <time>2015-09-05T15:01:51Z</time>
      </trkpt>
      <trkpt lat="49.27302" lon="-0.20563">
        <ele>4.753</ele>
        <time>2015-09-05T15:01:59Z</time>
      </trkpt>
      <trkpt lat="49.27302" lon="-0.20566">
        <ele>4.605</ele>
        <time>2015-09-05T15:02:11Z</time>
      </trkpt>
      <trkpt lat="49.27302" lon="-0.20565">
        <ele>4.537</ele>
        <time>2015-09-05T15:02:28Z</time>
      </trkpt>
      <trkpt lat="49.27301" lon="-0.20563">
        <ele>4.762</ele>
        <time>2015-09-05T15:05:19Z</time>
      </trkpt>
      <trkpt lat="49.27289" lon="-0.20562">
        <ele>4.539</ele>
        <time>2015-09-05T15:05:27Z</time>
      </trkpt>
      <trkpt lat="49.27275" lon="-0.20564">
        <ele>6.092</ele>
        <time>2015-09-05T15:05:37Z</time>
      </trkpt>
      <trkpt lat="49.27268" lon="-0.20563">
        <ele>5.926</ele>
        <time>2015-09-05T15:05:45Z</time>
      </trkpt>
      <trkpt lat="49.27266" lon="-0.20562">
        <ele>6.589</ele>
        <time>2015-09-05T15:06:38Z</time>
      </trkpt>
      <trkpt lat="49.27259" lon="-0.20561">
        <ele>6.641</ele>
        <time>2015-09-05T15:06:46Z</time>
      </trkpt>
      <trkpt lat="49.2724" lon="-0.20558">
        <ele>7.328</ele>
        <time>2015-09-05T15:07:00Z</time>
      </trkpt>
      <trkpt lat="49.27231" lon="-0.20556">
        <ele>7.375</ele>
        <time>2015-09-05T15:07:10Z</time>
      </trkpt>
      <trkpt lat="49.27216" lon="-0.20554">
        <ele>7.514</ele>
        <time>2015-09-05T15:07:21Z</time>
      </trkpt>
      <trkpt lat="49.27199" lon="-0.20554">
        <ele>8.074</ele>
        <time>2015-09-05T15:07:34Z</time>
      </trkpt>
      <trkpt lat="49.27193" lon="-0.20553">
        <ele>7.937</ele>
        <time>2015-09-05T15:07:42Z</time>
      </trkpt>
      <trkpt lat="49.27182" lon="-0.20554">
        <ele>7.484</ele>
        <time>2015-09-05T15:07:50Z</time>
      </trkpt>
      <trkpt lat="49.27165" lon="-0.20555">
        <ele>8.779</ele>
        <time>2015-09-05T15:08:02Z</time>
      </trkpt>
      <trkpt lat="49.27142" lon="-0.20556">
        <ele>8.155</ele>
        <time>2015-09-05T15:08:18Z</time>
      </trkpt>
      <trkpt lat="49.27135" lon="-0.20554">
        <ele>8.297</ele>
        <time>2015-09-05T15:08:25Z</time>
      </trkpt>
      <trkpt lat="49.27124" lon="-0.20556">
        <ele>8.029</ele>
        <time>2015-09-05T15:08:33Z</time>
      </trkpt>
      <trkpt lat="49.27104" lon="-0.20553">
        <ele>7.862</ele>
        <time>2015-09-05T15:08:47Z</time>
      </trkpt>
      <trkpt lat="49.27092" lon="-0.20552">
        <ele>7.914</ele>
        <time>2015-09-05T15:08:56Z</time>
      </trkpt>
      <trkpt lat="49.27087" lon="-0.20552">
        <ele>7.81</ele>
        <time>2015-09-05T15:08:59Z</time>
      </trkpt>
      <trkpt lat="49.27082" lon="-0.2055">
        <ele>7.775</ele>
        <time>2015-09-05T15:09:03Z</time>
      </trkpt>
      <trkpt lat="49.27073" lon="-0.20549">
        <ele>8.04</ele>
        <time>2015-09-05T15:09:10Z</time>
      </trkpt>
      <trkpt lat="49.27059" lon="-0.20546">
        <ele>7.982</ele>
        <time>2015-09-05T15:09:20Z</time>
      </trkpt>
      <trkpt lat="49.27048" lon="-0.20545">
        <ele>10.937</ele>
        <time>2015-09-05T15:09:30Z</time>
      </trkpt>
      <trkpt lat="49.27049" lon="-0.20543">
        <ele>2.926</ele>
        <time>2015-09-05T15:09:35Z</time>
      </trkpt>
      <trkpt lat="49.27047" lon="-0.20543">
        <ele>5.025</ele>
        <time>2015-09-05T15:09:37Z</time>
      </trkpt>
      <trkpt lat="49.2703" lon="-0.20539">
        <ele>7.947</ele>
        <time>2015-09-05T15:09:49Z</time>
      </trkpt>
      <trkpt lat="49.2701" lon="-0.20531">
        <ele>7.409</ele>
        <time>2015-09-05T15:10:03Z</time>
      </trkpt>
      <trkpt lat="49.27008" lon="-0.20528">
        <ele>7.524</ele>
        <time>2015-09-05T15:10:06Z</time>
      </trkpt>
      <trkpt lat="49.27005" lon="-0.20525">
        <ele>7.852</ele>
        <time>2015-09-05T15:10:14Z</time>
      </trkpt>
      <trkpt lat="49.27001" lon="-0.20523">
        <ele>7.65</ele>
        <time>2015-09-05T15:10:19Z</time>
      </trkpt>
      <trkpt lat="49.2698" lon="-0.20522">
        <ele>7.779</ele>
        <time>2015-09-05T15:10:34Z</time>
      </trkpt>
      <trkpt lat="49.26965" lon="-0.2052">
        <ele>7.878</ele>
        <time>2015-09-05T15:10:44Z</time>
      </trkpt>
      <trkpt lat="49.26961" lon="-0.20521">
        <ele>7.62</ele>
        <time>2015-09-05T15:10:47Z</time>
      </trkpt>
      <trkpt lat="49.26952" lon="-0.20523">
        <ele>8.102</ele>
        <time>2015-09-05T15:10:54Z</time>
      </trkpt>
      <trkpt lat="49.2695" lon="-0.20521">
        <ele>8.666</ele>
        <time>2015-09-05T15:10:57Z</time>
      </trkpt>
      <trkpt lat="49.26927" lon="-0.20525">
        <ele>8.155</ele>
        <time>2015-09-05T15:11:12Z</time>
      </trkpt>
      <trkpt lat="49.26903" lon="-0.20529">
        <ele>6.569</ele>
        <time>2015-09-05T15:11:28Z</time>
      </trkpt>
      <trkpt lat="49.26899" lon="-0.20527">
        <ele>6.934</ele>
        <time>2015-09-05T15:11:31Z</time>
      </trkpt>
      <trkpt lat="49.26883" lon="-0.20533">
        <ele>6.627</ele>
        <time>2015-09-05T15:11:44Z</time>
      </trkpt>
      <trkpt lat="49.26868" lon="-0.20541">
        <ele>6.961</ele>
        <time>2015-09-05T15:11:56Z</time>
      </trkpt>
      <trkpt lat="49.26857" lon="-0.20549">
        <ele>7.321</ele>
        <time>2015-09-05T15:12:05Z</time>
      </trkpt>
      <trkpt lat="49.26853" lon="-0.20548">
        <ele>7.124</ele>
        <time>2015-09-05T15:12:08Z</time>
      </trkpt>
      <trkpt lat="49.26849" lon="-0.20549">
        <ele>7.48</ele>
        <time>2015-09-05T15:12:12Z</time>
      </trkpt>
      <trkpt lat="49.26836" lon="-0.20551">
        <ele>7.598</ele>
        <time>2015-09-05T15:12:22Z</time>
      </trkpt>
      <trkpt lat="49.26822" lon="-0.20554">
        <ele>7.745</ele>
        <time>2015-09-05T15:12:32Z</time>
      </trkpt>
      <trkpt lat="49.26806" lon="-0.20557">
        <ele>8.239</ele>
        <time>2015-09-05T15:12:43Z</time>
      </trkpt>
      <trkpt lat="49.26792" lon="-0.20559">
        <ele>9.079</ele>
        <time>2015-09-05T15:12:54Z</time>
      </trkpt>
      <trkpt lat="49.26777" lon="-0.20562">
        <ele>9.197</ele>
        <time>2015-09-05T15:13:04Z</time>
      </trkpt>
      <trkpt lat="49.26761" lon="-0.20566">
        <ele>8.731</ele>
        <time>2015-09-05T15:13:15Z</time>
      </trkpt>
      <trkpt lat="49.2675" lon="-0.20567">
        <ele>9.777</ele>
        <time>2015-09-05T15:13:23Z</time>
      </trkpt>
      <trkpt lat="49.2674" lon="-0.20571">
        <ele>9.721</ele>
        <time>2015-09-05T15:13:31Z</time>
      </trkpt>
      <trkpt lat="49.26723" lon="-0.20577">
        <ele>9.336</ele>
        <time>2015-09-05T15:13:43Z</time>
      </trkpt>
      <trkpt lat="49.2672" lon="-0.20578">
        <ele>9.518</ele>
        <time>2015-09-05T15:13:45Z</time>
      </trkpt>
      <trkpt lat="49.26701" lon="-0.2058">
        <ele>9.746</ele>
        <time>2015-09-05T15:13:59Z</time>
      </trkpt>
      <trkpt lat="49.26676" lon="-0.20586">
        <ele>10.332</ele>
        <time>2015-09-05T15:14:17Z</time>
      </trkpt>
      <trkpt lat="49.2666" lon="-0.20589">
        <ele>11.039</ele>
        <time>2015-09-05T15:14:29Z</time>
      </trkpt>
      <trkpt lat="49.26657" lon="-0.20589">
        <ele>11.125</ele>
        <time>2015-09-05T15:14:36Z</time>
      </trkpt>
      <trkpt lat="49.26658" lon="-0.2059">
        <ele>11.612</ele>
        <time>2015-09-05T15:14:44Z</time>
      </trkpt>
      <trkpt lat="49.26657" lon="-0.2059">
        <ele>11.018</ele>
        <time>2015-09-05T15:14:51Z</time>
      </trkpt>
      <trkpt lat="49.26653" lon="-0.2059">
        <ele>11.055</ele>
        <time>2015-09-05T15:14:56Z</time>
      </trkpt>
      <trkpt lat="49.26648" lon="-0.20589">
        <ele>11.309</ele>
        <time>2015-09-05T15:15:06Z</time>
      </trkpt>
      <trkpt lat="49.26646" lon="-0.2059">
        <ele>10.829</ele>
        <time>2015-09-05T15:15:22Z</time>
      </trkpt>
      <trkpt lat="49.2664" lon="-0.20588">
        <ele>11.332</ele>
        <time>2015-09-05T15:15:33Z</time>
      </trkpt>
      <trkpt lat="49.2663" lon="-0.20591">
        <ele>11.368</ele>
        <time>2015-09-05T15:15:42Z</time>
      </trkpt>
      <trkpt lat="49.26623" lon="-0.20593">
        <ele>11.195</ele>
        <time>2015-09-05T15:15:48Z</time>
      </trkpt>
      <trkpt lat="49.26621" lon="-0.20592">
        <ele>11.078</ele>
        <time>2015-09-05T15:15:50Z</time>
      </trkpt>
      <trkpt lat="49.26608" lon="-0.20593">
        <ele>11.207</ele>
        <time>2015-09-05T15:16:02Z</time>
      </trkpt>
      <trkpt lat="49.26595" lon="-0.20591">
        <ele>11.336</ele>
        <time>2015-09-05T15:16:12Z</time>
      </trkpt>
      <trkpt lat="49.26587" lon="-0.20588">
        <ele>11.689</ele>
        <time>2015-09-05T15:16:20Z</time>
      </trkpt>
      <trkpt lat="49.26577" lon="-0.20585">
        <ele>11.861</ele>
        <time>2015-09-05T15:16:29Z</time>
      </trkpt>
      <trkpt lat="49.26567" lon="-0.20583">
        <ele>11.864</ele>
        <time>2015-09-05T15:16:37Z</time>
      </trkpt>
      <trkpt lat="49.26558" lon="-0.20582">
        <ele>11.842</ele>
        <time>2015-09-05T15:16:43Z</time>
      </trkpt>
      <trkpt lat="49.26553" lon="-0.20583">
        <ele>11.786</ele>
        <time>2015-09-05T15:16:47Z</time>
      </trkpt>
      <trkpt lat="49.26543" lon="-0.20579">
        <ele>12.477</ele>
        <time>2015-09-05T15:16:57Z</time>
      </trkpt>
      <trkpt lat="49.26534" lon="-0.20575">
        <ele>12.184</ele>
        <time>2015-09-05T15:17:04Z</time>
      </trkpt>
      <trkpt lat="49.2652" lon="-0.20566">
        <ele>12.424</ele>
        <time>2015-09-05T15:17:15Z</time>
      </trkpt>
      <trkpt lat="49.26517" lon="-0.20564">
        <ele>12.285</ele>
        <time>2015-09-05T15:17:18Z</time>
      </trkpt>
      <trkpt lat="49.26511" lon="-0.20562">
        <ele>12.296</ele>
        <time>2015-09-05T15:17:23Z</time>
      </trkpt>
      <trkpt lat="49.26509" lon="-0.20562">
        <ele>12.129</ele>
        <time>2015-09-05T15:17:25Z</time>
      </trkpt>
      <trkpt lat="49.26506" lon="-0.20561">
        <ele>12.463</ele>
        <time>2015-09-05T15:17:28Z</time>
      </trkpt>
      <trkpt lat="49.26495" lon="-0.20552">
        <ele>13.208</ele>
        <time>2015-09-05T15:17:37Z</time>
      </trkpt>
      <trkpt lat="49.26483" lon="-0.20543">
        <ele>12.989</ele>
        <time>2015-09-05T15:17:49Z</time>
      </trkpt>
      <trkpt lat="49.26483" lon="-0.20541">
        <ele>13.285</ele>
        <time>2015-09-05T15:17:58Z</time>
      </trkpt>
      <trkpt lat="49.26477" lon="-0.20538">
        <ele>12.942</ele>
        <time>2015-09-05T15:18:05Z</time>
      </trkpt>
      <trkpt lat="49.26468" lon="-0.20535">
        <ele>12.714</ele>
        <time>2015-09-05T15:18:11Z</time>
      </trkpt>
      <trkpt lat="49.26458" lon="-0.20535">
        <ele>12.944</ele>
        <time>2015-09-05T15:18:18Z</time>
      </trkpt>
      <trkpt lat="49.2645" lon="-0.20536">
        <ele>13.133</ele>
        <time>2015-09-05T15:18:25Z</time>
      </trkpt>
      <trkpt lat="49.26448" lon="-0.20535">
        <ele>13.502</ele>
        <time>2015-09-05T15:18:27Z</time>
      </trkpt>
      <trkpt lat="49.26446" lon="-0.20535">
        <ele>13.106</ele>
        <time>2015-09-05T15:18:29Z</time>
      </trkpt>
      <trkpt lat="49.26432" lon="-0.20535">
        <ele>13.214</ele>
        <time>2015-09-05T15:18:40Z</time>
      </trkpt>
      <trkpt lat="49.2642" lon="-0.20534">
        <ele>13.762</ele>
        <time>2015-09-05T15:18:50Z</time>
      </trkpt>
      <trkpt lat="49.26408" lon="-0.20534">
        <ele>13.778</ele>
        <time>2015-09-05T15:19:00Z</time>
      </trkpt>
      <trkpt lat="49.26395" lon="-0.2054">
        <ele>13.93</ele>
        <time>2015-09-05T15:19:08Z</time>
      </trkpt>
      <trkpt lat="49.26379" lon="-0.20543">
        <ele>14.067</ele>
        <time>2015-09-05T15:19:21Z</time>
      </trkpt>
      <trkpt lat="49.26373" lon="-0.20544">
        <ele>14.079</ele>
        <time>2015-09-05T15:19:26Z</time>
      </trkpt>
      <trkpt lat="49.2636" lon="-0.20545">
        <ele>14.566</ele>
        <time>2015-09-05T15:19:36Z</time>
      </trkpt>
      <trkpt lat="49.26345" lon="-0.20548">
        <ele>14.476</ele>
        <time>2015-09-05T15:19:47Z</time>
      </trkpt>
      <trkpt lat="49.26326" lon="-0.20551">
        <ele>14.993</ele>
        <time>2015-09-05T15:20:01Z</time>
      </trkpt>
      <trkpt lat="49.26311" lon="-0.20555">
        <ele>14.919</ele>
        <time>2015-09-05T15:20:13Z</time>
      </trkpt>
      <trkpt lat="49.26301" lon="-0.20546">
        <ele>14.942</ele>
        <time>2015-09-05T15:20:22Z</time>
      </trkpt>
      <trkpt lat="49.26299" lon="-0.20522">
        <ele>15.213</ele>
        <time>2015-09-05T15:20:33Z</time>
      </trkpt>
      <trkpt lat="49.26296" lon="-0.20494">
        <ele>15.494</ele>
        <time>2015-09-05T15:20:46Z</time>
      </trkpt>
      <trkpt lat="49.26294" lon="-0.20469">
        <ele>15.468</ele>
        <time>2015-09-05T15:20:58Z</time>
      </trkpt>
      <trkpt lat="49.2629" lon="-0.20447">
        <ele>15.866</ele>
        <time>2015-09-05T15:21:11Z</time>
      </trkpt>
      <trkpt lat="49.2629" lon="-0.20443">
        <ele>16.246</ele>
        <time>2015-09-05T15:21:13Z</time>
      </trkpt>
      <trkpt lat="49.2629" lon="-0.20435">
        <ele>15.984</ele>
        <time>2015-09-05T15:21:18Z</time>
      </trkpt>
      <trkpt lat="49.26286" lon="-0.2041">
        <ele>15.727</ele>
        <time>2015-09-05T15:21:31Z</time>
      </trkpt>
      <trkpt lat="49.26283" lon="-0.20381">
        <ele>15.966</ele>
        <time>2015-09-05T15:21:45Z</time>
      </trkpt>
      <trkpt lat="49.2628" lon="-0.20356">
        <ele>16.307</ele>
        <time>2015-09-05T15:21:57Z</time>
      </trkpt>
      <trkpt lat="49.26276" lon="-0.20329">
        <ele>15.692</ele>
        <time>2015-09-05T15:22:11Z</time>
      </trkpt>
      <trkpt lat="49.26272" lon="-0.20298">
        <ele>15.787</ele>
        <time>2015-09-05T15:22:26Z</time>
      </trkpt>
      <trkpt lat="49.26268" lon="-0.2027">
        <ele>16.167</ele>
        <time>2015-09-05T15:22:41Z</time>
      </trkpt>
      <trkpt lat="49.26267" lon="-0.20252">
        <ele>15.937</ele>
        <time>2015-09-05T15:22:49Z</time>
      </trkpt>
      <trkpt lat="49.26265" lon="-0.20229">
        <ele>15.964</ele>
        <time>2015-09-05T15:23:00Z</time>
      </trkpt>
      <trkpt lat="49.26265" lon="-0.20227">
        <ele>10.522</ele>
        <time>2015-09-05T15:23:01Z</time>
      </trkpt>
      <trkpt lat="49.26265" lon="-0.20224">
        <ele>17.129</ele>
        <time>2015-09-05T15:23:02Z</time>
      </trkpt>
      <trkpt lat="49.26265" lon="-0.20207">
        <ele>15.704</ele>
        <time>2015-09-05T15:23:09Z</time>
      </trkpt>
      <trkpt lat="49.26266" lon="-0.20186">
        <ele>15.363</ele>
        <time>2015-09-05T15:23:18Z</time>
      </trkpt>
      <trkpt lat="49.26266" lon="-0.20158">
        <ele>15.539</ele>
        <time>2015-09-05T15:23:31Z</time>
      </trkpt>
      <trkpt lat="49.26267" lon="-0.20136">
        <ele>15.656</ele>
        <time>2015-09-05T15:23:42Z</time>
      </trkpt>
      <trkpt lat="49.26267" lon="-0.20117">
        <ele>15.732</ele>
        <time>2015-09-05T15:23:52Z</time>
      </trkpt>
      <trkpt lat="49.26266" lon="-0.2009">
        <ele>15.896</ele>
        <time>2015-09-05T15:24:05Z</time>
      </trkpt>
      <trkpt lat="49.26265" lon="-0.20063">
        <ele>15.031</ele>
        <time>2015-09-05T15:24:16Z</time>
      </trkpt>
      <trkpt lat="49.26264" lon="-0.20038">
        <ele>15.572</ele>
        <time>2015-09-05T15:24:28Z</time>
      </trkpt>
      <trkpt lat="49.26261" lon="-0.20016">
        <ele>15.621</ele>
        <time>2015-09-05T15:24:39Z</time>
      </trkpt>
      <trkpt lat="49.26259" lon="-0.19998">
        <ele>15.461</ele>
        <time>2015-09-05T15:24:48Z</time>
      </trkpt>
      <trkpt lat="49.26257" lon="-0.19967">
        <ele>15.072</ele>
        <time>2015-09-05T15:24:59Z</time>
      </trkpt>
      <trkpt lat="49.26251" lon="-0.19936">
        <ele>15.141</ele>
        <time>2015-09-05T15:25:11Z</time>
      </trkpt>
      <trkpt lat="49.26245" lon="-0.19908">
        <ele>15.015</ele>
        <time>2015-09-05T15:25:23Z</time>
      </trkpt>
      <trkpt lat="49.26239" lon="-0.19878">
        <ele>15.219</ele>
        <time>2015-09-05T15:25:37Z</time>
      </trkpt>
      <trkpt lat="49.26231" lon="-0.19845">
        <ele>15.541</ele>
        <time>2015-09-05T15:25:52Z</time>
      </trkpt>
      <trkpt lat="49.26228" lon="-0.19823">
        <ele>15.099</ele>
        <time>2015-09-05T15:26:02Z</time>
      </trkpt>
      <trkpt lat="49.26221" lon="-0.19785">
        <ele>15.1</ele>
        <time>2015-09-05T15:26:19Z</time>
      </trkpt>
      <trkpt lat="49.26221" lon="-0.19781">
        <ele>14.899</ele>
        <time>2015-09-05T15:26:21Z</time>
      </trkpt>
      <trkpt lat="49.2622" lon="-0.19745">
        <ele>14.846</ele>
        <time>2015-09-05T15:26:38Z</time>
      </trkpt>
      <trkpt lat="49.2622" lon="-0.19738">
        <ele>14.689</ele>
        <time>2015-09-05T15:26:41Z</time>
      </trkpt>
      <trkpt lat="49.26214" lon="-0.19713">
        <ele>15.051</ele>
        <time>2015-09-05T15:26:54Z</time>
      </trkpt>
      <trkpt lat="49.26212" lon="-0.19702">
        <ele>14.865</ele>
        <time>2015-09-05T15:26:59Z</time>
      </trkpt>
      <trkpt lat="49.26208" lon="-0.19678">
        <ele>15.081</ele>
        <time>2015-09-05T15:27:11Z</time>
      </trkpt>
      <trkpt lat="49.26204" lon="-0.19651">
        <ele>14.573</ele>
        <time>2015-09-05T15:27:24Z</time>
      </trkpt>
      <trkpt lat="49.26199" lon="-0.19621">
        <ele>13.343</ele>
        <time>2015-09-05T15:27:38Z</time>
      </trkpt>
      <trkpt lat="49.26189" lon="-0.19583">
        <ele>12.788</ele>
        <time>2015-09-05T15:27:55Z</time>
      </trkpt>
      <trkpt lat="49.26182" lon="-0.19554">
        <ele>12.247</ele>
        <time>2015-09-05T15:28:08Z</time>
      </trkpt>
      <trkpt lat="49.26172" lon="-0.19506">
        <ele>12.037</ele>
        <time>2015-09-05T15:28:29Z</time>
      </trkpt>
      <trkpt lat="49.26164" lon="-0.19466">
        <ele>11.542</ele>
        <time>2015-09-05T15:28:46Z</time>
      </trkpt>
      <trkpt lat="49.26162" lon="-0.19436">
        <ele>10.92</ele>
        <time>2015-09-05T15:29:00Z</time>
      </trkpt>
      <trkpt lat="49.26158" lon="-0.19388">
        <ele>10.883</ele>
        <time>2015-09-05T15:29:21Z</time>
      </trkpt>
      <trkpt lat="49.26152" lon="-0.19337">
        <ele>10.104</ele>
        <time>2015-09-05T15:29:42Z</time>
      </trkpt>
      <trkpt lat="49.26145" lon="-0.19307">
        <ele>9.285</ele>
        <time>2015-09-05T15:29:56Z</time>
      </trkpt>
      <trkpt lat="49.26134" lon="-0.19282">
        <ele>8.32</ele>
        <time>2015-09-05T15:30:09Z</time>
      </trkpt>
      <trkpt lat="49.26117" lon="-0.19254">
        <ele>7.101</ele>
        <time>2015-09-05T15:30:26Z</time>
      </trkpt>
      <trkpt lat="49.26102" lon="-0.19233">
        <ele>7.242</ele>
        <time>2015-09-05T15:30:39Z</time>
      </trkpt>
      <trkpt lat="49.26091" lon="-0.19218">
        <ele>6.402</ele>
        <time>2015-09-05T15:30:49Z</time>
      </trkpt>
      <trkpt lat="49.26092" lon="-0.19218">
        <ele>6.224</ele>
        <time>2015-09-05T15:31:00Z</time>
      </trkpt>
      <trkpt lat="49.26092" lon="-0.19216">
        <ele>6.205</ele>
        <time>2015-09-05T15:31:15Z</time>
      </trkpt>
      <trkpt lat="49.26092" lon="-0.19216">
        <ele>6.375</ele>
        <time>2015-09-05T15:31:59Z</time>
      </trkpt>
      <trkpt lat="49.26092" lon="-0.19216">
        <ele>6.28</ele>
        <time>2015-09-05T15:32:00Z</time>
      </trkpt>
      <trkpt lat="49.26089" lon="-0.19211">
        <ele>6.094</ele>
        <time>2015-09-05T15:32:04Z</time>
      </trkpt>
      <trkpt lat="49.26085" lon="-0.19201">
        <ele>5.823</ele>
        <time>2015-09-05T15:32:11Z</time>
      </trkpt>
      <trkpt lat="49.26087" lon="-0.19207">
        <ele>5.969</ele>
        <time>2015-09-05T15:32:18Z</time>
      </trkpt>
      <trkpt lat="49.26086" lon="-0.19207">
        <ele>5.74</ele>
        <time>2015-09-05T15:32:21Z</time>
      </trkpt>
      <trkpt lat="49.26079" lon="-0.19199">
        <ele>5.47</ele>
        <time>2015-09-05T15:32:29Z</time>
      </trkpt>
      <trkpt lat="49.26071" lon="-0.19186">
        <ele>5.652</ele>
        <time>2015-09-05T15:32:39Z</time>
      </trkpt>
      <trkpt lat="49.26064" lon="-0.19173">
        <ele>5.68</ele>
        <time>2015-09-05T15:32:46Z</time>
      </trkpt>
      <trkpt lat="49.2606" lon="-0.19171">
        <ele>5.419</ele>
        <time>2015-09-05T15:32:51Z</time>
      </trkpt>
      <trkpt lat="49.26059" lon="-0.19171">
        <ele>5.367</ele>
        <time>2015-09-05T15:32:57Z</time>
      </trkpt>
      <trkpt lat="49.26059" lon="-0.1917">
        <ele>5.11</ele>
        <time>2015-09-05T15:33:45Z</time>
      </trkpt>
      <trkpt lat="49.26059" lon="-0.1917">
        <ele>5.778</ele>
        <time>2015-09-05T15:34:23Z</time>
      </trkpt>
      <trkpt lat="49.26055" lon="-0.19163">
        <ele>5.536</ele>
        <time>2015-09-05T15:34:28Z</time>
      </trkpt>
      <trkpt lat="49.26048" lon="-0.19155">
        <ele>6.043</ele>
        <time>2015-09-05T15:34:38Z</time>
      </trkpt>
      <trkpt lat="49.26042" lon="-0.19146">
        <ele>6.728</ele>
        <time>2015-09-05T15:34:47Z</time>
      </trkpt>
      <trkpt lat="49.26042" lon="-0.19145">
        <ele>6.942</ele>
        <time>2015-09-05T15:34:48Z</time>
      </trkpt>
      <trkpt lat="49.26041" lon="-0.19134">
        <ele>7.12</ele>
        <time>2015-09-05T15:34:55Z</time>
      </trkpt>
      <trkpt lat="49.26048" lon="-0.19113">
        <ele>8.219</ele>
        <time>2015-09-05T15:35:07Z</time>
      </trkpt>
      <trkpt lat="49.26055" lon="-0.19103">
        <ele>7.805</ele>
        <time>2015-09-05T15:35:17Z</time>
      </trkpt>
      <trkpt lat="49.26067" lon="-0.19096">
        <ele>7.46</ele>
        <time>2015-09-05T15:35:27Z</time>
      </trkpt>
      <trkpt lat="49.26078" lon="-0.19091">
        <ele>6.7</ele>
        <time>2015-09-05T15:35:36Z</time>
      </trkpt>
      <trkpt lat="49.26096" lon="-0.19087">
        <ele>5.159</ele>
        <time>2015-09-05T15:35:50Z</time>
      </trkpt>
      <trkpt lat="49.26104" lon="-0.1909">
        <ele>4.251</ele>
        <time>2015-09-05T15:35:57Z</time>
      </trkpt>
      <trkpt lat="49.26115" lon="-0.19095">
        <ele>3.73</ele>
        <time>2015-09-05T15:36:05Z</time>
      </trkpt>
      <trkpt lat="49.26124" lon="-0.19094">
        <ele>3.502</ele>
        <time>2015-09-05T15:36:11Z</time>
      </trkpt>
      <trkpt lat="49.26142" lon="-0.1909">
        <ele>3.596</ele>
        <time>2015-09-05T15:36:23Z</time>
      </trkpt>
      <trkpt lat="49.26159" lon="-0.1909">
        <ele>3.673</ele>
        <time>2015-09-05T15:36:34Z</time>
      </trkpt>
      <trkpt lat="49.26175" lon="-0.19079">
        <ele>4.246</ele>
        <time>2015-09-05T15:36:46Z</time>
      </trkpt>
      <trkpt lat="49.26192" lon="-0.19067">
        <ele>4.167</ele>
        <time>2015-09-05T15:36:59Z</time>
      </trkpt>
      <trkpt lat="49.26204" lon="-0.19056">
        <ele>3.919</ele>
        <time>2015-09-05T15:37:08Z</time>
      </trkpt>
      <trkpt lat="49.26216" lon="-0.19042">
        <ele>3.802</ele>
        <time>2015-09-05T15:37:18Z</time>
      </trkpt>
      <trkpt lat="49.26218" lon="-0.1904">
        <ele>3.707</ele>
        <time>2015-09-05T15:37:20Z</time>
      </trkpt>
      <trkpt lat="49.26226" lon="-0.19031">
        <ele>3.943</ele>
        <time>2015-09-05T15:37:28Z</time>
      </trkpt>
      <trkpt lat="49.2623" lon="-0.19026">
        <ele>4.053</ele>
        <time>2015-09-05T15:37:31Z</time>
      </trkpt>
      <trkpt lat="49.26233" lon="-0.19022">
        <ele>3.241</ele>
        <time>2015-09-05T15:37:33Z</time>
      </trkpt>
      <trkpt lat="49.26246" lon="-0.19007">
        <ele>2.982</ele>
        <time>2015-09-05T15:37:44Z</time>
      </trkpt>
      <trkpt lat="49.26261" lon="-0.18987">
        <ele>2.434</ele>
        <time>2015-09-05T15:37:57Z</time>
      </trkpt>
      <trkpt lat="49.26277" lon="-0.1896">
        <ele>2.088</ele>
        <time>2015-09-05T15:38:12Z</time>
      </trkpt>
      <trkpt lat="49.26289" lon="-0.1894">
        <ele>2</ele>
        <time>2015-09-05T15:38:23Z</time>
      </trkpt>
      <trkpt lat="49.26299" lon="-0.1892">
        <ele>0.914</ele>
        <time>2015-09-05T15:38:34Z</time>
      </trkpt>
      <trkpt lat="49.263" lon="-0.18918">
        <ele>0.91</ele>
        <time>2015-09-05T15:38:35Z</time>
      </trkpt>
      <trkpt lat="49.26313" lon="-0.189">
        <ele>0.528</ele>
        <time>2015-09-05T15:38:46Z</time>
      </trkpt>
      <trkpt lat="49.26317" lon="-0.18891">
        <ele>0.514</ele>
        <time>2015-09-05T15:38:51Z</time>
      </trkpt>
      <trkpt lat="49.26329" lon="-0.18869">
        <ele>0.343</ele>
        <time>2015-09-05T15:39:03Z</time>
      </trkpt>
      <trkpt lat="49.2634" lon="-0.18853">
        <ele>-0.002</ele>
        <time>2015-09-05T15:39:13Z</time>
      </trkpt>
      <trkpt lat="49.2635" lon="-0.18835">
        <ele>0.478</ele>
        <time>2015-09-05T15:39:24Z</time>
      </trkpt>
      <trkpt lat="49.26368" lon="-0.18805">
        <ele>0.54</ele>
        <time>2015-09-05T15:39:41Z</time>
      </trkpt>
      <trkpt lat="49.26385" lon="-0.18782">
        <ele>0.591</ele>
        <time>2015-09-05T15:39:56Z</time>
      </trkpt>
      <trkpt lat="49.26402" lon="-0.18759">
        <ele>0.305</ele>
        <time>2015-09-05T15:40:11Z</time>
      </trkpt>
      <trkpt lat="49.26422" lon="-0.18735">
        <ele>0.449</ele>
        <time>2015-09-05T15:40:27Z</time>
      </trkpt>
      <trkpt lat="49.26424" lon="-0.18712">
        <ele>0.66</ele>
        <time>2015-09-05T15:40:38Z</time>
      </trkpt>
      <trkpt lat="49.26429" lon="-0.18695">
        <ele>0.57</ele>
        <time>2015-09-05T15:40:47Z</time>
      </trkpt>
      <trkpt lat="49.26431" lon="-0.18688">
        <ele>0.127</ele>
        <time>2015-09-05T15:40:54Z</time>
      </trkpt>
      <trkpt lat="49.26433" lon="-0.18676">
        <ele>0.468</ele>
        <time>2015-09-05T15:41:01Z</time>
      </trkpt>
      <trkpt lat="49.26435" lon="-0.18672">
        <ele>0.196</ele>
        <time>2015-09-05T15:41:08Z</time>
      </trkpt>
      <trkpt lat="49.26434" lon="-0.18669">
        <ele>0.152</ele>
        <time>2015-09-05T15:41:14Z</time>
      </trkpt>
      <trkpt lat="49.26435" lon="-0.18669">
        <ele>0.165</ele>
        <time>2015-09-05T15:41:36Z</time>
      </trkpt>
      <trkpt lat="49.26434" lon="-0.18669">
        <ele>-3.02</ele>
        <time>2015-09-05T15:41:57Z</time>
      </trkpt>
      <trkpt lat="49.26434" lon="-0.18669">
        <ele>6.116</ele>
        <time>2015-09-05T15:41:58Z</time>
      </trkpt>
      <trkpt lat="49.26434" lon="-0.18669">
        <ele>2.765</ele>
        <time>2015-09-05T15:41:59Z</time>
      </trkpt>
      <trkpt lat="49.26434" lon="-0.18669">
        <ele>-0.284</ele>
        <time>2015-09-05T15:42:36Z</time>
      </trkpt>
      <trkpt lat="49.26435" lon="-0.18671">
        <ele>0.356</ele>
        <time>2015-09-05T15:43:06Z</time>
      </trkpt>
      <trkpt lat="49.26435" lon="-0.1867">
        <ele>-1.032</ele>
        <time>2015-09-05T15:43:22Z</time>
      </trkpt>
      <trkpt lat="49.26435" lon="-0.18669">
        <ele>0.189</ele>
        <time>2015-09-05T15:43:26Z</time>
      </trkpt>
      <trkpt lat="49.26435" lon="-0.18667">
        <ele>0.435</ele>
        <time>2015-09-05T15:44:02Z</time>
      </trkpt>
      <trkpt lat="49.26435" lon="-0.18664">
        <ele>0.175</ele>
        <time>2015-09-05T15:44:17Z</time>
      </trkpt>
      <trkpt lat="49.26437" lon="-0.18654">
        <ele>0.732</ele>
        <time>2015-09-05T15:44:25Z</time>
      </trkpt>
      <trkpt lat="49.26438" lon="-0.18644">
        <ele>0.405</ele>
        <time>2015-09-05T15:44:33Z</time>
      </trkpt>
      <trkpt lat="49.26441" lon="-0.18628">
        <ele>0.416</ele>
        <time>2015-09-05T15:44:41Z</time>
      </trkpt>
      <trkpt lat="49.26444" lon="-0.18599">
        <ele>0.5</ele>
        <time>2015-09-05T15:44:55Z</time>
      </trkpt>
      <trkpt lat="49.26445" lon="-0.18594">
        <ele>0.266</ele>
        <time>2015-09-05T15:44:59Z</time>
      </trkpt>
      <trkpt lat="49.26452" lon="-0.18562">
        <ele>0.111</ele>
        <time>2015-09-05T15:45:14Z</time>
      </trkpt>
      <trkpt lat="49.2646" lon="-0.18532">
        <ele>0.248</ele>
        <time>2015-09-05T15:45:29Z</time>
      </trkpt>
      <trkpt lat="49.26461" lon="-0.18531">
        <ele>-0.05</ele>
        <time>2015-09-05T15:45:38Z</time>
      </trkpt>
      <trkpt lat="49.26461" lon="-0.18531">
        <ele>0.12</ele>
        <time>2015-09-05T15:45:44Z</time>
      </trkpt>
      <trkpt lat="49.26467" lon="-0.18503">
        <ele>-0.082</ele>
        <time>2015-09-05T15:45:58Z</time>
      </trkpt>
      <trkpt lat="49.26474" lon="-0.18473">
        <ele>-0.067</ele>
        <time>2015-09-05T15:46:14Z</time>
      </trkpt>
      <trkpt lat="49.26478" lon="-0.18439">
        <ele>0.435</ele>
        <time>2015-09-05T15:46:31Z</time>
      </trkpt>
      <trkpt lat="49.26479" lon="-0.18422">
        <ele>0.112</ele>
        <time>2015-09-05T15:46:40Z</time>
      </trkpt>
      <trkpt lat="49.26481" lon="-0.18403">
        <ele>0.121</ele>
        <time>2015-09-05T15:46:50Z</time>
      </trkpt>
      <trkpt lat="49.26482" lon="-0.18385">
        <ele>0.34</ele>
        <time>2015-09-05T15:46:59Z</time>
      </trkpt>
      <trkpt lat="49.26484" lon="-0.18361">
        <ele>0.477</ele>
        <time>2015-09-05T15:47:11Z</time>
      </trkpt>
      <trkpt lat="49.26486" lon="-0.1834">
        <ele>-0.119</ele>
        <time>2015-09-05T15:47:22Z</time>
      </trkpt>
      <trkpt lat="49.26487" lon="-0.18319">
        <ele>-0.151</ele>
        <time>2015-09-05T15:47:33Z</time>
      </trkpt>
      <trkpt lat="49.26493" lon="-0.183">
        <ele>-0.054</ele>
        <time>2015-09-05T15:47:44Z</time>
      </trkpt>
      <trkpt lat="49.26497" lon="-0.18296">
        <ele>-0.048</ele>
        <time>2015-09-05T15:47:52Z</time>
      </trkpt>
      <trkpt lat="49.26496" lon="-0.18297">
        <ele>-0.353</ele>
        <time>2015-09-05T15:48:13Z</time>
      </trkpt>
      <trkpt lat="49.2649" lon="-0.18294">
        <ele>-0.117</ele>
        <time>2015-09-05T15:48:19Z</time>
      </trkpt>
      <trkpt lat="49.2649" lon="-0.1829">
        <ele>-0.338</ele>
        <time>2015-09-05T15:48:21Z</time>
      </trkpt>
      <trkpt lat="49.26492" lon="-0.1826">
        <ele>-0.404</ele>
        <time>2015-09-05T15:48:33Z</time>
      </trkpt>
      <trkpt lat="49.26497" lon="-0.18221">
        <ele>-0.552</ele>
        <time>2015-09-05T15:48:49Z</time>
      </trkpt>
      <trkpt lat="49.26502" lon="-0.18193">
        <ele>-0.37</ele>
        <time>2015-09-05T15:49:02Z</time>
      </trkpt>
      <trkpt lat="49.26508" lon="-0.18174">
        <ele>-0.485</ele>
        <time>2015-09-05T15:49:14Z</time>
      </trkpt>
      <trkpt lat="49.26515" lon="-0.18154">
        <ele>-0.424</ele>
        <time>2015-09-05T15:49:28Z</time>
      </trkpt>
      <trkpt lat="49.26519" lon="-0.18137">
        <ele>-0.352</ele>
        <time>2015-09-05T15:49:39Z</time>
      </trkpt>
      <trkpt lat="49.26521" lon="-0.18132">
        <ele>-0.566</ele>
        <time>2015-09-05T15:49:42Z</time>
      </trkpt>
      <trkpt lat="49.26521" lon="-0.18122">
        <ele>-0.596</ele>
        <time>2015-09-05T15:49:47Z</time>
      </trkpt>
      <trkpt lat="49.26519" lon="-0.18116">
        <ele>-0.671</ele>
        <time>2015-09-05T15:49:55Z</time>
      </trkpt>
      <trkpt lat="49.26513" lon="-0.18099">
        <ele>-0.414</ele>
        <time>2015-09-05T15:50:05Z</time>
      </trkpt>
      <trkpt lat="49.26505" lon="-0.18081">
        <ele>-0.759</ele>
        <time>2015-09-05T15:50:18Z</time>
      </trkpt>
      <trkpt lat="49.26496" lon="-0.18061">
        <ele>-1.028</ele>
        <time>2015-09-05T15:50:31Z</time>
      </trkpt>
      <trkpt lat="49.26487" lon="-0.18049">
        <ele>-0.234</ele>
        <time>2015-09-05T15:50:44Z</time>
      </trkpt>
      <trkpt lat="49.2648" lon="-0.18043">
        <ele>-0.817</ele>
        <time>2015-09-05T15:50:52Z</time>
      </trkpt>
      <trkpt lat="49.26479" lon="-0.18042">
        <ele>-0.758</ele>
        <time>2015-09-05T15:50:53Z</time>
      </trkpt>
      <trkpt lat="49.26472" lon="-0.18033">
        <ele>-0.51</ele>
        <time>2015-09-05T15:51:01Z</time>
      </trkpt>
      <trkpt lat="49.26461" lon="-0.18022">
        <ele>-0.755</ele>
        <time>2015-09-05T15:51:11Z</time>
      </trkpt>
      <trkpt lat="49.26458" lon="-0.18012">
        <ele>-0.955</ele>
        <time>2015-09-05T15:51:20Z</time>
      </trkpt>
      <trkpt lat="49.26454" lon="-0.17989">
        <ele>-0.394</ele>
        <time>2015-09-05T15:51:32Z</time>
      </trkpt>
      <trkpt lat="49.26452" lon="-0.17971">
        <ele>-0.633</ele>
        <time>2015-09-05T15:51:41Z</time>
      </trkpt>
      <trkpt lat="49.26449" lon="-0.17961">
        <ele>-0.889</ele>
        <time>2015-09-05T15:51:47Z</time>
      </trkpt>
      <trkpt lat="49.26436" lon="-0.17946">
        <ele>-0.704</ele>
        <time>2015-09-05T15:52:01Z</time>
      </trkpt>
      <trkpt lat="49.2642" lon="-0.17931">
        <ele>-0.648</ele>
        <time>2015-09-05T15:52:16Z</time>
      </trkpt>
      <trkpt lat="49.26409" lon="-0.17915">
        <ele>-1.158</ele>
        <time>2015-09-05T15:52:28Z</time>
      </trkpt>
      <trkpt lat="49.26394" lon="-0.17888">
        <ele>-0.904</ele>
        <time>2015-09-05T15:52:46Z</time>
      </trkpt>
      <trkpt lat="49.26386" lon="-0.17872">
        <ele>-1.377</ele>
        <time>2015-09-05T15:52:57Z</time>
      </trkpt>
      <trkpt lat="49.26383" lon="-0.17867">
        <ele>-0.695</ele>
        <time>2015-09-05T15:53:00Z</time>
      </trkpt>
      <trkpt lat="49.26378" lon="-0.17855">
        <ele>-1.084</ele>
        <time>2015-09-05T15:53:08Z</time>
      </trkpt>
      <trkpt lat="49.26365" lon="-0.17833">
        <ele>-1.193</ele>
        <time>2015-09-05T15:53:24Z</time>
      </trkpt>
      <trkpt lat="49.26355" lon="-0.17818">
        <ele>-0.93</ele>
        <time>2015-09-05T15:53:35Z</time>
      </trkpt>
      <trkpt lat="49.26346" lon="-0.17808">
        <ele>-0.549</ele>
        <time>2015-09-05T15:53:44Z</time>
      </trkpt>
      <trkpt lat="49.26335" lon="-0.17795">
        <ele>-0.786</ele>
        <time>2015-09-05T15:53:56Z</time>
      </trkpt>
      <trkpt lat="49.26321" lon="-0.17786">
        <ele>-0.063</ele>
        <time>2015-09-05T15:54:10Z</time>
      </trkpt>
      <trkpt lat="49.26306" lon="-0.17778">
        <ele>-0.391</ele>
        <time>2015-09-05T15:54:23Z</time>
      </trkpt>
      <trkpt lat="49.26301" lon="-0.17776">
        <ele>-0.125</ele>
        <time>2015-09-05T15:54:28Z</time>
      </trkpt>
      <trkpt lat="49.26284" lon="-0.17768">
        <ele>-0.134</ele>
        <time>2015-09-05T15:54:42Z</time>
      </trkpt>
      <trkpt lat="49.26274" lon="-0.17762">
        <ele>0.019</ele>
        <time>2015-09-05T15:54:50Z</time>
      </trkpt>
      <trkpt lat="49.26271" lon="-0.17761">
        <ele>0.327</ele>
        <time>2015-09-05T15:54:56Z</time>
      </trkpt>
      <trkpt lat="49.26256" lon="-0.17753">
        <ele>0.097</ele>
        <time>2015-09-05T15:55:10Z</time>
      </trkpt>
      <trkpt lat="49.26244" lon="-0.17748">
        <ele>0.037</ele>
        <time>2015-09-05T15:55:20Z</time>
      </trkpt>
      <trkpt lat="49.26226" lon="-0.1774">
        <ele>-0.089</ele>
        <time>2015-09-05T15:55:34Z</time>
      </trkpt>
      <trkpt lat="49.26224" lon="-0.17736">
        <ele>-0.089</ele>
        <time>2015-09-05T15:55:42Z</time>
      </trkpt>
      <trkpt lat="49.26224" lon="-0.17736">
        <ele>-0.202</ele>
        <time>2015-09-05T15:56:10Z</time>
      </trkpt>
      <trkpt lat="49.26224" lon="-0.17736">
        <ele>-0.161</ele>
        <time>2015-09-05T15:56:27Z</time>
      </trkpt>
      <trkpt lat="49.26223" lon="-0.17736">
        <ele>-0.032</ele>
        <time>2015-09-05T15:56:47Z</time>
      </trkpt>
      <trkpt lat="49.26223" lon="-0.17736">
        <ele>0.331</ele>
        <time>2015-09-05T15:56:53Z</time>
      </trkpt>
      <trkpt lat="49.26224" lon="-0.17735">
        <ele>0.373</ele>
        <time>2015-09-05T15:57:00Z</time>
      </trkpt>
      <trkpt lat="49.26224" lon="-0.17735">
        <ele>0.007</ele>
        <time>2015-09-05T15:57:08Z</time>
      </trkpt>
      <trkpt lat="49.26224" lon="-0.17735">
        <ele>0.043</ele>
        <time>2015-09-05T15:57:33Z</time>
      </trkpt>
      <trkpt lat="49.26224" lon="-0.17735">
        <ele>0.255</ele>
        <time>2015-09-05T15:57:46Z</time>
      </trkpt>
      <trkpt lat="49.26223" lon="-0.17736">
        <ele>-0.161</ele>
        <time>2015-09-05T15:57:54Z</time>
      </trkpt>
      <trkpt lat="49.26224" lon="-0.17734">
        <ele>0.11</ele>
        <time>2015-09-05T15:58:11Z</time>
      </trkpt>
      <trkpt lat="49.26224" lon="-0.17734">
        <ele>0.362</ele>
        <time>2015-09-05T15:58:23Z</time>
      </trkpt>
      <trkpt lat="49.26223" lon="-0.17733">
        <ele>0.072</ele>
        <time>2015-09-05T15:59:01Z</time>
      </trkpt>
      <trkpt lat="49.26221" lon="-0.17732">
        <ele>-0.32</ele>
        <time>2015-09-05T15:59:28Z</time>
      </trkpt>
      <trkpt lat="49.26217" lon="-0.1773">
        <ele>-0.048</ele>
        <time>2015-09-05T15:59:38Z</time>
      </trkpt>
      <trkpt lat="49.26217" lon="-0.17729">
        <ele>-0.075</ele>
        <time>2015-09-05T15:59:51Z</time>
      </trkpt>
      <trkpt lat="49.26217" lon="-0.1773">
        <ele>0.073</ele>
        <time>2015-09-05T16:00:15Z</time>
      </trkpt>
      <trkpt lat="49.26217" lon="-0.17731">
        <ele>0.214</ele>
        <time>2015-09-05T16:00:28Z</time>
      </trkpt>
      <trkpt lat="49.26217" lon="-0.17731">
        <ele>-0.069</ele>
        <time>2015-09-05T16:00:43Z</time>
      </trkpt>
      <trkpt lat="49.26217" lon="-0.17731">
        <ele>0.041</ele>
        <time>2015-09-05T16:00:58Z</time>
      </trkpt>
      <trkpt lat="49.26217" lon="-0.17731">
        <ele>-0.09</ele>
        <time>2015-09-05T16:01:13Z</time>
      </trkpt>
      <trkpt lat="49.26217" lon="-0.17729">
        <ele>0.379</ele>
        <time>2015-09-05T16:01:25Z</time>
      </trkpt>
      <trkpt lat="49.26217" lon="-0.1773">
        <ele>0.338</ele>
        <time>2015-09-05T16:01:44Z</time>
      </trkpt>
      <trkpt lat="49.26216" lon="-0.17728">
        <ele>0.019</ele>
        <time>2015-09-05T16:01:54Z</time>
      </trkpt>
      <trkpt lat="49.26216" lon="-0.17728">
        <ele>0.131</ele>
        <time>2015-09-05T16:02:08Z</time>
      </trkpt>
      <trkpt lat="49.26216" lon="-0.17729">
        <ele>0.153</ele>
        <time>2015-09-05T16:02:26Z</time>
      </trkpt>
      <trkpt lat="49.26214" lon="-0.17729">
        <ele>-0.276</ele>
        <time>2015-09-05T16:02:37Z</time>
      </trkpt>
      <trkpt lat="49.26213" lon="-0.17729">
        <ele>-0.39</ele>
        <time>2015-09-05T16:02:38Z</time>
      </trkpt>
      <trkpt lat="49.26208" lon="-0.17727">
        <ele>-0.321</ele>
        <time>2015-09-05T16:02:47Z</time>
      </trkpt>
      <trkpt lat="49.26203" lon="-0.17727">
        <ele>-0.778</ele>
        <time>2015-09-05T16:02:55Z</time>
      </trkpt>
      <trkpt lat="49.26201" lon="-0.17723">
        <ele>-0.083</ele>
        <time>2015-09-05T16:03:02Z</time>
      </trkpt>
      <trkpt lat="49.26202" lon="-0.17723">
        <ele>-0.7</ele>
        <time>2015-09-05T16:03:03Z</time>
      </trkpt>
      <trkpt lat="49.26204" lon="-0.17727">
        <ele>-0.079</ele>
        <time>2015-09-05T16:03:06Z</time>
      </trkpt>
      <trkpt lat="49.26215" lon="-0.17731">
        <ele>-0.033</ele>
        <time>2015-09-05T16:03:13Z</time>
      </trkpt>
      <trkpt lat="49.26217" lon="-0.17729">
        <ele>-0.017</ele>
        <time>2015-09-05T16:03:20Z</time>
      </trkpt>
      <trkpt lat="49.26217" lon="-0.17729">
        <ele>0.073</ele>
        <time>2015-09-05T16:03:28Z</time>
      </trkpt>
      <trkpt lat="49.26217" lon="-0.1773">
        <ele>-0.177</ele>
        <time>2015-09-05T16:03:36Z</time>
      </trkpt>
      <trkpt lat="49.26214" lon="-0.17732">
        <ele>-0.13</ele>
        <time>2015-09-05T16:03:44Z</time>
      </trkpt>
      <trkpt lat="49.26212" lon="-0.17732">
        <ele>0.499</ele>
        <time>2015-09-05T16:03:46Z</time>
      </trkpt>
      <trkpt lat="49.26205" lon="-0.1773">
        <ele>-0.287</ele>
        <time>2015-09-05T16:03:55Z</time>
      </trkpt>
      <trkpt lat="49.26192" lon="-0.17724">
        <ele>-0.226</ele>
        <time>2015-09-05T16:04:07Z</time>
      </trkpt>
      <trkpt lat="49.26177" lon="-0.17714">
        <ele>0.098</ele>
        <time>2015-09-05T16:04:21Z</time>
      </trkpt>
      <trkpt lat="49.26176" lon="-0.17712">
        <ele>-0.253</ele>
        <time>2015-09-05T16:04:30Z</time>
      </trkpt>
      <trkpt lat="49.26175" lon="-0.17712">
        <ele>-0.206</ele>
        <time>2015-09-05T16:04:48Z</time>
      </trkpt>
      <trkpt lat="49.26174" lon="-0.17711">
        <ele>-0.333</ele>
        <time>2015-09-05T16:05:05Z</time>
      </trkpt>
      <trkpt lat="49.26172" lon="-0.1771">
        <ele>-0.244</ele>
        <time>2015-09-05T16:05:20Z</time>
      </trkpt>
      <trkpt lat="49.26172" lon="-0.1771">
        <ele>-0.562</ele>
        <time>2015-09-05T16:05:30Z</time>
      </trkpt>
      <trkpt lat="49.26168" lon="-0.17707">
        <ele>-0.533</ele>
        <time>2015-09-05T16:05:37Z</time>
      </trkpt>
      <trkpt lat="49.26164" lon="-0.17706">
        <ele>-0.163</ele>
        <time>2015-09-05T16:05:47Z</time>
      </trkpt>
      <trkpt lat="49.26162" lon="-0.17703">
        <ele>-0.135</ele>
        <time>2015-09-05T16:05:55Z</time>
      </trkpt>
      <trkpt lat="49.26162" lon="-0.17703">
        <ele>-0.172</ele>
        <time>2015-09-05T16:06:07Z</time>
      </trkpt>
      <trkpt lat="49.26159" lon="-0.17703">
        <ele>-0.232</ele>
        <time>2015-09-05T16:06:15Z</time>
      </trkpt>
      <trkpt lat="49.26158" lon="-0.17703">
        <ele>-0.057</ele>
        <time>2015-09-05T16:06:23Z</time>
      </trkpt>
      <trkpt lat="49.26151" lon="-0.177">
        <ele>-0.478</ele>
        <time>2015-09-05T16:06:30Z</time>
      </trkpt>
      <trkpt lat="49.26151" lon="-0.17697">
        <ele>-0.196</ele>
        <time>2015-09-05T16:06:38Z</time>
      </trkpt>
      <trkpt lat="49.26151" lon="-0.17695">
        <ele>-0.194</ele>
        <time>2015-09-05T16:06:51Z</time>
      </trkpt>
      <trkpt lat="49.2615" lon="-0.17695">
        <ele>-0.219</ele>
        <time>2015-09-05T16:07:52Z</time>
      </trkpt>
      <trkpt lat="49.2615" lon="-0.17695">
        <ele>-0.263</ele>
        <time>2015-09-05T16:08:12Z</time>
      </trkpt>
      <trkpt lat="49.2615" lon="-0.17695">
        <ele>0.056</ele>
        <time>2015-09-05T16:08:26Z</time>
      </trkpt>
      <trkpt lat="49.26149" lon="-0.17695">
        <ele>-0.269</ele>
        <time>2015-09-05T16:08:43Z</time>
      </trkpt>
      <trkpt lat="49.26143" lon="-0.17694">
        <ele>-0.472</ele>
        <time>2015-09-05T16:08:50Z</time>
      </trkpt>
      <trkpt lat="49.26128" lon="-0.17683">
        <ele>-0.166</ele>
        <time>2015-09-05T16:09:01Z</time>
      </trkpt>
      <trkpt lat="49.26117" lon="-0.17673">
        <ele>0.276</ele>
        <time>2015-09-05T16:09:12Z</time>
      </trkpt>
      <trkpt lat="49.26116" lon="-0.17673">
        <ele>0.231</ele>
        <time>2015-09-05T16:09:13Z</time>
      </trkpt>
      <trkpt lat="49.26109" lon="-0.17668">
        <ele>0.26</ele>
        <time>2015-09-05T16:09:19Z</time>
      </trkpt>
      <trkpt lat="49.26089" lon="-0.17645">
        <ele>-0.411</ele>
        <time>2015-09-05T16:09:35Z</time>
      </trkpt>
      <trkpt lat="49.26072" lon="-0.17622">
        <ele>-0.425</ele>
        <time>2015-09-05T16:09:49Z</time>
      </trkpt>
      <trkpt lat="49.26066" lon="-0.17613">
        <ele>-0.73</ele>
        <time>2015-09-05T16:09:59Z</time>
      </trkpt>
      <trkpt lat="49.2607" lon="-0.17617">
        <ele>-0.223</ele>
        <time>2015-09-05T16:10:08Z</time>
      </trkpt>
      <trkpt lat="49.2607" lon="-0.17616">
        <ele>-0.401</ele>
        <time>2015-09-05T16:10:42Z</time>
      </trkpt>
      <trkpt lat="49.26069" lon="-0.17616">
        <ele>0.152</ele>
        <time>2015-09-05T16:10:58Z</time>
      </trkpt>
      <trkpt lat="49.2607" lon="-0.17616">
        <ele>-0.217</ele>
        <time>2015-09-05T16:11:12Z</time>
      </trkpt>
      <trkpt lat="49.26068" lon="-0.17616">
        <ele>-0.54</ele>
        <time>2015-09-05T16:11:21Z</time>
      </trkpt>
      <trkpt lat="49.26067" lon="-0.17612">
        <ele>-0.187</ele>
        <time>2015-09-05T16:11:30Z</time>
      </trkpt>
      <trkpt lat="49.26062" lon="-0.17604">
        <ele>-0.761</ele>
        <time>2015-09-05T16:11:46Z</time>
      </trkpt>
      <trkpt lat="49.26051" lon="-0.17588">
        <ele>-0.4</ele>
        <time>2015-09-05T16:11:56Z</time>
      </trkpt>
      <trkpt lat="49.26039" lon="-0.17562">
        <ele>-0.132</ele>
        <time>2015-09-05T16:12:09Z</time>
      </trkpt>
      <trkpt lat="49.26032" lon="-0.17552">
        <ele>-0.414</ele>
        <time>2015-09-05T16:12:19Z</time>
      </trkpt>
      <trkpt lat="49.26031" lon="-0.17549">
        <ele>-0.339</ele>
        <time>2015-09-05T16:12:46Z</time>
      </trkpt>
      <trkpt lat="49.26022" lon="-0.17533">
        <ele>-0.777</ele>
        <time>2015-09-05T16:12:56Z</time>
      </trkpt>
      <trkpt lat="49.26009" lon="-0.17513">
        <ele>-0.459</ele>
        <time>2015-09-05T16:13:07Z</time>
      </trkpt>
      <trkpt lat="49.26001" lon="-0.17498">
        <ele>-0.211</ele>
        <time>2015-09-05T16:13:15Z</time>
      </trkpt>
      <trkpt lat="49.25989" lon="-0.17479">
        <ele>-0.169</ele>
        <time>2015-09-05T16:13:26Z</time>
      </trkpt>
      <trkpt lat="49.25979" lon="-0.17463">
        <ele>0.06</ele>
        <time>2015-09-05T16:13:35Z</time>
      </trkpt>
      <trkpt lat="49.25977" lon="-0.17459">
        <ele>-0.203</ele>
        <time>2015-09-05T16:13:37Z</time>
      </trkpt>
      <trkpt lat="49.25962" lon="-0.17436">
        <ele>-0.201</ele>
        <time>2015-09-05T16:13:50Z</time>
      </trkpt>
      <trkpt lat="49.25958" lon="-0.17419">
        <ele>0.183</ele>
        <time>2015-09-05T16:13:58Z</time>
      </trkpt>
      <trkpt lat="49.25955" lon="-0.17406">
        <ele>0.182</ele>
        <time>2015-09-05T16:14:05Z</time>
      </trkpt>
      <trkpt lat="49.25951" lon="-0.17398">
        <ele>-0.139</ele>
        <time>2015-09-05T16:14:09Z</time>
      </trkpt>
      <trkpt lat="49.25947" lon="-0.17378">
        <ele>-0.116</ele>
        <time>2015-09-05T16:14:18Z</time>
      </trkpt>
      <trkpt lat="49.25942" lon="-0.17366">
        <ele>-0.393</ele>
        <time>2015-09-05T16:14:25Z</time>
      </trkpt>
      <trkpt lat="49.25938" lon="-0.17357">
        <ele>-0.404</ele>
        <time>2015-09-05T16:14:31Z</time>
      </trkpt>
      <trkpt lat="49.25932" lon="-0.17338">
        <ele>-0.381</ele>
        <time>2015-09-05T16:14:40Z</time>
      </trkpt>
      <trkpt lat="49.25923" lon="-0.17319">
        <ele>-0.341</ele>
        <time>2015-09-05T16:14:48Z</time>
      </trkpt>
      <trkpt lat="49.25916" lon="-0.17305">
        <ele>-0.637</ele>
        <time>2015-09-05T16:14:54Z</time>
      </trkpt>
      <trkpt lat="49.25907" lon="-0.17286">
        <ele>-0.523</ele>
        <time>2015-09-05T16:15:03Z</time>
      </trkpt>
      <trkpt lat="49.25901" lon="-0.17268">
        <ele>-0.08</ele>
        <time>2015-09-05T16:15:12Z</time>
      </trkpt>
      <trkpt lat="49.25896" lon="-0.17259">
        <ele>-0.403</ele>
        <time>2015-09-05T16:15:18Z</time>
      </trkpt>
      <trkpt lat="49.25891" lon="-0.17241">
        <ele>-0.259</ele>
        <time>2015-09-05T16:15:26Z</time>
      </trkpt>
      <trkpt lat="49.25888" lon="-0.17233">
        <ele>0.166</ele>
        <time>2015-09-05T16:15:30Z</time>
      </trkpt>
      <trkpt lat="49.25883" lon="-0.17217">
        <ele>0.311</ele>
        <time>2015-09-05T16:15:40Z</time>
      </trkpt>
      <trkpt lat="49.25881" lon="-0.17207">
        <ele>-0.22</ele>
        <time>2015-09-05T16:15:45Z</time>
      </trkpt>
      <trkpt lat="49.25874" lon="-0.17184">
        <ele>-0.337</ele>
        <time>2015-09-05T16:15:53Z</time>
      </trkpt>
      <trkpt lat="49.25866" lon="-0.1716">
        <ele>-0.314</ele>
        <time>2015-09-05T16:16:03Z</time>
      </trkpt>
      <trkpt lat="49.2586" lon="-0.17146">
        <ele>0.01</ele>
        <time>2015-09-05T16:16:10Z</time>
      </trkpt>
      <trkpt lat="49.25855" lon="-0.1713">
        <ele>-0.253</ele>
        <time>2015-09-05T16:16:18Z</time>
      </trkpt>
      <trkpt lat="49.25852" lon="-0.1712">
        <ele>0.367</ele>
        <time>2015-09-05T16:16:23Z</time>
      </trkpt>
      <trkpt lat="49.25845" lon="-0.17101">
        <ele>0.439</ele>
        <time>2015-09-05T16:16:32Z</time>
      </trkpt>
      <trkpt lat="49.25837" lon="-0.17081">
        <ele>0.111</ele>
        <time>2015-09-05T16:16:41Z</time>
      </trkpt>
      <trkpt lat="49.25829" lon="-0.1706">
        <ele>-0.044</ele>
        <time>2015-09-05T16:16:51Z</time>
      </trkpt>
      <trkpt lat="49.25819" lon="-0.17043">
        <ele>0.083</ele>
        <time>2015-09-05T16:17:00Z</time>
      </trkpt>
      <trkpt lat="49.25803" lon="-0.17015">
        <ele>0.096</ele>
        <time>2015-09-05T16:17:15Z</time>
      </trkpt>
      <trkpt lat="49.25793" lon="-0.16991">
        <ele>0.072</ele>
        <time>2015-09-05T16:17:26Z</time>
      </trkpt>
      <trkpt lat="49.25785" lon="-0.1697">
        <ele>0.115</ele>
        <time>2015-09-05T16:17:36Z</time>
      </trkpt>
      <trkpt lat="49.25782" lon="-0.16962">
        <ele>0.229</ele>
        <time>2015-09-05T16:17:40Z</time>
      </trkpt>
      <trkpt lat="49.25775" lon="-0.16939">
        <ele>0.139</ele>
        <time>2015-09-05T16:17:50Z</time>
      </trkpt>
      <trkpt lat="49.25768" lon="-0.16916">
        <ele>0.255</ele>
        <time>2015-09-05T16:18:01Z</time>
      </trkpt>
      <trkpt lat="49.25753" lon="-0.16891">
        <ele>0.176</ele>
        <time>2015-09-05T16:18:15Z</time>
      </trkpt>
      <trkpt lat="49.2574" lon="-0.16882">
        <ele>0.297</ele>
        <time>2015-09-05T16:18:24Z</time>
      </trkpt>
      <trkpt lat="49.25723" lon="-0.16875">
        <ele>0.43</ele>
        <time>2015-09-05T16:18:35Z</time>
      </trkpt>
      <trkpt lat="49.25706" lon="-0.16862">
        <ele>0.043</ele>
        <time>2015-09-05T16:18:47Z</time>
      </trkpt>
      <trkpt lat="49.25695" lon="-0.16845">
        <ele>0.533</ele>
        <time>2015-09-05T16:18:57Z</time>
      </trkpt>
      <trkpt lat="49.25692" lon="-0.16835">
        <ele>0.333</ele>
        <time>2015-09-05T16:19:02Z</time>
      </trkpt>
      <trkpt lat="49.25682" lon="-0.16813">
        <ele>0.627</ele>
        <time>2015-09-05T16:19:14Z</time>
      </trkpt>
      <trkpt lat="49.25669" lon="-0.16786">
        <ele>0.759</ele>
        <time>2015-09-05T16:19:28Z</time>
      </trkpt>
      <trkpt lat="49.25659" lon="-0.16765">
        <ele>0.524</ele>
        <time>2015-09-05T16:19:39Z</time>
      </trkpt>
      <trkpt lat="49.25651" lon="-0.16749">
        <ele>0.729</ele>
        <time>2015-09-05T16:19:47Z</time>
      </trkpt>
      <trkpt lat="49.25643" lon="-0.16735">
        <ele>0.296</ele>
        <time>2015-09-05T16:19:55Z</time>
      </trkpt>
      <trkpt lat="49.25636" lon="-0.16722">
        <ele>0.688</ele>
        <time>2015-09-05T16:20:02Z</time>
      </trkpt>
      <trkpt lat="49.25628" lon="-0.16706">
        <ele>0.498</ele>
        <time>2015-09-05T16:20:11Z</time>
      </trkpt>
      <trkpt lat="49.25615" lon="-0.16687">
        <ele>0.423</ele>
        <time>2015-09-05T16:20:22Z</time>
      </trkpt>
      <trkpt lat="49.25599" lon="-0.16667">
        <ele>0.725</ele>
        <time>2015-09-05T16:20:36Z</time>
      </trkpt>
      <trkpt lat="49.2559" lon="-0.16658">
        <ele>0.489</ele>
        <time>2015-09-05T16:20:47Z</time>
      </trkpt>
      <trkpt lat="49.25577" lon="-0.16649">
        <ele>0.486</ele>
        <time>2015-09-05T16:20:58Z</time>
      </trkpt>
      <trkpt lat="49.25575" lon="-0.16647">
        <ele>0.617</ele>
        <time>2015-09-05T16:21:04Z</time>
      </trkpt>
      <trkpt lat="49.25575" lon="-0.16647">
        <ele>0.551</ele>
        <time>2015-09-05T16:21:18Z</time>
      </trkpt>
      <trkpt lat="49.25568" lon="-0.16635">
        <ele>0.181</ele>
        <time>2015-09-05T16:21:25Z</time>
      </trkpt>
      <trkpt lat="49.25562" lon="-0.16612">
        <ele>0.432</ele>
        <time>2015-09-05T16:21:36Z</time>
      </trkpt>
      <trkpt lat="49.25554" lon="-0.16581">
        <ele>0.221</ele>
        <time>2015-09-05T16:21:50Z</time>
      </trkpt>
      <trkpt lat="49.2555" lon="-0.16562">
        <ele>0.542</ele>
        <time>2015-09-05T16:22:00Z</time>
      </trkpt>
      <trkpt lat="49.25546" lon="-0.16536">
        <ele>0.375</ele>
        <time>2015-09-05T16:22:12Z</time>
      </trkpt>
      <trkpt lat="49.25545" lon="-0.16523">
        <ele>0.526</ele>
        <time>2015-09-05T16:22:18Z</time>
      </trkpt>
      <trkpt lat="49.25532" lon="-0.16505">
        <ele>0.629</ele>
        <time>2015-09-05T16:22:31Z</time>
      </trkpt>
      <trkpt lat="49.25524" lon="-0.16498">
        <ele>0.142</ele>
        <time>2015-09-05T16:22:38Z</time>
      </trkpt>
      <trkpt lat="49.25508" lon="-0.16482">
        <ele>0.131</ele>
        <time>2015-09-05T16:22:51Z</time>
      </trkpt>
      <trkpt lat="49.25496" lon="-0.1647">
        <ele>0.432</ele>
        <time>2015-09-05T16:22:59Z</time>
      </trkpt>
      <trkpt lat="49.25481" lon="-0.16455">
        <ele>0.336</ele>
        <time>2015-09-05T16:23:11Z</time>
      </trkpt>
      <trkpt lat="49.25467" lon="-0.1645">
        <ele>0.521</ele>
        <time>2015-09-05T16:23:21Z</time>
      </trkpt>
      <trkpt lat="49.25466" lon="-0.16448">
        <ele>0.526</ele>
        <time>2015-09-05T16:23:23Z</time>
      </trkpt>
      <trkpt lat="49.2546" lon="-0.16436">
        <ele>0.246</ele>
        <time>2015-09-05T16:23:31Z</time>
      </trkpt>
      <trkpt lat="49.25458" lon="-0.1642">
        <ele>0.479</ele>
        <time>2015-09-05T16:23:38Z</time>
      </trkpt>
      <trkpt lat="49.25456" lon="-0.16404">
        <ele>0.398</ele>
        <time>2015-09-05T16:23:46Z</time>
      </trkpt>
      <trkpt lat="49.25457" lon="-0.16404">
        <ele>0.453</ele>
        <time>2015-09-05T16:23:48Z</time>
      </trkpt>
      <trkpt lat="49.25451" lon="-0.16381">
        <ele>0.469</ele>
        <time>2015-09-05T16:23:57Z</time>
      </trkpt>
      <trkpt lat="49.25446" lon="-0.16348">
        <ele>0.499</ele>
        <time>2015-09-05T16:24:09Z</time>
      </trkpt>
      <trkpt lat="49.25446" lon="-0.16333">
        <ele>0.465</ele>
        <time>2015-09-05T16:24:16Z</time>
      </trkpt>
      <trkpt lat="49.25446" lon="-0.16302">
        <ele>0.516</ele>
        <time>2015-09-05T16:24:29Z</time>
      </trkpt>
      <trkpt lat="49.25448" lon="-0.16295">
        <ele>0.272</ele>
        <time>2015-09-05T16:24:33Z</time>
      </trkpt>
      <trkpt lat="49.2545" lon="-0.16269">
        <ele>0.175</ele>
        <time>2015-09-05T16:24:44Z</time>
      </trkpt>
      <trkpt lat="49.25449" lon="-0.16248">
        <ele>0.593</ele>
        <time>2015-09-05T16:24:54Z</time>
      </trkpt>
      <trkpt lat="49.25449" lon="-0.16226">
        <ele>0.722</ele>
        <time>2015-09-05T16:25:03Z</time>
      </trkpt>
      <trkpt lat="49.25449" lon="-0.16199">
        <ele>0.428</ele>
        <time>2015-09-05T16:25:16Z</time>
      </trkpt>
      <trkpt lat="49.25448" lon="-0.1618">
        <ele>0.42</ele>
        <time>2015-09-05T16:25:26Z</time>
      </trkpt>
      <trkpt lat="49.25445" lon="-0.16162">
        <ele>0.678</ele>
        <time>2015-09-05T16:25:36Z</time>
      </trkpt>
      <trkpt lat="49.25438" lon="-0.16144">
        <ele>0.56</ele>
        <time>2015-09-05T16:25:46Z</time>
      </trkpt>
      <trkpt lat="49.25432" lon="-0.16134">
        <ele>0.64</ele>
        <time>2015-09-05T16:25:53Z</time>
      </trkpt>
      <trkpt lat="49.25422" lon="-0.16113">
        <ele>0.601</ele>
        <time>2015-09-05T16:26:04Z</time>
      </trkpt>
      <trkpt lat="49.2542" lon="-0.16103">
        <ele>1.088</ele>
        <time>2015-09-05T16:26:11Z</time>
      </trkpt>
      <trkpt lat="49.25418" lon="-0.16098">
        <ele>1.442</ele>
        <time>2015-09-05T16:26:17Z</time>
      </trkpt>
      <trkpt lat="49.25409" lon="-0.16082">
        <ele>2.16</ele>
        <time>2015-09-05T16:26:25Z</time>
      </trkpt>
      <trkpt lat="49.25407" lon="-0.1608">
        <ele>1.937</ele>
        <time>2015-09-05T16:26:31Z</time>
      </trkpt>
      <trkpt lat="49.25402" lon="-0.16075">
        <ele>2.276</ele>
        <time>2015-09-05T16:26:38Z</time>
      </trkpt>
      <trkpt lat="49.2539" lon="-0.1606">
        <ele>2.091</ele>
        <time>2015-09-05T16:26:49Z</time>
      </trkpt>
      <trkpt lat="49.25377" lon="-0.16069">
        <ele>3.006</ele>
        <time>2015-09-05T16:27:01Z</time>
      </trkpt>
      <trkpt lat="49.25377" lon="-0.16071">
        <ele>3.124</ele>
        <time>2015-09-05T16:27:14Z</time>
      </trkpt>
      <trkpt lat="49.25378" lon="-0.16072">
        <ele>3.104</ele>
        <time>2015-09-05T16:27:24Z</time>
      </trkpt>
      <trkpt lat="49.25377" lon="-0.16072">
        <ele>3.158</ele>
        <time>2015-09-05T16:27:44Z</time>
      </trkpt>
      <trkpt lat="49.25374" lon="-0.16072">
        <ele>3.02</ele>
        <time>2015-09-05T16:27:47Z</time>
      </trkpt>
      <trkpt lat="49.2536" lon="-0.16073">
        <ele>3.774</ele>
        <time>2015-09-05T16:27:58Z</time>
      </trkpt>
      <trkpt lat="49.25354" lon="-0.16072">
        <ele>3.668</ele>
        <time>2015-09-05T16:28:03Z</time>
      </trkpt>
      <trkpt lat="49.25349" lon="-0.16066">
        <ele>4.113</ele>
        <time>2015-09-05T16:28:11Z</time>
      </trkpt>
      <trkpt lat="49.25348" lon="-0.16066">
        <ele>4.044</ele>
        <time>2015-09-05T16:28:21Z</time>
      </trkpt>
      <trkpt lat="49.25343" lon="-0.16071">
        <ele>3.803</ele>
        <time>2015-09-05T16:28:28Z</time>
      </trkpt>
      <trkpt lat="49.25342" lon="-0.16067">
        <ele>3.752</ele>
        <time>2015-09-05T16:28:30Z</time>
      </trkpt>
      <trkpt lat="49.25345" lon="-0.16043">
        <ele>3.919</ele>
        <time>2015-09-05T16:28:41Z</time>
      </trkpt>
      <trkpt lat="49.2535" lon="-0.16027">
        <ele>3.915</ele>
        <time>2015-09-05T16:28:50Z</time>
      </trkpt>
      <trkpt lat="49.25355" lon="-0.16014">
        <ele>3.893</ele>
        <time>2015-09-05T16:28:58Z</time>
      </trkpt>
      <trkpt lat="49.25362" lon="-0.15985">
        <ele>3.452</ele>
        <time>2015-09-05T16:29:12Z</time>
      </trkpt>
      <trkpt lat="49.25364" lon="-0.15981">
        <ele>3.09</ele>
        <time>2015-09-05T16:29:15Z</time>
      </trkpt>
      <trkpt lat="49.25367" lon="-0.15963">
        <ele>3.069</ele>
        <time>2015-09-05T16:29:23Z</time>
      </trkpt>
      <trkpt lat="49.2537" lon="-0.15927">
        <ele>2.637</ele>
        <time>2015-09-05T16:29:38Z</time>
      </trkpt>
      <trkpt lat="49.25373" lon="-0.15906">
        <ele>2.725</ele>
        <time>2015-09-05T16:29:48Z</time>
      </trkpt>
      <trkpt lat="49.25375" lon="-0.1588">
        <ele>2.376</ele>
        <time>2015-09-05T16:29:59Z</time>
      </trkpt>
      <trkpt lat="49.25379" lon="-0.15852">
        <ele>2.167</ele>
        <time>2015-09-05T16:30:12Z</time>
      </trkpt>
      <trkpt lat="49.25381" lon="-0.15827">
        <ele>2.291</ele>
        <time>2015-09-05T16:30:23Z</time>
      </trkpt>
      <trkpt lat="49.25387" lon="-0.15794">
        <ele>1.668</ele>
        <time>2015-09-05T16:30:38Z</time>
      </trkpt>
      <trkpt lat="49.25391" lon="-0.15763">
        <ele>1.726</ele>
        <time>2015-09-05T16:30:52Z</time>
      </trkpt>
      <trkpt lat="49.25392" lon="-0.15746">
        <ele>1.608</ele>
        <time>2015-09-05T16:31:02Z</time>
      </trkpt>
      <trkpt lat="49.2539" lon="-0.15755">
        <ele>2.05</ele>
        <time>2015-09-05T16:31:08Z</time>
      </trkpt>
      <trkpt lat="49.25389" lon="-0.15756">
        <ele>1.818</ele>
        <time>2015-09-05T16:31:23Z</time>
      </trkpt>
      <trkpt lat="49.2539" lon="-0.15756">
        <ele>1.737</ele>
        <time>2015-09-05T16:31:52Z</time>
      </trkpt>
      <trkpt lat="49.25391" lon="-0.15751">
        <ele>1.773</ele>
        <time>2015-09-05T16:31:59Z</time>
      </trkpt>
      <trkpt lat="49.25391" lon="-0.15751">
        <ele>1.845</ele>
        <time>2015-09-05T16:32:14Z</time>
      </trkpt>
      <trkpt lat="49.25391" lon="-0.15751">
        <ele>1.814</ele>
        <time>2015-09-05T16:32:36Z</time>
      </trkpt>
      <trkpt lat="49.25391" lon="-0.15747">
        <ele>1.597</ele>
        <time>2015-09-05T16:32:38Z</time>
      </trkpt>
      <trkpt lat="49.25395" lon="-0.15735">
        <ele>1.44</ele>
        <time>2015-09-05T16:32:47Z</time>
      </trkpt>
      <trkpt lat="49.25395" lon="-0.15732">
        <ele>1.574</ele>
        <time>2015-09-05T16:32:54Z</time>
      </trkpt>
      <trkpt lat="49.25398" lon="-0.15724">
        <ele>1.347</ele>
        <time>2015-09-05T16:33:00Z</time>
      </trkpt>
      <trkpt lat="49.25397" lon="-0.15724">
        <ele>1.408</ele>
        <time>2015-09-05T16:33:03Z</time>
      </trkpt>
      <trkpt lat="49.25395" lon="-0.1573">
        <ele>1.03</ele>
        <time>2015-09-05T16:33:07Z</time>
      </trkpt>
      <trkpt lat="49.25391" lon="-0.15748">
        <ele>1.657</ele>
        <time>2015-09-05T16:33:18Z</time>
      </trkpt>
      <trkpt lat="49.25392" lon="-0.15755">
        <ele>1.855</ele>
        <time>2015-09-05T16:33:27Z</time>
      </trkpt>
      <trkpt lat="49.25392" lon="-0.15755">
        <ele>1.759</ele>
        <time>2015-09-05T16:33:40Z</time>
      </trkpt>
      <trkpt lat="49.25392" lon="-0.15754">
        <ele>1.752</ele>
        <time>2015-09-05T16:33:48Z</time>
      </trkpt>
      <trkpt lat="49.25394" lon="-0.15731">
        <ele>1.131</ele>
        <time>2015-09-05T16:34:00Z</time>
      </trkpt>
      <trkpt lat="49.25396" lon="-0.15707">
        <ele>1.383</ele>
        <time>2015-09-05T16:34:11Z</time>
      </trkpt>
      <trkpt lat="49.25398" lon="-0.15682">
        <ele>1.481</ele>
        <time>2015-09-05T16:34:22Z</time>
      </trkpt>
      <trkpt lat="49.25399" lon="-0.15647">
        <ele>1.07</ele>
        <time>2015-09-05T16:34:37Z</time>
      </trkpt>
      <trkpt lat="49.254" lon="-0.15625">
        <ele>0.46</ele>
        <time>2015-09-05T16:34:47Z</time>
      </trkpt>
      <trkpt lat="49.25403" lon="-0.1559">
        <ele>0.502</ele>
        <time>2015-09-05T16:35:02Z</time>
      </trkpt>
      <trkpt lat="49.25405" lon="-0.15585">
        <ele>0.319</ele>
        <time>2015-09-05T16:35:07Z</time>
      </trkpt>
      <trkpt lat="49.25406" lon="-0.15562">
        <ele>0.362</ele>
        <time>2015-09-05T16:35:17Z</time>
      </trkpt>
      <trkpt lat="49.25409" lon="-0.1553">
        <ele>0.001</ele>
        <time>2015-09-05T16:35:31Z</time>
      </trkpt>
      <trkpt lat="49.25412" lon="-0.15506">
        <ele>0.383</ele>
        <time>2015-09-05T16:35:42Z</time>
      </trkpt>
      <trkpt lat="49.25416" lon="-0.15488">
        <ele>0.437</ele>
        <time>2015-09-05T16:35:51Z</time>
      </trkpt>
      <trkpt lat="49.25418" lon="-0.15481">
        <ele>0.141</ele>
        <time>2015-09-05T16:35:55Z</time>
      </trkpt>
      <trkpt lat="49.25421" lon="-0.15455">
        <ele>0.012</ele>
        <time>2015-09-05T16:36:08Z</time>
      </trkpt>
      <trkpt lat="49.25423" lon="-0.15436">
        <ele>-0.318</ele>
        <time>2015-09-05T16:36:17Z</time>
      </trkpt>
      <trkpt lat="49.25429" lon="-0.15429">
        <ele>0.22</ele>
        <time>2015-09-05T16:36:23Z</time>
      </trkpt>
      <trkpt lat="49.25434" lon="-0.15413">
        <ele>-0.169</ele>
        <time>2015-09-05T16:36:31Z</time>
      </trkpt>
      <trkpt lat="49.25437" lon="-0.15389">
        <ele>0.233</ele>
        <time>2015-09-05T16:36:42Z</time>
      </trkpt>
      <trkpt lat="49.25438" lon="-0.15379">
        <ele>-0.4</ele>
        <time>2015-09-05T16:36:48Z</time>
      </trkpt>
      <trkpt lat="49.25442" lon="-0.15347">
        <ele>-0.408</ele>
        <time>2015-09-05T16:37:02Z</time>
      </trkpt>
      <trkpt lat="49.25445" lon="-0.15324">
        <ele>-0.441</ele>
        <time>2015-09-05T16:37:12Z</time>
      </trkpt>
      <trkpt lat="49.25449" lon="-0.15288">
        <ele>-0.18</ele>
        <time>2015-09-05T16:37:28Z</time>
      </trkpt>
      <trkpt lat="49.25451" lon="-0.15282">
        <ele>-0.131</ele>
        <time>2015-09-05T16:37:33Z</time>
      </trkpt>
      <trkpt lat="49.25455" lon="-0.15255">
        <ele>-0.246</ele>
        <time>2015-09-05T16:37:45Z</time>
      </trkpt>
      <trkpt lat="49.2546" lon="-0.15221">
        <ele>-0.555</ele>
        <time>2015-09-05T16:38:00Z</time>
      </trkpt>
      <trkpt lat="49.25465" lon="-0.15183">
        <ele>-0.593</ele>
        <time>2015-09-05T16:38:17Z</time>
      </trkpt>
      <trkpt lat="49.25472" lon="-0.15146">
        <ele>-0.296</ele>
        <time>2015-09-05T16:38:35Z</time>
      </trkpt>
      <trkpt lat="49.25478" lon="-0.15124">
        <ele>-0.775</ele>
        <time>2015-09-05T16:38:47Z</time>
      </trkpt>
      <trkpt lat="49.25479" lon="-0.15123">
        <ele>-0.636</ele>
        <time>2015-09-05T16:38:49Z</time>
      </trkpt>
      <trkpt lat="49.25478" lon="-0.15115">
        <ele>-0.84</ele>
        <time>2015-09-05T16:38:56Z</time>
      </trkpt>
      <trkpt lat="49.25478" lon="-0.15115">
        <ele>-0.935</ele>
        <time>2015-09-05T16:39:01Z</time>
      </trkpt>
      <trkpt lat="49.25492" lon="-0.15118">
        <ele>-1.381</ele>
        <time>2015-09-05T16:39:11Z</time>
      </trkpt>
      <trkpt lat="49.25503" lon="-0.1512">
        <ele>-1.985</ele>
        <time>2015-09-05T16:39:19Z</time>
      </trkpt>
      <trkpt lat="49.25514" lon="-0.15122">
        <ele>-1.531</ele>
        <time>2015-09-05T16:39:27Z</time>
      </trkpt>
      <trkpt lat="49.25527" lon="-0.15126">
        <ele>-1.418</ele>
        <time>2015-09-05T16:39:35Z</time>
      </trkpt>
      <trkpt lat="49.25546" lon="-0.15134">
        <ele>-1.555</ele>
        <time>2015-09-05T16:39:47Z</time>
      </trkpt>
      <trkpt lat="49.25562" lon="-0.15149">
        <ele>-1.354</ele>
        <time>2015-09-05T16:39:59Z</time>
      </trkpt>
      <trkpt lat="49.25577" lon="-0.1517">
        <ele>-1.275</ele>
        <time>2015-09-05T16:40:12Z</time>
      </trkpt>
      <trkpt lat="49.25587" lon="-0.1519">
        <ele>-1.299</ele>
        <time>2015-09-05T16:40:23Z</time>
      </trkpt>
      <trkpt lat="49.25591" lon="-0.15202">
        <ele>-1.283</ele>
        <time>2015-09-05T16:40:32Z</time>
      </trkpt>
      <trkpt lat="49.25592" lon="-0.15206">
        <ele>-1.676</ele>
        <time>2015-09-05T16:40:36Z</time>
      </trkpt>
      <trkpt lat="49.25604" lon="-0.1522">
        <ele>-1.144</ele>
        <time>2015-09-05T16:40:45Z</time>
      </trkpt>
      <trkpt lat="49.2561" lon="-0.15226">
        <ele>-1.362</ele>
        <time>2015-09-05T16:40:50Z</time>
      </trkpt>
      <trkpt lat="49.25613" lon="-0.15229">
        <ele>-5.003</ele>
        <time>2015-09-05T16:40:53Z</time>
      </trkpt>
      <trkpt lat="49.25614" lon="-0.1523">
        <ele>0.089</ele>
        <time>2015-09-05T16:40:54Z</time>
      </trkpt>
      <trkpt lat="49.25621" lon="-0.15233">
        <ele>-2.957</ele>
        <time>2015-09-05T16:40:59Z</time>
      </trkpt>
      <trkpt lat="49.25624" lon="-0.15237">
        <ele>-1.514</ele>
        <time>2015-09-05T16:41:01Z</time>
      </trkpt>
      <trkpt lat="49.25627" lon="-0.15239">
        <ele>-1.523</ele>
        <time>2015-09-05T16:41:04Z</time>
      </trkpt>
      <trkpt lat="49.25635" lon="-0.15242">
        <ele>-1.16</ele>
        <time>2015-09-05T16:41:10Z</time>
      </trkpt>
      <trkpt lat="49.25646" lon="-0.15247">
        <ele>-1.496</ele>
        <time>2015-09-05T16:41:18Z</time>
      </trkpt>
      <trkpt lat="49.25663" lon="-0.15247">
        <ele>-1.512</ele>
        <time>2015-09-05T16:41:28Z</time>
      </trkpt>
      <trkpt lat="49.25679" lon="-0.15235">
        <ele>-1.769</ele>
        <time>2015-09-05T16:41:37Z</time>
      </trkpt>
      <trkpt lat="49.25688" lon="-0.15201">
        <ele>-2.013</ele>
        <time>2015-09-05T16:41:53Z</time>
      </trkpt>
      <trkpt lat="49.25693" lon="-0.15174">
        <ele>-1.807</ele>
        <time>2015-09-05T16:42:06Z</time>
      </trkpt>
      <trkpt lat="49.25702" lon="-0.1515">
        <ele>-2.257</ele>
        <time>2015-09-05T16:42:18Z</time>
      </trkpt>
      <trkpt lat="49.25721" lon="-0.15121">
        <ele>-1.942</ele>
        <time>2015-09-05T16:42:36Z</time>
      </trkpt>
      <trkpt lat="49.25737" lon="-0.15099">
        <ele>-1.98</ele>
        <time>2015-09-05T16:42:50Z</time>
      </trkpt>
      <trkpt lat="49.25748" lon="-0.1508">
        <ele>-1.827</ele>
        <time>2015-09-05T16:43:00Z</time>
      </trkpt>
      <trkpt lat="49.25768" lon="-0.1507">
        <ele>-2.977</ele>
        <time>2015-09-05T16:43:14Z</time>
      </trkpt>
      <trkpt lat="49.25769" lon="-0.15071">
        <ele>-21.068</ele>
        <time>2015-09-05T16:43:15Z</time>
      </trkpt>
      <trkpt lat="49.2577" lon="-0.15071">
        <ele>-5.114</ele>
        <time>2015-09-05T16:43:16Z</time>
      </trkpt>
      <trkpt lat="49.25772" lon="-0.15071">
        <ele>-0.395</ele>
        <time>2015-09-05T16:43:17Z</time>
      </trkpt>
      <trkpt lat="49.25773" lon="-0.1507">
        <ele>-1.285</ele>
        <time>2015-09-05T16:43:18Z</time>
      </trkpt>
      <trkpt lat="49.2579" lon="-0.15069">
        <ele>-1.632</ele>
        <time>2015-09-05T16:43:29Z</time>
      </trkpt>
      <trkpt lat="49.25804" lon="-0.15069">
        <ele>-1.867</ele>
        <time>2015-09-05T16:43:38Z</time>
      </trkpt>
      <trkpt lat="49.25819" lon="-0.15061">
        <ele>-2.386</ele>
        <time>2015-09-05T16:43:49Z</time>
      </trkpt>
      <trkpt lat="49.25819" lon="-0.15043">
        <ele>-1.72</ele>
        <time>2015-09-05T16:43:57Z</time>
      </trkpt>
      <trkpt lat="49.25811" lon="-0.15009">
        <ele>-1.604</ele>
        <time>2015-09-05T16:44:12Z</time>
      </trkpt>
      <trkpt lat="49.25803" lon="-0.14981">
        <ele>-2.055</ele>
        <time>2015-09-05T16:44:25Z</time>
      </trkpt>
      <trkpt lat="49.25793" lon="-0.14953">
        <ele>-2.234</ele>
        <time>2015-09-05T16:44:39Z</time>
      </trkpt>
      <trkpt lat="49.25784" lon="-0.14921">
        <ele>-2.364</ele>
        <time>2015-09-05T16:44:54Z</time>
      </trkpt>
      <trkpt lat="49.25786" lon="-0.14902">
        <ele>-2.613</ele>
        <time>2015-09-05T16:45:03Z</time>
      </trkpt>
      <trkpt lat="49.25787" lon="-0.149">
        <ele>-2.569</ele>
        <time>2015-09-05T16:45:04Z</time>
      </trkpt>
      <trkpt lat="49.25793" lon="-0.149">
        <ele>-2.426</ele>
        <time>2015-09-05T16:45:08Z</time>
      </trkpt>
      <trkpt lat="49.2581" lon="-0.14905">
        <ele>-1.959</ele>
        <time>2015-09-05T16:45:19Z</time>
      </trkpt>
      <trkpt lat="49.25822" lon="-0.14908">
        <ele>-2.373</ele>
        <time>2015-09-05T16:45:28Z</time>
      </trkpt>
      <trkpt lat="49.25823" lon="-0.14909">
        <ele>-2.267</ele>
        <time>2015-09-05T16:45:29Z</time>
      </trkpt>
      <trkpt lat="49.2584" lon="-0.14912">
        <ele>-2.957</ele>
        <time>2015-09-05T16:45:40Z</time>
      </trkpt>
      <trkpt lat="49.25857" lon="-0.14919">
        <ele>-2.786</ele>
        <time>2015-09-05T16:45:51Z</time>
      </trkpt>
      <trkpt lat="49.25871" lon="-0.1493">
        <ele>-3.181</ele>
        <time>2015-09-05T16:46:03Z</time>
      </trkpt>
      <trkpt lat="49.25883" lon="-0.14937">
        <ele>-3.209</ele>
        <time>2015-09-05T16:46:12Z</time>
      </trkpt>
      <trkpt lat="49.25895" lon="-0.14947">
        <ele>-2.75</ele>
        <time>2015-09-05T16:46:19Z</time>
      </trkpt>
      <trkpt lat="49.259" lon="-0.1495">
        <ele>-2.731</ele>
        <time>2015-09-05T16:46:21Z</time>
      </trkpt>
      <trkpt lat="49.25907" lon="-0.14955">
        <ele>-3.374</ele>
        <time>2015-09-05T16:46:27Z</time>
      </trkpt>
      <trkpt lat="49.25918" lon="-0.14966">
        <ele>-3.197</ele>
        <time>2015-09-05T16:46:39Z</time>
      </trkpt>
      <trkpt lat="49.25931" lon="-0.14986">
        <ele>-3.032</ele>
        <time>2015-09-05T16:46:52Z</time>
      </trkpt>
      <trkpt lat="49.25939" lon="-0.1499">
        <ele>-2.901</ele>
        <time>2015-09-05T16:46:57Z</time>
      </trkpt>
      <trkpt lat="49.25947" lon="-0.14991">
        <ele>-2.896</ele>
        <time>2015-09-05T16:47:03Z</time>
      </trkpt>
      <trkpt lat="49.25947" lon="-0.14993">
        <ele>-2.859</ele>
        <time>2015-09-05T16:47:05Z</time>
      </trkpt>
      <trkpt lat="49.2595" lon="-0.15001">
        <ele>-2.828</ele>
        <time>2015-09-05T16:47:13Z</time>
      </trkpt>
      <trkpt lat="49.2595" lon="-0.15">
        <ele>-3.098</ele>
        <time>2015-09-05T16:47:14Z</time>
      </trkpt>
      <trkpt lat="49.25951" lon="-0.14993">
        <ele>-2.999</ele>
        <time>2015-09-05T16:47:24Z</time>
      </trkpt>
      <trkpt lat="49.2595" lon="-0.14994">
        <ele>-2.882</ele>
        <time>2015-09-05T16:47:48Z</time>
      </trkpt>
      <trkpt lat="49.2595" lon="-0.14994">
        <ele>-3.18</ele>
        <time>2015-09-05T16:47:55Z</time>
      </trkpt>
      <trkpt lat="49.25954" lon="-0.14974">
        <ele>-3.122</ele>
        <time>2015-09-05T16:48:04Z</time>
      </trkpt>
      <trkpt lat="49.25955" lon="-0.1497">
        <ele>-2.922</ele>
        <time>2015-09-05T16:48:06Z</time>
      </trkpt>
      <trkpt lat="49.25958" lon="-0.14971">
        <ele>-2.777</ele>
        <time>2015-09-05T16:48:14Z</time>
      </trkpt>
      <trkpt lat="49.25961" lon="-0.14961">
        <ele>-3.024</ele>
        <time>2015-09-05T16:48:26Z</time>
      </trkpt>
      <trkpt lat="49.25965" lon="-0.1495">
        <ele>-3.011</ele>
        <time>2015-09-05T16:48:34Z</time>
      </trkpt>
      <trkpt lat="49.25967" lon="-0.14945">
        <ele>-2.782</ele>
        <time>2015-09-05T16:48:37Z</time>
      </trkpt>
      <trkpt lat="49.25976" lon="-0.14925">
        <ele>-2.93</ele>
        <time>2015-09-05T16:48:48Z</time>
      </trkpt>
      <trkpt lat="49.25983" lon="-0.14903">
        <ele>-3.218</ele>
        <time>2015-09-05T16:48:59Z</time>
      </trkpt>
      <trkpt lat="49.25995" lon="-0.14892">
        <ele>-3.196</ele>
        <time>2015-09-05T16:49:09Z</time>
      </trkpt>
      <trkpt lat="49.26003" lon="-0.14898">
        <ele>-3.52</ele>
        <time>2015-09-05T16:49:16Z</time>
      </trkpt>
      <trkpt lat="49.26005" lon="-0.149">
        <ele>-3.658</ele>
        <time>2015-09-05T16:49:18Z</time>
      </trkpt>
      <trkpt lat="49.26018" lon="-0.14896">
        <ele>-3.199</ele>
        <time>2015-09-05T16:49:26Z</time>
      </trkpt>
      <trkpt lat="49.26023" lon="-0.1489">
        <ele>-3.169</ele>
        <time>2015-09-05T16:49:30Z</time>
      </trkpt>
      <trkpt lat="49.26024" lon="-0.14887">
        <ele>-3.295</ele>
        <time>2015-09-05T16:49:32Z</time>
      </trkpt>
      <trkpt lat="49.26039" lon="-0.14866">
        <ele>-3.425</ele>
        <time>2015-09-05T16:49:46Z</time>
      </trkpt>
      <trkpt lat="49.26053" lon="-0.14848">
        <ele>-3.487</ele>
        <time>2015-09-05T16:49:58Z</time>
      </trkpt>
      <trkpt lat="49.26059" lon="-0.14848">
        <ele>-4.113</ele>
        <time>2015-09-05T16:50:02Z</time>
      </trkpt>
      <trkpt lat="49.26067" lon="-0.14834">
        <ele>-3.832</ele>
        <time>2015-09-05T16:50:10Z</time>
      </trkpt>
      <trkpt lat="49.26074" lon="-0.14819">
        <ele>-3.614</ele>
        <time>2015-09-05T16:50:19Z</time>
      </trkpt>
      <trkpt lat="49.26081" lon="-0.14807">
        <ele>-3.585</ele>
        <time>2015-09-05T16:50:29Z</time>
      </trkpt>
      <trkpt lat="49.2608" lon="-0.14806">
        <ele>-3.634</ele>
        <time>2015-09-05T16:50:58Z</time>
      </trkpt>
      <trkpt lat="49.26086" lon="-0.14798">
        <ele>-3.782</ele>
        <time>2015-09-05T16:51:18Z</time>
      </trkpt>
      <trkpt lat="49.26103" lon="-0.1477">
        <ele>-3.667</ele>
        <time>2015-09-05T16:51:34Z</time>
      </trkpt>
      <trkpt lat="49.26116" lon="-0.14751">
        <ele>-3.97</ele>
        <time>2015-09-05T16:51:46Z</time>
      </trkpt>
      <trkpt lat="49.26126" lon="-0.14738">
        <ele>-4.073</ele>
        <time>2015-09-05T16:51:55Z</time>
      </trkpt>
      <trkpt lat="49.26141" lon="-0.14714">
        <ele>-3.469</ele>
        <time>2015-09-05T16:52:09Z</time>
      </trkpt>
      <trkpt lat="49.26143" lon="-0.14693">
        <ele>-4.175</ele>
        <time>2015-09-05T16:52:21Z</time>
      </trkpt>
      <trkpt lat="49.26143" lon="-0.14692">
        <ele>-3.979</ele>
        <time>2015-09-05T16:52:31Z</time>
      </trkpt>
      <trkpt lat="49.26141" lon="-0.14671">
        <ele>-3.527</ele>
        <time>2015-09-05T16:52:41Z</time>
      </trkpt>
      <trkpt lat="49.26137" lon="-0.14637">
        <ele>-3.339</ele>
        <time>2015-09-05T16:52:56Z</time>
      </trkpt>
      <trkpt lat="49.26135" lon="-0.14611">
        <ele>-3.615</ele>
        <time>2015-09-05T16:53:08Z</time>
      </trkpt>
      <trkpt lat="49.2614" lon="-0.14582">
        <ele>-3.431</ele>
        <time>2015-09-05T16:53:21Z</time>
      </trkpt>
      <trkpt lat="49.26148" lon="-0.1456">
        <ele>-3.929</ele>
        <time>2015-09-05T16:53:32Z</time>
      </trkpt>
      <trkpt lat="49.26157" lon="-0.14527">
        <ele>-3.987</ele>
        <time>2015-09-05T16:53:47Z</time>
      </trkpt>
      <trkpt lat="49.26161" lon="-0.1451">
        <ele>-4.094</ele>
        <time>2015-09-05T16:53:55Z</time>
      </trkpt>
      <trkpt lat="49.26168" lon="-0.14484">
        <ele>-3.77</ele>
        <time>2015-09-05T16:54:07Z</time>
      </trkpt>
      <trkpt lat="49.26175" lon="-0.14462">
        <ele>-3.578</ele>
        <time>2015-09-05T16:54:18Z</time>
      </trkpt>
      <trkpt lat="49.26189" lon="-0.14458">
        <ele>-4.238</ele>
        <time>2015-09-05T16:54:28Z</time>
      </trkpt>
      <trkpt lat="49.26202" lon="-0.14462">
        <ele>-4.374</ele>
        <time>2015-09-05T16:54:37Z</time>
      </trkpt>
      <trkpt lat="49.26208" lon="-0.14463">
        <ele>-4.025</ele>
        <time>2015-09-05T16:54:42Z</time>
      </trkpt>
      <trkpt lat="49.26221" lon="-0.14463">
        <ele>-3.984</ele>
        <time>2015-09-05T16:54:52Z</time>
      </trkpt>
      <trkpt lat="49.26237" lon="-0.14462">
        <ele>-4.294</ele>
        <time>2015-09-05T16:55:02Z</time>
      </trkpt>
      <trkpt lat="49.2625" lon="-0.14462">
        <ele>-4.135</ele>
        <time>2015-09-05T16:55:11Z</time>
      </trkpt>
      <trkpt lat="49.26262" lon="-0.14464">
        <ele>-4.171</ele>
        <time>2015-09-05T16:55:19Z</time>
      </trkpt>
      <trkpt lat="49.26281" lon="-0.14465">
        <ele>-4.42</ele>
        <time>2015-09-05T16:55:31Z</time>
      </trkpt>
      <trkpt lat="49.26295" lon="-0.14457">
        <ele>-3.733</ele>
        <time>2015-09-05T16:55:41Z</time>
      </trkpt>
      <trkpt lat="49.2631" lon="-0.14439">
        <ele>-3.911</ele>
        <time>2015-09-05T16:55:55Z</time>
      </trkpt>
      <trkpt lat="49.26311" lon="-0.14442">
        <ele>-3.798</ele>
        <time>2015-09-05T16:56:02Z</time>
      </trkpt>
      <trkpt lat="49.26311" lon="-0.1444">
        <ele>-3.862</ele>
        <time>2015-09-05T16:56:06Z</time>
      </trkpt>
      <trkpt lat="49.26311" lon="-0.14437">
        <ele>-4.127</ele>
        <time>2015-09-05T16:56:08Z</time>
      </trkpt>
      <trkpt lat="49.26305" lon="-0.14424">
        <ele>-3.876</ele>
        <time>2015-09-05T16:56:19Z</time>
      </trkpt>
      <trkpt lat="49.26303" lon="-0.14419">
        <ele>-4.2</ele>
        <time>2015-09-05T16:56:32Z</time>
      </trkpt>
      <trkpt lat="49.26303" lon="-0.1442">
        <ele>-4.26</ele>
        <time>2015-09-05T16:56:33Z</time>
      </trkpt>
      <trkpt lat="49.26308" lon="-0.14435">
        <ele>-4.594</ele>
        <time>2015-09-05T16:56:42Z</time>
      </trkpt>
      <trkpt lat="49.26312" lon="-0.14441">
        <ele>-4.246</ele>
        <time>2015-09-05T16:56:48Z</time>
      </trkpt>
      <trkpt lat="49.26318" lon="-0.14438">
        <ele>-4.051</ele>
        <time>2015-09-05T16:56:53Z</time>
      </trkpt>
      <trkpt lat="49.26316" lon="-0.14438">
        <ele>-4.037</ele>
        <time>2015-09-05T16:56:55Z</time>
      </trkpt>
      <trkpt lat="49.26308" lon="-0.1443">
        <ele>-3.991</ele>
        <time>2015-09-05T16:57:02Z</time>
      </trkpt>
      <trkpt lat="49.263" lon="-0.14408">
        <ele>-4.008</ele>
        <time>2015-09-05T16:57:13Z</time>
      </trkpt>
      <trkpt lat="49.26293" lon="-0.14384">
        <ele>-4.112</ele>
        <time>2015-09-05T16:57:25Z</time>
      </trkpt>
      <trkpt lat="49.26286" lon="-0.14358">
        <ele>-3.727</ele>
        <time>2015-09-05T16:57:37Z</time>
      </trkpt>
      <trkpt lat="49.2628" lon="-0.14339">
        <ele>-3.966</ele>
        <time>2015-09-05T16:57:46Z</time>
      </trkpt>
      <trkpt lat="49.26277" lon="-0.14333">
        <ele>-3.747</ele>
        <time>2015-09-05T16:57:49Z</time>
      </trkpt>
      <trkpt lat="49.26272" lon="-0.14303">
        <ele>-4.058</ele>
        <time>2015-09-05T16:58:02Z</time>
      </trkpt>
      <trkpt lat="49.26267" lon="-0.14278">
        <ele>-3.888</ele>
        <time>2015-09-05T16:58:14Z</time>
      </trkpt>
      <trkpt lat="49.26262" lon="-0.14255">
        <ele>-3.569</ele>
        <time>2015-09-05T16:58:25Z</time>
      </trkpt>
      <trkpt lat="49.26259" lon="-0.14218">
        <ele>-3.98</ele>
        <time>2015-09-05T16:58:41Z</time>
      </trkpt>
      <trkpt lat="49.26255" lon="-0.14196">
        <ele>-3.924</ele>
        <time>2015-09-05T16:58:51Z</time>
      </trkpt>
      <trkpt lat="49.26251" lon="-0.14158">
        <ele>-4.011</ele>
        <time>2015-09-05T16:59:07Z</time>
      </trkpt>
      <trkpt lat="49.26244" lon="-0.14117">
        <ele>-3.643</ele>
        <time>2015-09-05T16:59:25Z</time>
      </trkpt>
      <trkpt lat="49.26238" lon="-0.14078">
        <ele>-4.087</ele>
        <time>2015-09-05T16:59:42Z</time>
      </trkpt>
      <trkpt lat="49.26235" lon="-0.14054">
        <ele>-3.719</ele>
        <time>2015-09-05T16:59:53Z</time>
      </trkpt>
      <trkpt lat="49.26235" lon="-0.14035">
        <ele>-3.224</ele>
        <time>2015-09-05T17:00:02Z</time>
      </trkpt>
      <trkpt lat="49.26239" lon="-0.14008">
        <ele>-3.634</ele>
        <time>2015-09-05T17:00:14Z</time>
      </trkpt>
      <trkpt lat="49.26245" lon="-0.13967">
        <ele>-3.689</ele>
        <time>2015-09-05T17:00:33Z</time>
      </trkpt>
      <trkpt lat="49.2625" lon="-0.1395">
        <ele>-3.537</ele>
        <time>2015-09-05T17:00:42Z</time>
      </trkpt>
      <trkpt lat="49.26262" lon="-0.13916">
        <ele>-3.255</ele>
        <time>2015-09-05T17:00:59Z</time>
      </trkpt>
      <trkpt lat="49.2627" lon="-0.13897">
        <ele>-3.797</ele>
        <time>2015-09-05T17:01:09Z</time>
      </trkpt>
      <trkpt lat="49.26268" lon="-0.13887">
        <ele>-3.689</ele>
        <time>2015-09-05T17:01:15Z</time>
      </trkpt>
      <trkpt lat="49.26251" lon="-0.13872">
        <ele>-3.867</ele>
        <time>2015-09-05T17:01:28Z</time>
      </trkpt>
      <trkpt lat="49.26249" lon="-0.13869">
        <ele>-3.667</ele>
        <time>2015-09-05T17:01:35Z</time>
      </trkpt>
      <trkpt lat="49.26243" lon="-0.13866">
        <ele>-3.741</ele>
        <time>2015-09-05T17:01:46Z</time>
      </trkpt>
      <trkpt lat="49.26224" lon="-0.13857">
        <ele>-3.6</ele>
        <time>2015-09-05T17:01:59Z</time>
      </trkpt>
      <trkpt lat="49.26212" lon="-0.13845">
        <ele>-4.165</ele>
        <time>2015-09-05T17:02:10Z</time>
      </trkpt>
      <trkpt lat="49.26201" lon="-0.13825">
        <ele>-3.619</ele>
        <time>2015-09-05T17:02:22Z</time>
      </trkpt>
      <trkpt lat="49.26197" lon="-0.13803">
        <ele>-3.496</ele>
        <time>2015-09-05T17:02:33Z</time>
      </trkpt>
      <trkpt lat="49.26197" lon="-0.13801">
        <ele>-3.232</ele>
        <time>2015-09-05T17:02:40Z</time>
      </trkpt>
      <trkpt lat="49.26197" lon="-0.13798">
        <ele>-3.096</ele>
        <time>2015-09-05T17:03:01Z</time>
      </trkpt>
      <trkpt lat="49.26191" lon="-0.13781">
        <ele>-3.563</ele>
        <time>2015-09-05T17:03:11Z</time>
      </trkpt>
      <trkpt lat="49.26182" lon="-0.13762">
        <ele>-3.896</ele>
        <time>2015-09-05T17:03:24Z</time>
      </trkpt>
      <trkpt lat="49.26181" lon="-0.13759">
        <ele>-4.052</ele>
        <time>2015-09-05T17:03:26Z</time>
      </trkpt>
      <trkpt lat="49.26174" lon="-0.13744">
        <ele>-3.644</ele>
        <time>2015-09-05T17:03:36Z</time>
      </trkpt>
      <trkpt lat="49.26166" lon="-0.13726">
        <ele>-3.548</ele>
        <time>2015-09-05T17:03:47Z</time>
      </trkpt>
      <trkpt lat="49.26162" lon="-0.13706">
        <ele>-3.49</ele>
        <time>2015-09-05T17:03:57Z</time>
      </trkpt>
      <trkpt lat="49.26165" lon="-0.1368">
        <ele>-3.793</ele>
        <time>2015-09-05T17:04:11Z</time>
      </trkpt>
      <trkpt lat="49.26167" lon="-0.13655">
        <ele>-3.291</ele>
        <time>2015-09-05T17:04:22Z</time>
      </trkpt>
      <trkpt lat="49.2617" lon="-0.13634">
        <ele>-3.733</ele>
        <time>2015-09-05T17:04:33Z</time>
      </trkpt>
      <trkpt lat="49.26174" lon="-0.13609">
        <ele>-3.532</ele>
        <time>2015-09-05T17:04:46Z</time>
      </trkpt>
      <trkpt lat="49.26175" lon="-0.13601">
        <ele>-3.436</ele>
        <time>2015-09-05T17:04:51Z</time>
      </trkpt>
      <trkpt lat="49.26176" lon="-0.13597">
        <ele>-3.313</ele>
        <time>2015-09-05T17:04:58Z</time>
      </trkpt>
      <trkpt lat="49.26182" lon="-0.1357">
        <ele>-3.334</ele>
        <time>2015-09-05T17:05:12Z</time>
      </trkpt>
      <trkpt lat="49.26184" lon="-0.13553">
        <ele>-3.496</ele>
        <time>2015-09-05T17:05:22Z</time>
      </trkpt>
      <trkpt lat="49.26186" lon="-0.13536">
        <ele>-3.528</ele>
        <time>2015-09-05T17:05:31Z</time>
      </trkpt>
      <trkpt lat="49.26183" lon="-0.13519">
        <ele>-3.09</ele>
        <time>2015-09-05T17:05:41Z</time>
      </trkpt>
      <trkpt lat="49.26179" lon="-0.13502">
        <ele>-3.076</ele>
        <time>2015-09-05T17:05:52Z</time>
      </trkpt>
      <trkpt lat="49.2617" lon="-0.13485">
        <ele>-3.123</ele>
        <time>2015-09-05T17:06:04Z</time>
      </trkpt>
      <trkpt lat="49.26161" lon="-0.13467">
        <ele>-3.441</ele>
        <time>2015-09-05T17:06:15Z</time>
      </trkpt>
      <trkpt lat="49.26151" lon="-0.13445">
        <ele>-2.91</ele>
        <time>2015-09-05T17:06:29Z</time>
      </trkpt>
      <trkpt lat="49.26151" lon="-0.13441">
        <ele>-2.952</ele>
        <time>2015-09-05T17:06:37Z</time>
      </trkpt>
      <trkpt lat="49.26151" lon="-0.1344">
        <ele>-3.169</ele>
        <time>2015-09-05T17:06:58Z</time>
      </trkpt>
      <trkpt lat="49.26152" lon="-0.13432">
        <ele>-3.027</ele>
        <time>2015-09-05T17:07:04Z</time>
      </trkpt>
      <trkpt lat="49.26152" lon="-0.1342">
        <ele>-2.874</ele>
        <time>2015-09-05T17:07:13Z</time>
      </trkpt>
      <trkpt lat="49.26156" lon="-0.13388">
        <ele>-2.747</ele>
        <time>2015-09-05T17:07:28Z</time>
      </trkpt>
      <trkpt lat="49.2616" lon="-0.1337">
        <ele>-2.663</ele>
        <time>2015-09-05T17:07:38Z</time>
      </trkpt>
      <trkpt lat="49.26165" lon="-0.13342">
        <ele>-2.975</ele>
        <time>2015-09-05T17:07:51Z</time>
      </trkpt>
      <trkpt lat="49.26168" lon="-0.13322">
        <ele>-2.407</ele>
        <time>2015-09-05T17:08:00Z</time>
      </trkpt>
      <trkpt lat="49.26174" lon="-0.1329">
        <ele>-2.677</ele>
        <time>2015-09-05T17:08:15Z</time>
      </trkpt>
      <trkpt lat="49.26177" lon="-0.13259">
        <ele>-2.462</ele>
        <time>2015-09-05T17:08:29Z</time>
      </trkpt>
      <trkpt lat="49.26176" lon="-0.13247">
        <ele>-2.47</ele>
        <time>2015-09-05T17:08:38Z</time>
      </trkpt>
      <trkpt lat="49.26176" lon="-0.13234">
        <ele>-2.618</ele>
        <time>2015-09-05T17:08:45Z</time>
      </trkpt>
      <trkpt lat="49.26176" lon="-0.13232">
        <ele>-2.695</ele>
        <time>2015-09-05T17:08:46Z</time>
      </trkpt>
      <trkpt lat="49.26177" lon="-0.13226">
        <ele>-2.534</ele>
        <time>2015-09-05T17:08:49Z</time>
      </trkpt>
      <trkpt lat="49.26176" lon="-0.13202">
        <ele>-2.446</ele>
        <time>2015-09-05T17:09:01Z</time>
      </trkpt>
      <trkpt lat="49.2618" lon="-0.13197">
        <ele>-2.6</ele>
        <time>2015-09-05T17:09:11Z</time>
      </trkpt>
      <trkpt lat="49.26181" lon="-0.13197">
        <ele>-2.416</ele>
        <time>2015-09-05T17:09:20Z</time>
      </trkpt>
      <trkpt lat="49.26181" lon="-0.13196">
        <ele>-2.527</ele>
        <time>2015-09-05T17:09:36Z</time>
      </trkpt>
      <trkpt lat="49.26199" lon="-0.13194">
        <ele>-2.941</ele>
        <time>2015-09-05T17:09:48Z</time>
      </trkpt>
      <trkpt lat="49.26203" lon="-0.13195">
        <ele>-2.587</ele>
        <time>2015-09-05T17:09:54Z</time>
      </trkpt>
      <trkpt lat="49.26214" lon="-0.13199">
        <ele>-2.494</ele>
        <time>2015-09-05T17:10:02Z</time>
      </trkpt>
      <trkpt lat="49.26221" lon="-0.13199">
        <ele>-2.568</ele>
        <time>2015-09-05T17:10:08Z</time>
      </trkpt>
      <trkpt lat="49.26224" lon="-0.132">
        <ele>-2.54</ele>
        <time>2015-09-05T17:10:15Z</time>
      </trkpt>
      <trkpt lat="49.26231" lon="-0.13201">
        <ele>-2.691</ele>
        <time>2015-09-05T17:10:23Z</time>
      </trkpt>
      <trkpt lat="49.26249" lon="-0.13205">
        <ele>-2.813</ele>
        <time>2015-09-05T17:10:36Z</time>
      </trkpt>
      <trkpt lat="49.2626" lon="-0.13207">
        <ele>-2.831</ele>
        <time>2015-09-05T17:10:44Z</time>
      </trkpt>
      <trkpt lat="49.26269" lon="-0.13209">
        <ele>-2.639</ele>
        <time>2015-09-05T17:10:51Z</time>
      </trkpt>
      <trkpt lat="49.26287" lon="-0.13204">
        <ele>-2.838</ele>
        <time>2015-09-05T17:11:02Z</time>
      </trkpt>
      <trkpt lat="49.26309" lon="-0.13206">
        <ele>-2.871</ele>
        <time>2015-09-05T17:11:16Z</time>
      </trkpt>
      <trkpt lat="49.26329" lon="-0.1321">
        <ele>-2.753</ele>
        <time>2015-09-05T17:11:29Z</time>
      </trkpt>
      <trkpt lat="49.26347" lon="-0.13216">
        <ele>-2.992</ele>
        <time>2015-09-05T17:11:40Z</time>
      </trkpt>
      <trkpt lat="49.26373" lon="-0.13219">
        <ele>-2.859</ele>
        <time>2015-09-05T17:11:56Z</time>
      </trkpt>
      <trkpt lat="49.26385" lon="-0.13224">
        <ele>-2.934</ele>
        <time>2015-09-05T17:12:04Z</time>
      </trkpt>
      <trkpt lat="49.264" lon="-0.13227">
        <ele>-2.498</ele>
        <time>2015-09-05T17:12:13Z</time>
      </trkpt>
      <trkpt lat="49.26418" lon="-0.13226">
        <ele>-2.967</ele>
        <time>2015-09-05T17:12:25Z</time>
      </trkpt>
      <trkpt lat="49.26445" lon="-0.13232">
        <ele>-3.036</ele>
        <time>2015-09-05T17:12:42Z</time>
      </trkpt>
      <trkpt lat="49.26464" lon="-0.13243">
        <ele>-2.728</ele>
        <time>2015-09-05T17:12:55Z</time>
      </trkpt>
      <trkpt lat="49.26474" lon="-0.1325">
        <ele>-6.414</ele>
        <time>2015-09-05T17:13:02Z</time>
      </trkpt>
      <trkpt lat="49.26476" lon="-0.13251">
        <ele>-0.287</ele>
        <time>2015-09-05T17:13:03Z</time>
      </trkpt>
      <trkpt lat="49.26481" lon="-0.13253">
        <ele>-3.048</ele>
        <time>2015-09-05T17:13:06Z</time>
      </trkpt>
      <trkpt lat="49.2649" lon="-0.13261">
        <ele>-3.163</ele>
        <time>2015-09-05T17:13:12Z</time>
      </trkpt>
      <trkpt lat="49.265" lon="-0.1327">
        <ele>-3.066</ele>
        <time>2015-09-05T17:13:21Z</time>
      </trkpt>
      <trkpt lat="49.26521" lon="-0.13284">
        <ele>-2.958</ele>
        <time>2015-09-05T17:13:35Z</time>
      </trkpt>
      <trkpt lat="49.26546" lon="-0.13303">
        <ele>-3.085</ele>
        <time>2015-09-05T17:13:53Z</time>
      </trkpt>
      <trkpt lat="49.26558" lon="-0.13311">
        <ele>-2.71</ele>
        <time>2015-09-05T17:14:01Z</time>
      </trkpt>
      <trkpt lat="49.26574" lon="-0.13326">
        <ele>-2.992</ele>
        <time>2015-09-05T17:14:12Z</time>
      </trkpt>
      <trkpt lat="49.26589" lon="-0.13344">
        <ele>-3.273</ele>
        <time>2015-09-05T17:14:24Z</time>
      </trkpt>
      <trkpt lat="49.26612" lon="-0.13374">
        <ele>-3.463</ele>
        <time>2015-09-05T17:14:42Z</time>
      </trkpt>
      <trkpt lat="49.26627" lon="-0.13398">
        <ele>-3.763</ele>
        <time>2015-09-05T17:14:56Z</time>
      </trkpt>
      <trkpt lat="49.26645" lon="-0.1342">
        <ele>-3.325</ele>
        <time>2015-09-05T17:15:11Z</time>
      </trkpt>
      <trkpt lat="49.26671" lon="-0.13451">
        <ele>-3.619</ele>
        <time>2015-09-05T17:15:32Z</time>
      </trkpt>
      <trkpt lat="49.26687" lon="-0.13473">
        <ele>-3.53</ele>
        <time>2015-09-05T17:15:46Z</time>
      </trkpt>
      <trkpt lat="49.26704" lon="-0.13497">
        <ele>-3.609</ele>
        <time>2015-09-05T17:16:00Z</time>
      </trkpt>
      <trkpt lat="49.26722" lon="-0.13517">
        <ele>-3.8</ele>
        <time>2015-09-05T17:16:14Z</time>
      </trkpt>
      <trkpt lat="49.26746" lon="-0.13525">
        <ele>-3.897</ele>
        <time>2015-09-05T17:16:29Z</time>
      </trkpt>
      <trkpt lat="49.26766" lon="-0.13521">
        <ele>-4.188</ele>
        <time>2015-09-05T17:16:41Z</time>
      </trkpt>
      <trkpt lat="49.26791" lon="-0.13532">
        <ele>-4.114</ele>
        <time>2015-09-05T17:16:57Z</time>
      </trkpt>
      <trkpt lat="49.26805" lon="-0.1355">
        <ele>-4.391</ele>
        <time>2015-09-05T17:17:09Z</time>
      </trkpt>
      <trkpt lat="49.26824" lon="-0.13575">
        <ele>-4.109</ele>
        <time>2015-09-05T17:17:26Z</time>
      </trkpt>
      <trkpt lat="49.26835" lon="-0.13573">
        <ele>-3.83</ele>
        <time>2015-09-05T17:17:33Z</time>
      </trkpt>
      <trkpt lat="49.26854" lon="-0.13574">
        <ele>-4.02</ele>
        <time>2015-09-05T17:17:45Z</time>
      </trkpt>
      <trkpt lat="49.26874" lon="-0.13608">
        <ele>-3.947</ele>
        <time>2015-09-05T17:18:04Z</time>
      </trkpt>
      <trkpt lat="49.2688" lon="-0.13626">
        <ele>-3.756</ele>
        <time>2015-09-05T17:18:12Z</time>
      </trkpt>
      <trkpt lat="49.26888" lon="-0.13632">
        <ele>-3.991</ele>
        <time>2015-09-05T17:18:18Z</time>
      </trkpt>
      <trkpt lat="49.26898" lon="-0.1363">
        <ele>-4.009</ele>
        <time>2015-09-05T17:18:27Z</time>
      </trkpt>
      <trkpt lat="49.26897" lon="-0.13631">
        <ele>-3.838</ele>
        <time>2015-09-05T17:18:51Z</time>
      </trkpt>
      <trkpt lat="49.26888" lon="-0.13632">
        <ele>-3.967</ele>
        <time>2015-09-05T17:19:01Z</time>
      </trkpt>
      <trkpt lat="49.26889" lon="-0.13632">
        <ele>-4.264</ele>
        <time>2015-09-05T17:19:20Z</time>
      </trkpt>
      <trkpt lat="49.26905" lon="-0.13629">
        <ele>-4.122</ele>
        <time>2015-09-05T17:19:33Z</time>
      </trkpt>
      <trkpt lat="49.26905" lon="-0.13629">
        <ele>-4.278</ele>
        <time>2015-09-05T17:19:41Z</time>
      </trkpt>
      <trkpt lat="49.26911" lon="-0.13627">
        <ele>-4.219</ele>
        <time>2015-09-05T17:19:49Z</time>
      </trkpt>
      <trkpt lat="49.26931" lon="-0.13619">
        <ele>-4.152</ele>
        <time>2015-09-05T17:20:02Z</time>
      </trkpt>
      <trkpt lat="49.26942" lon="-0.13614">
        <ele>-4.215</ele>
        <time>2015-09-05T17:20:13Z</time>
      </trkpt>
      <trkpt lat="49.26948" lon="-0.13612">
        <ele>-4.253</ele>
        <time>2015-09-05T17:20:31Z</time>
      </trkpt>
      <trkpt lat="49.26958" lon="-0.13608">
        <ele>-4.479</ele>
        <time>2015-09-05T17:20:40Z</time>
      </trkpt>
      <trkpt lat="49.26964" lon="-0.13606">
        <ele>-4.203</ele>
        <time>2015-09-05T17:20:44Z</time>
      </trkpt>
      <trkpt lat="49.26969" lon="-0.13604">
        <ele>-4.595</ele>
        <time>2015-09-05T17:20:47Z</time>
      </trkpt>
      <trkpt lat="49.26981" lon="-0.13602">
        <ele>-4.439</ele>
        <time>2015-09-05T17:20:56Z</time>
      </trkpt>
      <trkpt lat="49.26989" lon="-0.136">
        <ele>-4.165</ele>
        <time>2015-09-05T17:21:02Z</time>
      </trkpt>
      <trkpt lat="49.26997" lon="-0.13597">
        <ele>-4.461</ele>
        <time>2015-09-05T17:21:10Z</time>
      </trkpt>
      <trkpt lat="49.27014" lon="-0.1359">
        <ele>-4.627</ele>
        <time>2015-09-05T17:21:20Z</time>
      </trkpt>
      <trkpt lat="49.27035" lon="-0.13583">
        <ele>-4.704</ele>
        <time>2015-09-05T17:21:32Z</time>
      </trkpt>
      <trkpt lat="49.27049" lon="-0.13579">
        <ele>-4.459</ele>
        <time>2015-09-05T17:21:44Z</time>
      </trkpt>
      <trkpt lat="49.27056" lon="-0.13578">
        <ele>-4.703</ele>
        <time>2015-09-05T17:21:51Z</time>
      </trkpt>
      <trkpt lat="49.27068" lon="-0.1358">
        <ele>-4.719</ele>
        <time>2015-09-05T17:21:58Z</time>
      </trkpt>
      <trkpt lat="49.27086" lon="-0.13587">
        <ele>-4.712</ele>
        <time>2015-09-05T17:22:10Z</time>
      </trkpt>
      <trkpt lat="49.27091" lon="-0.13589">
        <ele>-4.647</ele>
        <time>2015-09-05T17:22:13Z</time>
      </trkpt>
      <trkpt lat="49.27105" lon="-0.13591">
        <ele>-4.791</ele>
        <time>2015-09-05T17:22:23Z</time>
      </trkpt>
      <trkpt lat="49.27112" lon="-0.13593">
        <ele>-4.848</ele>
        <time>2015-09-05T17:22:29Z</time>
      </trkpt>
      <trkpt lat="49.2713" lon="-0.13595">
        <ele>-4.483</ele>
        <time>2015-09-05T17:22:42Z</time>
      </trkpt>
      <trkpt lat="49.27131" lon="-0.13596">
        <ele>-4.54</ele>
        <time>2015-09-05T17:22:46Z</time>
      </trkpt>
      <trkpt lat="49.27139" lon="-0.13597">
        <ele>-4.488</ele>
        <time>2015-09-05T17:22:52Z</time>
      </trkpt>
      <trkpt lat="49.27151" lon="-0.13592">
        <ele>-4.918</ele>
        <time>2015-09-05T17:22:59Z</time>
      </trkpt>
      <trkpt lat="49.27158" lon="-0.13587">
        <ele>-4.993</ele>
        <time>2015-09-05T17:23:05Z</time>
      </trkpt>
      <trkpt lat="49.27174" lon="-0.13574">
        <ele>-4.687</ele>
        <time>2015-09-05T17:23:18Z</time>
      </trkpt>
      <trkpt lat="49.27186" lon="-0.13559">
        <ele>-5</ele>
        <time>2015-09-05T17:23:28Z</time>
      </trkpt>
      <trkpt lat="49.27198" lon="-0.13551">
        <ele>-4.947</ele>
        <time>2015-09-05T17:23:37Z</time>
      </trkpt>
      <trkpt lat="49.27203" lon="-0.13548">
        <ele>-5.134</ele>
        <time>2015-09-05T17:23:41Z</time>
      </trkpt>
      <trkpt lat="49.27215" lon="-0.13539">
        <ele>-5.373</ele>
        <time>2015-09-05T17:23:50Z</time>
      </trkpt>
      <trkpt lat="49.2723" lon="-0.13532">
        <ele>-4.918</ele>
        <time>2015-09-05T17:24:01Z</time>
      </trkpt>
      <trkpt lat="49.27236" lon="-0.13532">
        <ele>-5.044</ele>
        <time>2015-09-05T17:24:07Z</time>
      </trkpt>
      <trkpt lat="49.27241" lon="-0.13531">
        <ele>-4.713</ele>
        <time>2015-09-05T17:24:12Z</time>
      </trkpt>
      <trkpt lat="49.27254" lon="-0.13531">
        <ele>-5.088</ele>
        <time>2015-09-05T17:24:22Z</time>
      </trkpt>
      <trkpt lat="49.27276" lon="-0.13524">
        <ele>-5.319</ele>
        <time>2015-09-05T17:24:37Z</time>
      </trkpt>
      <trkpt lat="49.27293" lon="-0.13519">
        <ele>-5.36</ele>
        <time>2015-09-05T17:24:50Z</time>
      </trkpt>
      <trkpt lat="49.27313" lon="-0.13514">
        <ele>-5.673</ele>
        <time>2015-09-05T17:25:03Z</time>
      </trkpt>
      <trkpt lat="49.27332" lon="-0.13519">
        <ele>-5.771</ele>
        <time>2015-09-05T17:25:16Z</time>
      </trkpt>
      <trkpt lat="49.27351" lon="-0.13521">
        <ele>-5.535</ele>
        <time>2015-09-05T17:25:29Z</time>
      </trkpt>
      <trkpt lat="49.27363" lon="-0.13523">
        <ele>-5.611</ele>
        <time>2015-09-05T17:25:38Z</time>
      </trkpt>
      <trkpt lat="49.27375" lon="-0.13525">
        <ele>-5.374</ele>
        <time>2015-09-05T17:25:46Z</time>
      </trkpt>
      <trkpt lat="49.27387" lon="-0.1353">
        <ele>-4.966</ele>
        <time>2015-09-05T17:25:56Z</time>
      </trkpt>
      <trkpt lat="49.2739" lon="-0.13531">
        <ele>-4.203</ele>
        <time>2015-09-05T17:25:58Z</time>
      </trkpt>
      <trkpt lat="49.27392" lon="-0.13531">
        <ele>-5.654</ele>
        <time>2015-09-05T17:26:00Z</time>
      </trkpt>
      <trkpt lat="49.27407" lon="-0.13536">
        <ele>-4.719</ele>
        <time>2015-09-05T17:26:11Z</time>
      </trkpt>
      <trkpt lat="49.2742" lon="-0.13535">
        <ele>-5.496</ele>
        <time>2015-09-05T17:26:19Z</time>
      </trkpt>
      <trkpt lat="49.27438" lon="-0.13535">
        <ele>-5.324</ele>
        <time>2015-09-05T17:26:32Z</time>
      </trkpt>
      <trkpt lat="49.27455" lon="-0.13531">
        <ele>-5.39</ele>
        <time>2015-09-05T17:26:46Z</time>
      </trkpt>
      <trkpt lat="49.27466" lon="-0.1353">
        <ele>-5.644</ele>
        <time>2015-09-05T17:26:54Z</time>
      </trkpt>
      <trkpt lat="49.27466" lon="-0.13531">
        <ele>-5.122</ele>
        <time>2015-09-05T17:27:02Z</time>
      </trkpt>
      <trkpt lat="49.27474" lon="-0.13528">
        <ele>-5.011</ele>
        <time>2015-09-05T17:27:11Z</time>
      </trkpt>
      <trkpt lat="49.27492" lon="-0.13523">
        <ele>-5.596</ele>
        <time>2015-09-05T17:27:24Z</time>
      </trkpt>
      <trkpt lat="49.27508" lon="-0.13518">
        <ele>-5.641</ele>
        <time>2015-09-05T17:27:35Z</time>
      </trkpt>
      <trkpt lat="49.27523" lon="-0.1351">
        <ele>-5.482</ele>
        <time>2015-09-05T17:27:46Z</time>
      </trkpt>
      <trkpt lat="49.2754" lon="-0.13493">
        <ele>-5.454</ele>
        <time>2015-09-05T17:28:02Z</time>
      </trkpt>
      <trkpt lat="49.27543" lon="-0.13492">
        <ele>-5.392</ele>
        <time>2015-09-05T17:28:05Z</time>
      </trkpt>
      <trkpt lat="49.27557" lon="-0.13473">
        <ele>-5.623</ele>
        <time>2015-09-05T17:28:18Z</time>
      </trkpt>
      <trkpt lat="49.27568" lon="-0.13457">
        <ele>-5.458</ele>
        <time>2015-09-05T17:28:29Z</time>
      </trkpt>
      <trkpt lat="49.27591" lon="-0.13446">
        <ele>-5.648</ele>
        <time>2015-09-05T17:28:44Z</time>
      </trkpt>
      <trkpt lat="49.27608" lon="-0.1345">
        <ele>-5.85</ele>
        <time>2015-09-05T17:28:55Z</time>
      </trkpt>
      <trkpt lat="49.27628" lon="-0.13456">
        <ele>-5.464</ele>
        <time>2015-09-05T17:29:08Z</time>
      </trkpt>
      <trkpt lat="49.27638" lon="-0.13456">
        <ele>-5.793</ele>
        <time>2015-09-05T17:29:15Z</time>
      </trkpt>
      <trkpt lat="49.27643" lon="-0.13455">
        <ele>-5.837</ele>
        <time>2015-09-05T17:29:20Z</time>
      </trkpt>
      <trkpt lat="49.27661" lon="-0.13469">
        <ele>-5.267</ele>
        <time>2015-09-05T17:29:34Z</time>
      </trkpt>
      <trkpt lat="49.27664" lon="-0.13471">
        <ele>-5.513</ele>
        <time>2015-09-05T17:29:41Z</time>
      </trkpt>
      <trkpt lat="49.27667" lon="-0.13472">
        <ele>-5.391</ele>
        <time>2015-09-05T17:29:44Z</time>
      </trkpt>
      <trkpt lat="49.27672" lon="-0.13475">
        <ele>-5.023</ele>
        <time>2015-09-05T17:29:50Z</time>
      </trkpt>
      <trkpt lat="49.27679" lon="-0.13483">
        <ele>-5.102</ele>
        <time>2015-09-05T17:29:56Z</time>
      </trkpt>
      <trkpt lat="49.27693" lon="-0.13493">
        <ele>-5.27</ele>
        <time>2015-09-05T17:30:06Z</time>
      </trkpt>
      <trkpt lat="49.2771" lon="-0.13502">
        <ele>-5.119</ele>
        <time>2015-09-05T17:30:19Z</time>
      </trkpt>
      <trkpt lat="49.2773" lon="-0.13516">
        <ele>-5.422</ele>
        <time>2015-09-05T17:30:33Z</time>
      </trkpt>
      <trkpt lat="49.27744" lon="-0.13527">
        <ele>-5.105</ele>
        <time>2015-09-05T17:30:44Z</time>
      </trkpt>
      <trkpt lat="49.27748" lon="-0.13531">
        <ele>-5.235</ele>
        <time>2015-09-05T17:30:48Z</time>
      </trkpt>
      <trkpt lat="49.27761" lon="-0.13551">
        <ele>-5.648</ele>
        <time>2015-09-05T17:31:01Z</time>
      </trkpt>
      <trkpt lat="49.27776" lon="-0.13567">
        <ele>-5.257</ele>
        <time>2015-09-05T17:31:13Z</time>
      </trkpt>
      <trkpt lat="49.27795" lon="-0.13577">
        <ele>-5.452</ele>
        <time>2015-09-05T17:31:26Z</time>
      </trkpt>
      <trkpt lat="49.27806" lon="-0.13578">
        <ele>-5.133</ele>
        <time>2015-09-05T17:31:35Z</time>
      </trkpt>
      <trkpt lat="49.27813" lon="-0.13584">
        <ele>-5.015</ele>
        <time>2015-09-05T17:31:41Z</time>
      </trkpt>
      <trkpt lat="49.27819" lon="-0.13591">
        <ele>-5.456</ele>
        <time>2015-09-05T17:31:48Z</time>
      </trkpt>
      <trkpt lat="49.27825" lon="-0.13603">
        <ele>-5.578</ele>
        <time>2015-09-05T17:31:56Z</time>
      </trkpt>
      <trkpt lat="49.27838" lon="-0.13615">
        <ele>-5.72</ele>
        <time>2015-09-05T17:32:08Z</time>
      </trkpt>
      <trkpt lat="49.27851" lon="-0.13625">
        <ele>-5.564</ele>
        <time>2015-09-05T17:32:17Z</time>
      </trkpt>
      <trkpt lat="49.27861" lon="-0.13642">
        <ele>-5.868</ele>
        <time>2015-09-05T17:32:27Z</time>
      </trkpt>
      <trkpt lat="49.27863" lon="-0.13655">
        <ele>-5.369</ele>
        <time>2015-09-05T17:32:34Z</time>
      </trkpt>
      <trkpt lat="49.27863" lon="-0.13662">
        <ele>-5.437</ele>
        <time>2015-09-05T17:32:38Z</time>
      </trkpt>
      <trkpt lat="49.27867" lon="-0.13675">
        <ele>-5.715</ele>
        <time>2015-09-05T17:32:45Z</time>
      </trkpt>
      <trkpt lat="49.27875" lon="-0.13694">
        <ele>-5.335</ele>
        <time>2015-09-05T17:32:55Z</time>
      </trkpt>
      <trkpt lat="49.2788" lon="-0.13707">
        <ele>-5.779</ele>
        <time>2015-09-05T17:33:01Z</time>
      </trkpt>
      <trkpt lat="49.27888" lon="-0.13721">
        <ele>-5.808</ele>
        <time>2015-09-05T17:33:11Z</time>
      </trkpt>
      <trkpt lat="49.27893" lon="-0.13727">
        <ele>-5.681</ele>
        <time>2015-09-05T17:33:16Z</time>
      </trkpt>
      <trkpt lat="49.27903" lon="-0.13745">
        <ele>-5.727</ele>
        <time>2015-09-05T17:33:26Z</time>
      </trkpt>
      <trkpt lat="49.27907" lon="-0.1375">
        <ele>-5.846</ele>
        <time>2015-09-05T17:33:30Z</time>
      </trkpt>
      <trkpt lat="49.27919" lon="-0.13753">
        <ele>-5.953</ele>
        <time>2015-09-05T17:33:39Z</time>
      </trkpt>
      <trkpt lat="49.27927" lon="-0.13756">
        <ele>-5.569</ele>
        <time>2015-09-05T17:33:44Z</time>
      </trkpt>
      <trkpt lat="49.27937" lon="-0.1377">
        <ele>-5.405</ele>
        <time>2015-09-05T17:33:54Z</time>
      </trkpt>
      <trkpt lat="49.27941" lon="-0.13783">
        <ele>-5.604</ele>
        <time>2015-09-05T17:34:00Z</time>
      </trkpt>
      <trkpt lat="49.27945" lon="-0.138">
        <ele>-5.565</ele>
        <time>2015-09-05T17:34:10Z</time>
      </trkpt>
      <trkpt lat="49.27948" lon="-0.13813">
        <ele>-5.639</ele>
        <time>2015-09-05T17:34:17Z</time>
      </trkpt>
      <trkpt lat="49.27955" lon="-0.13822">
        <ele>-5.649</ele>
        <time>2015-09-05T17:34:24Z</time>
      </trkpt>
      <trkpt lat="49.27971" lon="-0.13815">
        <ele>-6.176</ele>
        <time>2015-09-05T17:34:35Z</time>
      </trkpt>
      <trkpt lat="49.27973" lon="-0.13814">
        <ele>-6.002</ele>
        <time>2015-09-05T17:34:36Z</time>
      </trkpt>
      <trkpt lat="49.27982" lon="-0.13812">
        <ele>-6.316</ele>
        <time>2015-09-05T17:34:43Z</time>
      </trkpt>
      <trkpt lat="49.27999" lon="-0.1381">
        <ele>-5.904</ele>
        <time>2015-09-05T17:34:53Z</time>
      </trkpt>
      <trkpt lat="49.28014" lon="-0.13812">
        <ele>-6.392</ele>
        <time>2015-09-05T17:35:04Z</time>
      </trkpt>
      <trkpt lat="49.28027" lon="-0.13813">
        <ele>-6.632</ele>
        <time>2015-09-05T17:35:12Z</time>
      </trkpt>
      <trkpt lat="49.28051" lon="-0.13815">
        <ele>-6.194</ele>
        <time>2015-09-05T17:35:28Z</time>
      </trkpt>
      <trkpt lat="49.28063" lon="-0.13814">
        <ele>-6.282</ele>
        <time>2015-09-05T17:35:37Z</time>
      </trkpt>
      <trkpt lat="49.28086" lon="-0.13807">
        <ele>-6.254</ele>
        <time>2015-09-05T17:35:54Z</time>
      </trkpt>
      <trkpt lat="49.28097" lon="-0.13807">
        <ele>-6.215</ele>
        <time>2015-09-05T17:36:02Z</time>
      </trkpt>
      <trkpt lat="49.28119" lon="-0.13805">
        <ele>-6.305</ele>
        <time>2015-09-05T17:36:18Z</time>
      </trkpt>
      <trkpt lat="49.28131" lon="-0.13805">
        <ele>-6.062</ele>
        <time>2015-09-05T17:36:27Z</time>
      </trkpt>
      <trkpt lat="49.28142" lon="-0.13805">
        <ele>-5.777</ele>
        <time>2015-09-05T17:36:35Z</time>
      </trkpt>
      <trkpt lat="49.28159" lon="-0.13805">
        <ele>-5.526</ele>
        <time>2015-09-05T17:36:46Z</time>
      </trkpt>
      <trkpt lat="49.28176" lon="-0.13805">
        <ele>-5.544</ele>
        <time>2015-09-05T17:36:58Z</time>
      </trkpt>
      <trkpt lat="49.28178" lon="-0.13806">
        <ele>-5.675</ele>
        <time>2015-09-05T17:37:00Z</time>
      </trkpt>
      <trkpt lat="49.28196" lon="-0.13808">
        <ele>-5.855</ele>
        <time>2015-09-05T17:37:12Z</time>
      </trkpt>
      <trkpt lat="49.28213" lon="-0.13808">
        <ele>-5.462</ele>
        <time>2015-09-05T17:37:25Z</time>
      </trkpt>
      <trkpt lat="49.28229" lon="-0.1381">
        <ele>-5.693</ele>
        <time>2015-09-05T17:37:37Z</time>
      </trkpt>
      <trkpt lat="49.28234" lon="-0.13814">
        <ele>-5.228</ele>
        <time>2015-09-05T17:37:42Z</time>
      </trkpt>
      <trkpt lat="49.28245" lon="-0.13819">
        <ele>-5.173</ele>
        <time>2015-09-05T17:37:50Z</time>
      </trkpt>
      <trkpt lat="49.28259" lon="-0.13822">
        <ele>-5.121</ele>
        <time>2015-09-05T17:37:59Z</time>
      </trkpt>
      <trkpt lat="49.28264" lon="-0.13821">
        <ele>-4.907</ele>
        <time>2015-09-05T17:38:08Z</time>
      </trkpt>
      <trkpt lat="49.28265" lon="-0.1382">
        <ele>-4.909</ele>
        <time>2015-09-05T17:38:16Z</time>
      </trkpt>
      <trkpt lat="49.28266" lon="-0.13821">
        <ele>-4.908</ele>
        <time>2015-09-05T17:38:30Z</time>
      </trkpt>
      <trkpt lat="49.28265" lon="-0.13819">
        <ele>-4.844</ele>
        <time>2015-09-05T17:38:32Z</time>
      </trkpt>
      <trkpt lat="49.2827" lon="-0.13802">
        <ele>-5.288</ele>
        <time>2015-09-05T17:38:42Z</time>
      </trkpt>
      <trkpt lat="49.2827" lon="-0.138">
        <ele>-5.158</ele>
        <time>2015-09-05T17:38:50Z</time>
      </trkpt>
      <trkpt lat="49.2827" lon="-0.13802">
        <ele>-4.753</ele>
        <time>2015-09-05T17:40:28Z</time>
      </trkpt>
      <trkpt lat="49.28268" lon="-0.13812">
        <ele>-4.961</ele>
        <time>2015-09-05T17:40:38Z</time>
      </trkpt>
      <trkpt lat="49.2827" lon="-0.13807">
        <ele>-4.84</ele>
        <time>2015-09-05T17:40:45Z</time>
      </trkpt>
      <trkpt lat="49.28278" lon="-0.13823">
        <ele>-4.988</ele>
        <time>2015-09-05T17:40:55Z</time>
      </trkpt>
      <trkpt lat="49.28277" lon="-0.13827">
        <ele>-4.597</ele>
        <time>2015-09-05T17:41:00Z</time>
      </trkpt>
      <trkpt lat="49.28277" lon="-0.13834">
        <ele>-4.846</ele>
        <time>2015-09-05T17:41:09Z</time>
      </trkpt>
      <trkpt lat="49.28277" lon="-0.13834">
        <ele>-5.141</ele>
        <time>2015-09-05T17:41:18Z</time>
      </trkpt>
      <trkpt lat="49.28284" lon="-0.13845">
        <ele>-5.368</ele>
        <time>2015-09-05T17:41:26Z</time>
      </trkpt>
      <trkpt lat="49.28287" lon="-0.13851">
        <ele>-5.117</ele>
        <time>2015-09-05T17:41:29Z</time>
      </trkpt>
      <trkpt lat="49.28294" lon="-0.13858">
        <ele>-5.215</ele>
        <time>2015-09-05T17:41:35Z</time>
      </trkpt>
      <trkpt lat="49.28295" lon="-0.1386">
        <ele>-5.134</ele>
        <time>2015-09-05T17:41:37Z</time>
      </trkpt>
      <trkpt lat="49.28297" lon="-0.13863">
        <ele>-5.312</ele>
        <time>2015-09-05T17:41:39Z</time>
      </trkpt>
      <trkpt lat="49.28301" lon="-0.13866">
        <ele>-5.378</ele>
        <time>2015-09-05T17:41:42Z</time>
      </trkpt>
      <trkpt lat="49.28308" lon="-0.1387">
        <ele>-3.684</ele>
        <time>2015-09-05T17:41:50Z</time>
      </trkpt>
      <trkpt lat="49.28312" lon="-0.13876">
        <ele>-5.735</ele>
        <time>2015-09-05T17:41:56Z</time>
      </trkpt>
      <trkpt lat="49.2833" lon="-0.13882">
        <ele>-5.311</ele>
        <time>2015-09-05T17:42:05Z</time>
      </trkpt>
      <trkpt lat="49.28343" lon="-0.1389">
        <ele>-5.363</ele>
        <time>2015-09-05T17:42:15Z</time>
      </trkpt>
      <trkpt lat="49.28356" lon="-0.13899">
        <ele>-5.116</ele>
        <time>2015-09-05T17:42:26Z</time>
      </trkpt>
      <trkpt lat="49.28372" lon="-0.1391">
        <ele>-5.17</ele>
        <time>2015-09-05T17:42:39Z</time>
      </trkpt>
      <trkpt lat="49.28381" lon="-0.13917">
        <ele>-5.28</ele>
        <time>2015-09-05T17:42:47Z</time>
      </trkpt>
      <trkpt lat="49.28388" lon="-0.13922">
        <ele>-5.337</ele>
        <time>2015-09-05T17:42:53Z</time>
      </trkpt>
      <trkpt lat="49.2839" lon="-0.13925">
        <ele>-5.218</ele>
        <time>2015-09-05T17:42:56Z</time>
      </trkpt>
      <trkpt lat="49.28403" lon="-0.13932">
        <ele>-5.136</ele>
        <time>2015-09-05T17:43:04Z</time>
      </trkpt>
      <trkpt lat="49.28419" lon="-0.13942">
        <ele>-5.01</ele>
        <time>2015-09-05T17:43:16Z</time>
      </trkpt>
      <trkpt lat="49.28435" lon="-0.13949">
        <ele>-5.231</ele>
        <time>2015-09-05T17:43:28Z</time>
      </trkpt>
      <trkpt lat="49.28447" lon="-0.13952">
        <ele>-4.938</ele>
        <time>2015-09-05T17:43:37Z</time>
      </trkpt>
      <trkpt lat="49.28461" lon="-0.13955">
        <ele>-5.372</ele>
        <time>2015-09-05T17:43:48Z</time>
      </trkpt>
      <trkpt lat="49.28473" lon="-0.13951">
        <ele>-4.993</ele>
        <time>2015-09-05T17:43:58Z</time>
      </trkpt>
      <trkpt lat="49.28488" lon="-0.13951">
        <ele>-4.701</ele>
        <time>2015-09-05T17:44:09Z</time>
      </trkpt>
      <trkpt lat="49.28489" lon="-0.13951">
        <ele>-4.784</ele>
        <time>2015-09-05T17:44:10Z</time>
      </trkpt>
      <trkpt lat="49.28495" lon="-0.13951">
        <ele>-4.815</ele>
        <time>2015-09-05T17:44:15Z</time>
      </trkpt>
      <trkpt lat="49.28508" lon="-0.1395">
        <ele>-5.021</ele>
        <time>2015-09-05T17:44:25Z</time>
      </trkpt>
      <trkpt lat="49.28517" lon="-0.1395">
        <ele>-5.001</ele>
        <time>2015-09-05T17:44:32Z</time>
      </trkpt>
      <trkpt lat="49.28527" lon="-0.13951">
        <ele>-5.109</ele>
        <time>2015-09-05T17:44:39Z</time>
      </trkpt>
      <trkpt lat="49.28534" lon="-0.13949">
        <ele>-5.292</ele>
        <time>2015-09-05T17:44:46Z</time>
      </trkpt>
      <trkpt lat="49.28539" lon="-0.13943">
        <ele>-4.99</ele>
        <time>2015-09-05T17:44:52Z</time>
      </trkpt>
      <trkpt lat="49.28542" lon="-0.13925">
        <ele>-5.07</ele>
        <time>2015-09-05T17:45:02Z</time>
      </trkpt>
      <trkpt lat="49.28543" lon="-0.13917">
        <ele>-5.008</ele>
        <time>2015-09-05T17:45:09Z</time>
      </trkpt>
      <trkpt lat="49.28544" lon="-0.13917">
        <ele>-4.989</ele>
        <time>2015-09-05T17:45:11Z</time>
      </trkpt>
      <trkpt lat="49.28546" lon="-0.13918">
        <ele>-5.4</ele>
        <time>2015-09-05T17:45:13Z</time>
      </trkpt>
      <trkpt lat="49.28551" lon="-0.13923">
        <ele>-5.426</ele>
        <time>2015-09-05T17:45:17Z</time>
      </trkpt>
      <trkpt lat="49.28558" lon="-0.13937">
        <ele>-5.056</ele>
        <time>2015-09-05T17:45:27Z</time>
      </trkpt>
      <trkpt lat="49.28579" lon="-0.13935">
        <ele>-4.913</ele>
        <time>2015-09-05T17:45:40Z</time>
      </trkpt>
      <trkpt lat="49.28595" lon="-0.13933">
        <ele>-4.747</ele>
        <time>2015-09-05T17:45:52Z</time>
      </trkpt>
      <trkpt lat="49.28612" lon="-0.13932">
        <ele>-4.372</ele>
        <time>2015-09-05T17:46:04Z</time>
      </trkpt>
      <trkpt lat="49.28627" lon="-0.13932">
        <ele>-4.342</ele>
        <time>2015-09-05T17:46:15Z</time>
      </trkpt>
      <trkpt lat="49.28644" lon="-0.13931">
        <ele>-4.382</ele>
        <time>2015-09-05T17:46:27Z</time>
      </trkpt>
      <trkpt lat="49.28658" lon="-0.13931">
        <ele>-4.659</ele>
        <time>2015-09-05T17:46:37Z</time>
      </trkpt>
      <trkpt lat="49.28679" lon="-0.13928">
        <ele>-4.74</ele>
        <time>2015-09-05T17:46:52Z</time>
      </trkpt>
      <trkpt lat="49.28688" lon="-0.13928">
        <ele>-4.647</ele>
        <time>2015-09-05T17:46:59Z</time>
      </trkpt>
      <trkpt lat="49.28706" lon="-0.13926">
        <ele>-4.695</ele>
        <time>2015-09-05T17:47:10Z</time>
      </trkpt>
      <trkpt lat="49.28723" lon="-0.13925">
        <ele>-4.867</ele>
        <time>2015-09-05T17:47:21Z</time>
      </trkpt>
      <trkpt lat="49.2873" lon="-0.13928">
        <ele>-4.828</ele>
        <time>2015-09-05T17:47:30Z</time>
      </trkpt>
      <trkpt lat="49.28744" lon="-0.13927">
        <ele>-4.606</ele>
        <time>2015-09-05T17:47:38Z</time>
      </trkpt>
      <trkpt lat="49.28755" lon="-0.13927">
        <ele>-4.788</ele>
        <time>2015-09-05T17:47:45Z</time>
      </trkpt>
      <trkpt lat="49.2876" lon="-0.13927">
        <ele>-4.857</ele>
        <time>2015-09-05T17:47:48Z</time>
      </trkpt>
      <trkpt lat="49.28764" lon="-0.1393">
        <ele>-4.608</ele>
        <time>2015-09-05T17:47:53Z</time>
      </trkpt>
      <trkpt lat="49.28778" lon="-0.13926">
        <ele>-4.963</ele>
        <time>2015-09-05T17:48:02Z</time>
      </trkpt>
      <trkpt lat="49.28788" lon="-0.13925">
        <ele>-4.837</ele>
        <time>2015-09-05T17:48:08Z</time>
      </trkpt>
      <trkpt lat="49.2879" lon="-0.13925">
        <ele>-4.985</ele>
        <time>2015-09-05T17:48:09Z</time>
      </trkpt>
      <trkpt lat="49.28801" lon="-0.13925">
        <ele>-4.554</ele>
        <time>2015-09-05T17:48:16Z</time>
      </trkpt>
      <trkpt lat="49.28815" lon="-0.13924">
        <ele>-4.351</ele>
        <time>2015-09-05T17:48:23Z</time>
      </trkpt>
      <trkpt lat="49.28827" lon="-0.13923">
        <ele>-4.51</ele>
        <time>2015-09-05T17:48:31Z</time>
      </trkpt>
      <trkpt lat="49.28839" lon="-0.13922">
        <ele>-3.982</ele>
        <time>2015-09-05T17:48:39Z</time>
      </trkpt>
      <trkpt lat="49.28854" lon="-0.13921">
        <ele>-3.736</ele>
        <time>2015-09-05T17:48:49Z</time>
      </trkpt>
      <trkpt lat="49.28866" lon="-0.1392">
        <ele>-3.204</ele>
        <time>2015-09-05T17:48:58Z</time>
      </trkpt>
      <trkpt lat="49.28874" lon="-0.13921">
        <ele>-2.899</ele>
        <time>2015-09-05T17:49:03Z</time>
      </trkpt>
      <trkpt lat="49.28888" lon="-0.1392">
        <ele>-2.29</ele>
        <time>2015-09-05T17:49:13Z</time>
      </trkpt>
      <trkpt lat="49.28899" lon="-0.1392">
        <ele>-1.666</ele>
        <time>2015-09-05T17:49:20Z</time>
      </trkpt>
      <trkpt lat="49.28909" lon="-0.1392">
        <ele>-1.211</ele>
        <time>2015-09-05T17:49:28Z</time>
      </trkpt>
      <trkpt lat="49.28921" lon="-0.13918">
        <ele>-1.077</ele>
        <time>2015-09-05T17:49:37Z</time>
      </trkpt>
      <trkpt lat="49.28928" lon="-0.13918">
        <ele>-0.945</ele>
        <time>2015-09-05T17:49:44Z</time>
      </trkpt>
      <trkpt lat="49.28946" lon="-0.13917">
        <ele>-1.15</ele>
        <time>2015-09-05T17:49:54Z</time>
      </trkpt>
      <trkpt lat="49.28957" lon="-0.13912">
        <ele>-0.886</ele>
        <time>2015-09-05T17:50:00Z</time>
      </trkpt>
      <trkpt lat="49.28969" lon="-0.13884">
        <ele>-2.767</ele>
        <time>2015-09-05T17:50:16Z</time>
      </trkpt>
      <trkpt lat="49.28979" lon="-0.13864">
        <ele>-3.167</ele>
        <time>2015-09-05T17:50:28Z</time>
      </trkpt>
      <trkpt lat="49.28985" lon="-0.13832">
        <ele>-2.951</ele>
        <time>2015-09-05T17:50:43Z</time>
      </trkpt>
      <trkpt lat="49.2899" lon="-0.13799">
        <ele>-2.976</ele>
        <time>2015-09-05T17:50:58Z</time>
      </trkpt>
      <trkpt lat="49.28997" lon="-0.13767">
        <ele>-2.866</ele>
        <time>2015-09-05T17:51:13Z</time>
      </trkpt>
      <trkpt lat="49.29004" lon="-0.13728">
        <ele>-2.953</ele>
        <time>2015-09-05T17:51:31Z</time>
      </trkpt>
      <trkpt lat="49.29013" lon="-0.1368">
        <ele>-3.306</ele>
        <time>2015-09-05T17:51:53Z</time>
      </trkpt>
      <trkpt lat="49.29019" lon="-0.13644">
        <ele>-3.643</ele>
        <time>2015-09-05T17:52:09Z</time>
      </trkpt>
      <trkpt lat="49.29024" lon="-0.13615">
        <ele>-4.46</ele>
        <time>2015-09-05T17:52:22Z</time>
      </trkpt>
      <trkpt lat="49.29032" lon="-0.13577">
        <ele>-4.275</ele>
        <time>2015-09-05T17:52:40Z</time>
      </trkpt>
      <trkpt lat="49.29039" lon="-0.1354">
        <ele>-3.997</ele>
        <time>2015-09-05T17:52:57Z</time>
      </trkpt>
      <trkpt lat="49.29044" lon="-0.13506">
        <ele>-3.999</ele>
        <time>2015-09-05T17:53:12Z</time>
      </trkpt>
      <trkpt lat="49.2905" lon="-0.13468">
        <ele>-4.207</ele>
        <time>2015-09-05T17:53:30Z</time>
      </trkpt>
      <trkpt lat="49.29054" lon="-0.13436">
        <ele>-4.518</ele>
        <time>2015-09-05T17:53:45Z</time>
      </trkpt>
      <trkpt lat="49.29062" lon="-0.13397">
        <ele>-4.173</ele>
        <time>2015-09-05T17:54:03Z</time>
      </trkpt>
      <trkpt lat="49.29069" lon="-0.13365">
        <ele>-4.285</ele>
        <time>2015-09-05T17:54:18Z</time>
      </trkpt>
      <trkpt lat="49.29075" lon="-0.13331">
        <ele>-4.258</ele>
        <time>2015-09-05T17:54:33Z</time>
      </trkpt>
      <trkpt lat="49.2908" lon="-0.13298">
        <ele>-4.448</ele>
        <time>2015-09-05T17:54:48Z</time>
      </trkpt>
      <trkpt lat="49.29086" lon="-0.13267">
        <ele>-4.497</ele>
        <time>2015-09-05T17:55:02Z</time>
      </trkpt>
      <trkpt lat="49.29095" lon="-0.13209">
        <ele>-4.077</ele>
        <time>2015-09-05T17:55:27Z</time>
      </trkpt>
      <trkpt lat="49.29103" lon="-0.1316">
        <ele>-3.853</ele>
        <time>2015-09-05T17:55:48Z</time>
      </trkpt>
      <trkpt lat="49.29111" lon="-0.13107">
        <ele>-3.632</ele>
        <time>2015-09-05T17:56:10Z</time>
      </trkpt>
      <trkpt lat="49.29116" lon="-0.13073">
        <ele>-2.728</ele>
        <time>2015-09-05T17:56:25Z</time>
      </trkpt>
      <trkpt lat="49.29125" lon="-0.13027">
        <ele>-3.112</ele>
        <time>2015-09-05T17:56:45Z</time>
      </trkpt>
      <trkpt lat="49.29133" lon="-0.12987">
        <ele>-3.221</ele>
        <time>2015-09-05T17:57:03Z</time>
      </trkpt>
      <trkpt lat="49.29141" lon="-0.12942">
        <ele>-2.78</ele>
        <time>2015-09-05T17:57:23Z</time>
      </trkpt>
      <trkpt lat="49.29147" lon="-0.12912">
        <ele>-3.104</ele>
        <time>2015-09-05T17:57:36Z</time>
      </trkpt>
      <trkpt lat="49.29154" lon="-0.12877">
        <ele>-2.506</ele>
        <time>2015-09-05T17:57:51Z</time>
      </trkpt>
      <trkpt lat="49.29163" lon="-0.12836">
        <ele>-2.712</ele>
        <time>2015-09-05T17:58:10Z</time>
      </trkpt>
      <trkpt lat="49.29171" lon="-0.12793">
        <ele>-2.942</ele>
        <time>2015-09-05T17:58:30Z</time>
      </trkpt>
      <trkpt lat="49.29178" lon="-0.12761">
        <ele>-2.779</ele>
        <time>2015-09-05T17:58:45Z</time>
      </trkpt>
      <trkpt lat="49.29184" lon="-0.12729">
        <ele>-2.723</ele>
        <time>2015-09-05T17:59:01Z</time>
      </trkpt>
      <trkpt lat="49.2919" lon="-0.12692">
        <ele>-2.735</ele>
        <time>2015-09-05T17:59:18Z</time>
      </trkpt>
      <trkpt lat="49.29198" lon="-0.12656">
        <ele>-2.461</ele>
        <time>2015-09-05T17:59:35Z</time>
      </trkpt>
      <trkpt lat="49.29208" lon="-0.12621">
        <ele>-3.199</ele>
        <time>2015-09-05T17:59:51Z</time>
      </trkpt>
      <trkpt lat="49.29215" lon="-0.12581">
        <ele>-2.769</ele>
        <time>2015-09-05T18:00:09Z</time>
      </trkpt>
      <trkpt lat="49.29223" lon="-0.12547">
        <ele>-2.699</ele>
        <time>2015-09-05T18:00:25Z</time>
      </trkpt>
      <trkpt lat="49.29228" lon="-0.12518">
        <ele>-2.792</ele>
        <time>2015-09-05T18:00:39Z</time>
      </trkpt>
      <trkpt lat="49.29234" lon="-0.12484">
        <ele>-2.521</ele>
        <time>2015-09-05T18:00:55Z</time>
      </trkpt>
      <trkpt lat="49.29237" lon="-0.12474">
        <ele>-2.343</ele>
        <time>2015-09-05T18:01:00Z</time>
      </trkpt>
      <trkpt lat="49.29229" lon="-0.12466">
        <ele>-1.254</ele>
        <time>2015-09-05T18:01:08Z</time>
      </trkpt>
      <trkpt lat="49.29225" lon="-0.12459">
        <ele>-1.288</ele>
        <time>2015-09-05T18:01:14Z</time>
      </trkpt>
      <trkpt lat="49.29209" lon="-0.12448">
        <ele>-0.794</ele>
        <time>2015-09-05T18:01:26Z</time>
      </trkpt>
      <trkpt lat="49.29199" lon="-0.12436">
        <ele>-0.95</ele>
        <time>2015-09-05T18:01:35Z</time>
      </trkpt>
      <trkpt lat="49.29194" lon="-0.12422">
        <ele>-1.325</ele>
        <time>2015-09-05T18:01:44Z</time>
      </trkpt>
      <trkpt lat="49.29194" lon="-0.12416">
        <ele>-1.309</ele>
        <time>2015-09-05T18:01:49Z</time>
      </trkpt>
      <trkpt lat="49.29198" lon="-0.12408">
        <ele>-1.164</ele>
        <time>2015-09-05T18:01:53Z</time>
      </trkpt>
      <trkpt lat="49.29202" lon="-0.12398">
        <ele>-1.097</ele>
        <time>2015-09-05T18:01:59Z</time>
      </trkpt>
      <trkpt lat="49.29206" lon="-0.12391">
        <ele>-0.554</ele>
        <time>2015-09-05T18:02:06Z</time>
      </trkpt>
      <trkpt lat="49.29208" lon="-0.12387">
        <ele>-0.639</ele>
        <time>2015-09-05T18:02:09Z</time>
      </trkpt>
      <trkpt lat="49.29211" lon="-0.12382">
        <ele>-0.856</ele>
        <time>2015-09-05T18:02:12Z</time>
      </trkpt>
      <trkpt lat="49.29211" lon="-0.1237">
        <ele>-0.358</ele>
        <time>2015-09-05T18:02:18Z</time>
      </trkpt>
      <trkpt lat="49.29209" lon="-0.12367">
        <ele>-0.516</ele>
        <time>2015-09-05T18:02:19Z</time>
      </trkpt>
      <trkpt lat="49.2921" lon="-0.12342">
        <ele>-0.411</ele>
        <time>2015-09-05T18:02:31Z</time>
      </trkpt>
      <trkpt lat="49.29209" lon="-0.12339">
        <ele>-0.33</ele>
        <time>2015-09-05T18:02:33Z</time>
      </trkpt>
      <trkpt lat="49.29193" lon="-0.12331">
        <ele>-0.501</ele>
        <time>2015-09-05T18:02:45Z</time>
      </trkpt>
      <trkpt lat="49.29181" lon="-0.12333">
        <ele>-0.426</ele>
        <time>2015-09-05T18:02:53Z</time>
      </trkpt>
      <trkpt lat="49.29178" lon="-0.12339">
        <ele>-0.495</ele>
        <time>2015-09-05T18:02:59Z</time>
      </trkpt>
    </trkseg>
  </trk>
</gpx>